     2              OBSERVATION DATA    GPS                 RINEX VERSION / TYPE
ASRINEXO V2.8.2 VM                                          PGM / RUN BY / DATE
                                                            COMMENT
BIT 2 OF LLI (+4) FLAGS DATA COLLECTED UNDER "AS" CONDITION COMMENT
Original Marker Name: 1108                                  COMMENT
Campaign Name: hpgn ca 1991                                 COMMENT
4-Character Station Name: 1108                              COMMENT
6-Character Antenna Code: ASHL12                            COMMENT
Vertical Measurement Point: BAS                             COMMENT
Vertical Offset to Rinex Ref. Point: 0.0000                 COMMENT
Radial Measurement Point: RRP                               COMMENT
Radial Offset to Rinex Ref. Point: 0.0000                   COMMENT
Antenna Height from Field Measurement: 2.2200 m             COMMENT
Additional Antenna Identification Info.:                    COMMENT
Original Ashtech L1/L2                                      COMMENT
Original XYZ: -2435444.5900 -4779829.1300 3438447.6000      COMMENT
New XYZ position is based on association with SCEC monument COMMENT
E1D0G6B4+0011. Position of that monument is believed to be  COMMENT
valid to within 1 m horizontally; vertical accuracy         COMMENT
should be no worse than 3-times this value.                 COMMENT
                                                            COMMENT
Revised Rinex header created by UCSD GPS archive for        COMMENT
GSAC on 12-Apr-1999 (1999:102) 04:43:33 GMT                 COMMENT
For assistance contact dagnew@ucsd.edu or hjohnson@ucsd.edu COMMENT
                                                            COMMENT
HPGN CA 11-08                                               MARKER NAME
PTD CALIF DEPT TRANSPORTATION                               OBSERVER / AGENCY
619 ASHTECH L-XII3 6A                                       REC # / TYPE / VERS
617 ASHTECH GEODETIC L                                      ANT # / TYPE
 -2399263.0000 -4771787.0000  3476135.0000                  APPROX POSITION XYZ
        2.2200        0.0000        0.0000                  ANTENNA: DELTA H/E/N
     1     2     0                                          WAVELENGTH FACT L1/2
     3    C1    L1    L2                                    # / TYPES OF OBSERV
     0                                                      INTERVAL
  1991     4     7    20    23   45.000000                  TIME OF FIRST OBS
  1991     4     8     3    30    0.000000                  TIME OF LAST OBS
     0                                                      # OF SATELLITES
                                                            END OF HEADER
 91  4  7 20 23 45.0000000  0  3 18 19 14
  20249625.474           0.172 4         0.158 3
  21003691.647           0.695 3         0.014 2
  23394090.407           0.221 2         0.263 1
 91  4  7 20 24  0.0000000  0  3 18 19 14
  20249295.704       -1724.083 4     -1343.429 3
  21001554.126      -11233.984 3     -8754.233 2
  23404082.192       52522.361 2     40926.777 1
 91  4  7 20 24 15.0000000  0  3 18 19 14
  20249016.597       -3207.127 4     -2499.041 3
  20999448.085      -22288.569 3    -17368.196 2
  23414098.556      105198.818 2     81973.148 1
 91  4  7 20 24 30.0000000  0  3 18 19 14
  20248779.461       -4442.405 4     -3461.602 3
  20997379.218      -33156.835 3    -25836.954 2
  23424164.090      158035.259 2    123144.162 1
 91  4  7 20 24 45.0000000  0  3 18 19 14
  20248591.492       -5433.260 4     -4233.696 3
  20995350.220      -43842.222 3    -34163.231 2
  23434247.607      211027.878 2    164437.345 1
 91  4  7 20 25  0.0000000  0  3 18 19 14
  20248459.581       -6128.239 4     -4775.245 3
  20993358.400      -54293.197 3    -42306.811 2
  23444364.405      264227.688 2    205891.506 1
 91  4  7 20 25 15.0000000  0  3 18 19 14
  20248393.628       -6470.245 4     -5041.747 3
  20991427.136      -64453.217 3    -50223.690 2
  23454545.355      317691.417 2    247551.316 1
 91  4  7 20 25 30.0000000  0  3 18 19 14
  20248383.734       -6520.874 4     -5081.202 3
  20989535.747      -74383.762 3    -57961.772 2
  23464752.690      371357.065 2    289368.489 1
 91  4  7 20 25 45.0000000  0  3 18 19 14
  20248432.302       -6273.060 4     -4888.092 3
  20987689.924      -84078.045 3    -65515.740 2
  23475013.087      425231.127 2    331348.029 1
 91  4  7 20 26  0.0000000  0  3 18 19 14
  20248536.628       -5731.767 4     -4466.314 3
  20985891.469      -93541.400 3    -72889.763 2
  23485301.962      479308.154 2    373486.218 1
 91  4  7 20 26 15.0000000  0  4 18 19 11 14
  20248692.223       -4903.707 4     -3821.078 3
  20984132.588     -102780.801 3    -80089.273 2
  24378169.047           0.716 2         0.170 1
  23495630.715      533580.743 2    415776.335 1
 91  4  7 20 26 30.0000000  0  4 18 19 11 14
  20248902.677       -3798.957 4     -2960.238 3
  20982417.772     -111806.356 3    -87122.142 2
  24370678.728      -39417.604 2    -30715.208 1
  23505987.345      588038.568 2    458210.766 1
 91  4  7 20 26 45.0000000  0  4 18 19 11 14
  20249163.196       -2416.900 4     -1883.309 3
  20980742.233     -120617.405 3    -93987.896 2
  24363218.394      -78620.196 2    -61262.439 1
  23516390.140      642681.638 2    500790.024 1
 91  4  7 20 27  0.0000000  0  4 18 19 11 14
  20249480.079        -764.687 4      -595.877 3
  20979098.174     -129221.411 3   -100692.286 2
  24355794.936     -117614.181 2    -91647.139 1
  23526819.323      697502.243 2    543507.131 1
 91  4  7 20 27 15.0000000  0  4 18 19 11 14
  20249848.819        1174.280 4       915.001 3
  20977506.273     -137601.971 3   -107222.581 2
  24348419.741     -156382.765 2   -121856.178 1
  23537291.374      752516.223 2    586375.352 1
 91  4  7 20 27 30.0000000  0  4 18 19 11 14
  20250267.633        3371.260 4      2626.923 3
  20975949.151     -145787.905 3   -113601.217 2
  24341076.022     -194954.391 2   -151911.766 1
  23547788.007      807694.786 2    629371.433 1
 91  4  7 20 27 45.0000000  0  4 18 19 11 14
  20250733.209        5825.666 4      4539.449 3
  20974428.007     -153779.899 3   -119828.718 2
  24333770.379     -233329.106 2   -181813.903 1
  23558326.311      863036.867 2    672494.896 1
 91  4  7 20 28  0.0000000  0  4 18 19 11 14
  20251248.554        8535.655 4      6651.130 3
  20972942.832     -161579.975 3   -125906.683 2
  24326512.105     -271508.613 2   -211563.990 1
  23568880.805      918539.918 2    715744.259 1
 91  4  7 20 28 15.0000000  0  4 18 19 11 14
  20251814.560       11499.815 4      8960.860 3
  20971494.237     -169189.989 3   -131836.543 2
  24319278.414     -309494.106 2   -241163.220 1
  23579476.067      974202.023 2    759117.095 1
 91  4  7 20 28 30.0000000  0  4 18 19 11 14
  20252427.935       14717.930 4     11468.469 3
  20970084.312     -176610.146 4   -137618.455 2
  24312092.388     -347285.322 2   -270610.706 1
  23590102.211     1030022.506 2    802613.822 1
 91  4  7 20 28 45.0000000  0  4 18 19 11 14
  20253085.381       18184.364 4     14169.573 3
  20968704.366     -183846.211 3   -143256.941 2
  24304934.545     -384887.482 2   -299911.266 1
  23600748.741     1085995.226 2    846228.680 1
 91  4  7 20 29  0.0000000  0  4 18 19 11 14
  20253794.091       21901.178 4     17065.786 3
  20967361.899     -190896.461 4   -148750.620 2
  24297828.262     -422298.316 2   -329062.439 1
  23611429.448     1142121.975 2    889963.585 1
 91  4  7 20 29 15.0000000  0  4 18 19 11 14
  20254548.669       25867.961 4     20156.788 3
  20966059.301     -197761.256 3   -154099.789 2
  24290738.470     -459518.022 2   -358064.563 1
  23622137.735     1198401.816 2    933818.236 1
 91  4  7 20 29 30.0000000  0  4 18 19 11 14
  20255350.611       30078.554 4     23437.759 3
  20964789.078     -204446.868 4   -159309.344 2
  24283683.456     -496552.339 2   -386922.230 1
  23632883.496     1254827.953 2    977786.456 1
 91  4  7 20 29 45.0000000  0  4 18 19 11 14
  20256197.226       34525.845 4     26903.174 3
  20963545.837     -210960.504 3   -164384.877 2
  24276668.913     -533407.964 2   -415641.097 1
  23643639.448     1311393.016 2   1021863.322 1
 91  4  7 20 30  0.0000000  0  4 18 19 11 14
  20257087.911       39207.428 4     30551.143 3
  20962337.977     -217305.049 4   -169328.669 2
  24269688.542     -570087.234 2   -444222.294 1
  23654427.483     1368093.807 2   1066045.988 1
 91  4  7 20 30 15.0000000  0  4 18 19 11 14
  20258019.365       44122.254 4     34380.872 3
  20961164.288     -223481.602 3   -174141.532 2
  24262749.546     -606590.834 2   -472666.749 1
  23665247.591     1424928.920 2   1110332.924 1
 91  4  7 20 30 30.0000000  0  4 18 19 11 14
  20258999.085       49265.895 4     38388.905 3
  20960022.979     -229494.627 3   -178826.986 2
  24255828.240     -642922.745 2   -500977.157 1
  23676085.986     1481893.671 2   1154721.184 1
 91  4  7 20 30 45.0000000  0  4 18 19 11 14
  20260023.177       54637.123 4     42574.271 3
  20958906.553     -235345.802 3   -183386.328 2
  24248950.102     -679084.252 2   -529155.132 1
  23686955.260     1538985.921 2   1199208.428 1
 91  4  7 20 31  0.0000000  0  4 18 19 11 14
  20261083.544       60227.735 4     46930.572 3
  20957820.102     -241043.309 4   -187825.926 2
  24242098.644     -715082.928 2   -557205.865 1
  23697845.522     1596197.254 2   1243788.932 1
 91  4  7 20 31 15.0000000  0  4 18 19 11 14
  20262190.979       66045.167 4     51463.626 3
  20956768.430     -246579.811 3   -192140.062 2
  24235285.560     -750910.966 2   -585123.589 1
  23708743.580     1653534.700 2   1288467.672 1
 91  4  7 20 31 30.0000000  0  4 18 19 11 14
  20263343.980       72085.655 4     56170.492 3
  20955745.241     -251959.370 3   -196331.903 2
  24228493.464     -786572.086 2   -612911.721 1
  23719688.400     1710993.721 2   1333240.688 1
 91  4  7 20 31 45.0000000  0  4 18 19 11 14
  20264531.755       78345.681 4     61048.426 3
  20954750.230     -257185.360 3   -200404.078 2
  24221736.740     -822069.216 2   -640571.630 1
  23730639.520     1768570.474 2   1378105.475 1
 91  4  7 20 32  0.0000000  0  4 18 19 11 14
  20265768.701       84827.324 4     66099.045 3
  20953787.593     -262256.058 3   -204355.256 2
  24215022.289     -857400.095 2   -668101.995 1
  23741628.411     1826266.878 2   1423063.874 1
 91  4  7 20 32 15.0000000  0  4 18 19 11 14
  20267042.820       91526.792 4     71319.400 3
  20952850.442     -267175.304 3   -208188.411 2
  24208320.729     -892567.980 2   -695505.781 1
  23752626.899     1884078.483 2   1468111.662 1
 91  4  7 20 32 30.0000000  0  4 18 19 11 14
  20268360.407       98446.134 4     76711.084 3
  20951939.676     -271941.519 4   -211902.324 2
  24201658.441     -927570.837 2   -722780.488 1
  23763640.373     1942006.558 2   1513250.172 1
 91  4  7 20 32 45.0000000  0  4 18 19 11 14
  20269718.767      105586.315 4     82274.850 3
  20951063.382     -276553.401 3   -215495.982 2
  24195032.729     -962407.027 2   -749925.332 1
  23774690.126     2000052.148 2   1558480.662 1
 91  4  7 20 33  0.0000000  0  4 18 19 11 14
  20271114.601      112942.256 4     88006.739 3
  20950216.467     -281016.465 3   -218973.677 2
  24188433.095     -997081.563 2   -776944.298 1
  23785760.260     2058209.368 2   1603797.782 1
 91  4  7 20 33 15.0000000  0  4 18 19 11 14
  20272559.300      120513.584 4     93906.470 3
  20949393.235     -285331.222 3   -222335.799 2
  24181865.545    -1031594.318 2   -803837.190 1
  23796849.285     2116477.255 2   1649201.089 1
 91  4  7 20 33 30.0000000  0  4 18 19 11 14
  20274041.474      128297.277 4     99971.672 3
  20948596.986     -289500.687 3   -225584.713 2
  24175329.766    -1065948.232 2   -830606.659 1
  23807959.891     2174852.340 2   1694688.333 1
 91  4  7 20 33 45.0000000  0  5 18 19 11 02 14
  20275560.223      136293.005 4    106202.085 3
  20947832.217     -293525.215 3   -228720.692 2
  24168825.472    -1100142.974 2   -857251.762 1
  24663373.604           0.013 2         0.087
  23819095.084     2233334.227 2   1740258.870
 91  4  7 20 34  0.0000000  0  5 18 19 11 02 14
  20277122.140      144500.065 4    112597.188 3
  20947100.124     -297405.849 3   -231744.540 2
  24162346.957    -1134179.027 2   -883773.161 1
  24654648.142      -45933.131 1    -35791.807 1
  23830231.774     2291921.539 2   1785911.109 1
 91  4  7 20 34 15.0000000  0  5 18 19 11 02 14
  20278723.930      152913.929 4    119153.438 3
  20946384.220     -301147.558 3   -234660.136 2
  24155898.120    -1168060.906 2   -910174.399 1
  24645932.875      129637.89612    101016.969 1
  23841408.036     2350609.143 2   1831641.917 1
 91  4  7 20 34 30.0000000  0  5 18 19 11 02 14
  20280364.395      161536.370 4    125872.208 3
  20945700.394     -304748.401 3   -237465.973 2
  24149482.560    -1201786.328 2   -936454.187 1
  24637231.699       83957.422 2     65421.953 1
  23852593.892     2409398.529 2   1877451.589 1
 91  4  7 20 34 45.0000000  0  5 18 19 11 02 14
  20282044.733      170367.436 4    132753.543 3
  20945041.448     -308208.606 3   -240162.220 2
  24143097.582    -1235355.014 2   -962611.446 1
  24628570.693       38404.182 2     29925.810 1
  23863799.235     2468288.839 2   1923340.290 1
 91  4  7 20 35  0.0000000  0  5 18 19 11 02 14
  20283763.444      179406.368 4    139796.851 3
  20944408.886     -311529.039 4   -242749.546 2
  24136735.386    -1268767.365 2   -988647.277 1
  24619912.990       -7022.326 2     -5471.718 1
  23875023.765     2527279.164 2   1969306.592 1
 91  4  7 20 35 15.0000000  0  5 18 19 11 02 14
  20285523.224      188653.273 4    147002.216 3
  20943806.906     -314709.387 3   -245227.718 2
  24130404.368    -1302022.750 2  -1014560.392 1
  24611302.049      -52321.625 2    -40770.091 1
  23886266.582     2586369.475 2   2015351.169 1
 91  4  7 20 35 30.0000000  0  5 18 19 11 02 14
  20287323.179      198108.675 4    154370.047 3
  20943228.003     -317749.467 3   -247596.597 2
  24124104.229    -1335120.506 2  -1040350.681 1
  24602702.504      -97493.385 2    -75969.100 1
  23897530.986     2645559.811 2   2061473.747
 91  4  7 20 35 45.0000000  0  5 18 19 11 02 14
  20289163.004      207768.015 4    161896.788 3
  20942674.888     -320654.080 3   -249859.917 2
  24117840.068    -1368064.717 2  -1066021.281 1
  24594131.437     -142541.723 2   -111071.513 1
  23908812.473     2704845.044 2   2107670.001 1
 91  4  7 20 36  0.0000000  0  5 18 19 11 02 14
  20291039.705      217631.305 4    169582.453 3
  20942140.659     -323423.175 3   -252017.634 2
  24111607.382    -1400855.089 2  -1091572.112 1
  24585575.961     -187466.801 2   -146078.249 1
  23920114.050     2764224.781 2   2153939.918 1
 91  4  7 20 36 15.0000000  0  5 18 19 11 02 14
  20292955.080      227693.424 4    177423.047 3
  20941642.102     -326062.095 3   -254073.922 2
  24105396.880    -1433496.500 2  -1117007.197 1
  24577057.057     -232273.627 2   -180992.824 1
  23931427.017     2823693.146 2   2200279.148 1
 91  4  7 20 36 30.0000000  0  5 18 19 11 02 14
  20294905.831      237955.780 4    185419.668 3
  20941172.329     -328569.674 3   -256027.857 2
  24099202.271    -1465987.206 2  -1142324.509 1
  24568557.942     -276960.650 2   -215814.070 1
  23942764.271     2883251.201 2   2246688.242 1
 91  4  7 20 36 45.0000000  0  5 18 19 11 02 14
  20296897.350      248412.130 4    193567.457 3
  20940710.949     -330952.429 3   -257884.542 2
  24093048.430    -1498333.192 2  -1167529.008 1
  24560066.618     -321533.977 2   -250546.762 1
  23954111.415     2942892.116 2   2293161.867 1
 91  4  7 20 37  0.0000000  0  5 18 19 11 02 14
  20298923.949      259062.619 4    201866.534 3
  20940281.347     -333209.932 3   -259643.623 2
  24086917.073    -1530533.833 2  -1192620.234 1
  24551602.878     -365993.266 2   -285190.568 1
  23965467.851     3002615.725 2   2339699.549 1
 91  4  7 20 37 15.0000000  0  5 18 19 11 02 14
  20300985.919      269907.835 4    210317.331 3
  20939879.621     -335341.903 3   -261304.884 2
  24080821.996    -1562588.187 2  -1217597.524 1
  24543167.321     -410337.908 2   -319744.621 1
  23976862.664     3062422.113 2   2386302.076 1
 91  4  7 20 37 30.0000000  0  5 18 19 11 02 14
  20303088.365      280943.835 4    218916.796 3
  20939493.792     -337352.391 3   -262871.477 2
  24074753.595    -1594499.873 2  -1242463.570 1
  24534743.451     -454571.718 2   -354212.693 1
  23988261.373     3122307.010 2   2432965.391 1
 91  4  7 20 37 45.0000000  0  5 18 19 11 02 14
  20305223.787      292171.640 4    227665.720 3
  20939136.739     -339240.595 3   -264342.791 2
  24068699.888    -1626267.731 2  -1267217.567 1
  24526358.255     -498693.602 2   -388593.591 1
  23999669.675     3182271.191 2   2479690.857 1
 91  4  7 20 38  0.0000000  0  5 18 19 11 02 14
  20307398.180      303588.857 4    236562.230 3
  20938798.571     -341008.869 3   -265720.661 2
  24062685.448    -1657893.634 2  -1291860.934 1
  24517985.051     -542705.748 2   -422888.559 1
  24011093.866     3242311.553 2   2526475.317 1
 91  4  7 20 38 15.0000000  0  5 18 19 11 02 14
  20309603.753      315193.403 4    245604.719 3
  20938482.591     -342659.404 3   -267006.779 2
  24056688.999    -1689379.539 2  -1316395.284 1
  24509624.142     -586610.147 2   -457099.958 1
  24022537.544     3302425.361 2   2573316.997 1
 91  4  7 20 38 30.0000000  0  5 18 19 11 02 14
  20311848.601      326984.641 4    254792.682 3
  20938193.288     -344192.865 3   -268201.661 2
  24050731.826    -1720725.540 2  -1340820.570 1
  24501295.606     -630407.249 2   -491227.766 1
  24033986.318     3362611.989 2   2620215.848 1
 91  4  7 20 38 45.0000000  0  5 18 19 11 02 14
  20314128.821      338958.475 4    264122.925 3
  20937923.478     -345613.599 3   -269308.727 2
  24044786.642    -1751935.357 2  -1365139.760 1
  24492979.064     -674101.179 2   -525275.176 1
  24045450.383     3422867.037 2   2667167.623 1
 91  4  7 20 39  0.0000000  0  5 18 19 11 02 14
  20316442.920      351116.486 4    273596.681 3
  20937674.049     -346920.140 3   -270326.786 2
  24038874.434    -1783006.958 2  -1389351.286 1
  24484682.907     -717690.053 2   -559240.300 1
  24056929.136     3483191.716 2   2714173.939 1
 91  4  7 20 39 15.0000000  0  5 18 19 11 02 14
  20318788.797      363454.357 4    283210.580 3
  20937446.210     -348116.980 3   -271259.385 2
  24032983.812    -1813944.576 2  -1413458.765 1
  24476414.331     -761178.283 2   -593127.444 1
  24068412.985     3543580.881 2   2761230.228 1
 91  4  7 20 39 30.0000000  0  5 18 19 11 02 14
  20321170.346      375975.311 4    292967.157 3
  20937241.750     -349201.010 3   -272104.062 2
  24027121.372    -1844744.662 2  -1437458.746 1
  24468156.849     -804562.427 2   -626933.444 1
  24079922.018     3604037.031 2   2808339.036 1
 91  4  7 20 39 45.0000000  0  5 18 19 11 02 14
  20323587.873      388678.052 4    302865.376 3
  20937054.378     -350173.433 3   -272861.786 2
  24021288.606    -1875407.940 2  -1461352.036 1
  24459919.748     -847843.488 2   -660658.698 1
  24091443.939     3664558.961 2   2855498.775 1
 91  4  7 20 40  0.0000000  0  5 18 19 11 02 14
  20326038.974      401559.861 4    312903.144 3
  20936890.691     -351037.464 3   -273535.045 2
  24015478.931    -1905937.084 2  -1485140.853 1
  24451698.541     -891024.239 2   -694305.794 1
  24102960.769     3725143.258 2   2902707.079 1
 91  4  7 20 40 15.0000000  0  5 18 19 11 02 14
  20328525.154      414620.877 4    323080.534 3
  20936745.592     -351792.872 3   -274123.658 2
  24009696.234    -1936331.469 2  -1508824.589 1
  24443498.919     -934104.376 2   -727874.942 1
  24114507.272     3785789.711 2   2949964.237 1
 91  4  7 20 40 30.0000000  0  5 18 19 11 02 14
  20331044.613      427861.191 4    333397.645 3
  20936624.776     -352439.729 3   -274627.680 2
  24003940.219    -1966590.788 2  -1532403.142 1
  24435320.879     -977083.863 2   -761365.217 1
  24126063.675     3846497.921 2   2997269.491 1
 91  4  7 20 40 45.0000000  0  5 18 19 11 02 14
  20333599.442      441282.282 4    343855.625 3
  20936522.247     -352976.482 3   -275045.920 2
  23998206.985    -1996713.136 2  -1555875.035 1
  24427146.137    -1019960.946 2   -794776.162 1
  24137626.368     3907268.945 2   3044623.359 1
 91  4  7 20 41  0.0000000  0  5 18 19 11 02 14
  20336187.549      454885.261 4    354455.331 3
  20936439.803     -353402.281 3   -275377.694 2
  23992503.735    -2026696.964 2  -1579238.860 1
  24419014.566    -1062734.373 2   -828106.312 1
  24149212.449     3968103.521 2   3092027.078 1
 91  4  7 20 41 15.0000000  0  5 18 19 11 02 14
  20338807.438      468665.073 4    365192.830 2
  20936381.646     -353722.158 3   -275626.945 2
  23986818.471    -2056546.940 2  -1602498.436 1
  24410893.488    -1105409.016 2   -861359.036 1
  24160792.230     4028996.308 2   3139475.776 1
 91  4  7 20 41 30.0000000  0  5 18 19 11 02 14
  20341464.495      482621.706 4    376068.111 3
  20936339.072     -353936.356 3   -275793.836 2
  23981161.686    -2086262.982 2  -1625653.632 1
  24402787.404    -1147985.021 2   -894534.973 1
  24172396.598     4089946.590 2   3186969.629 1
 91  4  7 20 41 45.0000000  0  5 18 19 11 02 14
  20344156.632      496761.847 4    387086.387 3
  20936318.088     -354038.234 3   -275873.192 2
  23975537.582    -2115838.100 2  -1648699.060 1
  24394704.995    -1190455.673 2   -927629.180 1
  24184007.559     4150960.919 2   3234513.061 1
 91  4  7 20 42  0.0000000  0  5 18 19 11 02 14
  20346881.745      511076.124 4    398240.347 3
  20936322.285     -354037.263 3   -275872.410 2
  23969935.359    -2145281.023 2  -1671641.412 1
  24386647.776    -1232829.899 2   -960648.294 1
  24195622.720     4212029.318 2   3282098.584 1
 91  4  7 20 42 15.0000000  0  5 18 19 11 02 14
  20349637.741      525569.175 4    409533.624 3
  20936339.072     -353928.704 3   -275787.809 2
  23964362.218    -2174586.664 2  -1694476.896 1
  24378606.441    -1275102.725 2   -993588.391 1
  24207257.064     4273156.401 2   3329730.261 1
 91  4  7 20 42 30.0000000  0  5 18 19 11 02 14
  20352432.402      540243.517 4    420968.167 3
  20936378.348     -353710.505 3   -275617.769 2
  23958804.363    -2203752.676 2  -1717203.559 1
  24370573.203    -1317271.814 2  -1026447.207 1
  24218902.502     4334343.767 2   3377408.499 1
 91  4  7 20 42 45.0000000  0  5 18 19 11 02 14
  20355258.548      555096.910 4    432542.216 3
  20936444.000     -353384.957 3   -275364.086 2
  23953286.386    -2232780.728 2  -1739822.641 1
  24362578.939    -1359339.265 2  -1059226.801 1
  24230558.432     4395588.623 2   3425131.925 1
 91  4  7 20 43  0.0000000  0  5 18 19 11 02 14
  20358117.967      570132.398 4    444258.163 3
  20936528.241     -352949.164 3   -275024.492 2
  23947784.895    -2261667.485 2  -1762331.569 1
  24354598.161    -1401302.178 2  -1091925.393 1
  24242222.458     4456893.729 2   3472902.380 1
 91  4  7 20 43 15.0000000  0  5 18 19 11 02 14
  20361013.665      585350.070 4    456116.079 3
  20936630.473     -352402.953 3   -274598.847 2
  23942323.273    -2290412.457 2  -1784730.114 1
  24346629.379    -1443160.059 2  -1124541.721 1
  24253903.573     4518258.942 2   3520719.648 1
 91  4  7 20 43 30.0000000  0  5 18 19 11 02 14
  20363945.934      600750.556 4    468116.437 3
  20936753.689     -351746.044 3   -274086.968 2
  23936883.539    -2319014.790 2  -1807017.575 1
  24338686.376    -1484912.194 2  -1157075.625 1
  24265585.285     4579684.429 2   3568583.898 1
 91  4  7 20 43 45.0000000  0  5 18 19 11 02 14
  20366910.582      616334.146 4    480259.485 2
  20936902.382     -350977.999 3   -273488.481 2
  23931462.092    -2347473.758 2  -1829193.258 1
  24330757.167    -1526558.245 2  -1189526.876 1
  24277288.583     4641169.883 2   3616494.869 1
 91  4  7 20 44  0.0000000  0  5 18 19 11 02 14
  20369910.902      632103.902 4    492547.595 2
  20937071.466     -350095.731 3   -272800.975 2
  23926068.230    -2375785.884 2  -1851254.515 1
  24322848.942    -1568094.665 2  -1221892.725 1
  24289008.669     4702718.347 2   3664454.870 1
 91  4  7 20 44 15.0000000  0  5 18 19 11 02 14
  20372947.803      648056.807 4    504978.414 2
  20937258.537     -349102.276 3   -272026.838 2
  23920706.738    -2403953.544 2  -1873203.174 1
  24314965.000    -1609524.321 2  -1254175.815 1
  24300725.456     4764326.488 2   3712461.007 1
 91  4  7 20 44 30.0000000  0  5 18 19 11 02 14
  20376018.278      664193.306 4    517552.289 3
  20937471.390     -347997.605 3   -271166.042 2
  23915373.131    -2431976.436 2  -1895039.053 1
  24307099.946    -1650846.923 2  -1286375.017 1
  24312459.035     4825994.001 2   3760513.808 1
 91  4  7 20 44 45.0000000  0  5 18 19 11 02 14
  20379124.726      680513.410 4    530269.232 3
  20937699.530     -346781.841 3   -270218.685 2
  23910074.900    -2459854.256 2  -1916761.879 1
  24299269.667    -1692062.405 2  -1318490.767 1
  24324204.004     4887720.500 2   3808612.128 1
 91  4  7 20 45  0.0000000  0  5 18 19 11 02 14
  20382261.455      697013.681 4    543126.577 3
  20937953.457     -345458.237 3   -269187.281 2
  23904798.251    -2487589.801 2  -1938373.790 1
  24291445.683    -1733173.902 2  -1350525.489 1
  24335966.659     4949502.409 2   3856754.060 1
 91  4  7 20 45 15.0000000  0  5 18 19 11 02 14
  20385433.857      713683.780 4    556116.257 2
  20938223.569     -344037.406 3   -268080.133 2
  23899540.191    -2515193.157 2  -1959882.841 1
  24283636.087    -1774191.699 2  -1382487.658 1
  24347730.815     5011328.561 2   3904930.525 1
 91  4  7 20 45 30.0000000  0  5 18 19 11 02 14
  20388638.938      730530.259 4    569243.363 3
  20938516.467     -342512.561 3   -266891.925 2
  23894319.007    -2542657.174 2  -1981283.298 1
  24275848.679    -1815108.977 2  -1414371.034 1
  24359509.961     5073205.553 2   3953146.597 1
 91  4  7 20 45 45.0000000  0  5 18 19 11 02 14
  20391878.497      747549.346 4    582504.981 3
  20938823.756     -340887.640 3   -265625.729 2
  23889110.715    -2569985.474 2  -2002577.867 1
  24268072.364    -1855929.582 2  -1446179.136 1
  24371292.405     5135129.071 2   4001398.889
 91  4  7 20 46  0.0000000  0  5 18 19 11 02 14
  20395150.731      764743.222 4    595902.781 2
  20939150.228     -339160.666 3   -264280.029 2
  23883935.696    -2597175.631 2  -2023764.837 1
  24260325.427    -1896651.220 2  -1477910.069 1
  24383087.439     5197100.618 2   4049688.620 1
 91  4  7 20 46 15.0000000  0  5 18 19 11 02 14
  20398455.345      782106.753 4    609432.789 3
  20939497.086     -337336.755 3   -262858.803 2
  23878789.757    -2624232.209 2  -2044847.710 1
  24252590.780    -1937278.683 2  -1509567.597 1
  24394884.872     5259114.920 2   4098011.699 1
 91  4  7 20 46 30.0000000  0  5 18 19 11 02 14
  20401791.133      799637.794 4    623093.319 2
  20939865.534     -335418.632 3   -261364.139 2
  23873663.908    -2651157.456 2  -2065828.248 1
  24244875.921    -1977814.328 2  -1541153.577 1
  24406698.194     5321169.024 1   4146365.333 1
 91  4  7 20 46 45.0000000  0  5 18 19 11 02 14
  20405160.499      817336.956 4    636884.861 2
  20940244.470     -333405.558 3   -259795.498 2
  23868573.130    -2677950.260 2  -2086705.622 1
  24237189.841    -2018257.325 2  -1572667.830 1
  24418519.609     5383263.607 2   4194750.823 1
 91  4  7 20 47  0.0000000  0  5 18 19 11 02 14
  20408560.146      835204.942 4    650807.949 2
  20940648.290     -331296.569 3   -258152.125 2
  23863499.144    -2704609.087 2  -2107478.618 1
  24229506.162    -2058606.397 2  -1604108.439 1
  24430336.228     5445399.071 2   4243167.900 1
 91  4  7 20 47 15.0000000  0  5 18 19 11 02 14
  20411991.274      853239.702 4    664860.986 3
  20941065.603     -329093.859 3   -256435.713 2
  23858448.841    -2731135.851 2  -2128148.633 1
  24221842.868    -2098863.661 2  -1635477.548 1
  24442167.838     5507572.726 2   4291615.047 1
 91  4  7 20 47 30.0000000  0  5 18 19 11 02 14
  20415455.674      871441.494 4    679044.183 3
  20941504.197     -326797.359 3   -254646.216 2
  23853427.916    -2757530.006 2  -2148715.411 1
  24214205.353    -2139028.768 2  -1666774.793 1
  24454001.847     5569784.687 2   4340092.147 1
 91  4  7 20 47 45.0000000  0  5 18 19 11 02 14
  20418950.656      889808.517 4    693356.132 2
  20941953.287     -324409.174 3   -252785.279 2
  23848429.777    -2783793.145 2  -2169180.026 1
  24206579.533    -2179103.421 2  -1698002.031
  24465847.548     5632032.319 2   4388597.015 1
 91  4  7 20 48  0.0000000  0  5 18 19 11 02 14
  20422477.114      908342.164 4    707797.924 3
  20942432.356     -321927.802 3   -250851.730 2
  23843449.624    -2809923.391 2  -2189541.066 1
  24198964.804    -2219085.968 2  -1729157.032 1
  24477706.738     5694316.992 2   4437130.723 1
 91  4  7 20 48 15.0000000  0  5 18 19 11 02 14
  20426036.251      927043.553 4    722370.422 2
  20942918.018     -319351.927 3   -248844.548 2
  23838508.146    -2835919.124 2  -2209797.313 1
  24191377.357    -2258975.044 2  -1760239.299 1
  24489566.224     5756639.540 2   4485693.989 1
 91  4  7 20 48 30.0000000  0  5 18 19 11 02 14
  20429625.364      945907.681 4    737069.719 2
  20943426.168     -316686.873 3   -246767.860 2
  23833590.648    -2861785.175 2  -2229952.547 1
  24183806.397    -2298775.866 2  -1791253.150 1
  24501430.213     5818994.428 2   4534282.384 1
 91  4  7 20 48 45.0000000  0  5 18 19 11 02 14
  20433247.458      964937.448 4    751898.087 2
  20943949.304     -313929.884 3   -244619.561 2
  23828695.339    -2887518.432 2  -2250004.244 1
  24176246.832    -2338485.262 2  -1822195.330 1
  24513295.100     5881383.962 2   4582897.421 1
 91  4  7 20 49  0.0000000  0  5 18 19 11 02 14
  20436898.030      984126.503 4    766850.585 2
  20944495.230     -311087.387 3   -242404.606 2
  23823808.719    -2913124.765 2  -2269957.206 1
  24168710.052    -2378109.450 2  -1853071.121 1
  24525185.469     5943801.324 2   4631534.135 1
 91  4  7 20 49 15.0000000  0  5 18 19 11 02 14
  20440580.083     1003479.496 4    781930.824 2
  20945050.744     -308154.677 3   -240119.365 2
  23818972.470    -2938599.060 2  -2289807.081 1
  24161181.662    -2417643.547 2  -1883876.737 1
  24537063.544     6006251.113 2   4680196.488 1
 91  4  7 20 49 30.0000000  0  5 18 19 11 02 14
  20444293.908     1022993.540 4    797136.554 2
  20945623.046     -305134.600 3   -237766.042 2
  23814148.510    -2963943.738 2  -2309556.019 1
  24153673.361    -2457090.232 2  -1914614.632 1
  24548953.612     6068730.141 2   4728881.630 1
 91  4  7 20 49 45.0000000  0  5 18 19 11 02 14
  20448041.617     1042666.553 4    812466.147 3
  20946216.336     -302029.470 3   -235346.450 2
  23809342.537    -2989160.690 2  -2329205.444 1
  24146175.251    -2496451.681 2  -1945285.699 1
  24560845.779     6131235.928 2   4777587.235 1
 91  4  7 20 50  0.0000000  0  5 18 19 11 02 14
  20451810.908     1062502.213 4    827922.484 3
  20946828.511     -298835.752 3   -232857.837 2
  23804574.038    -3014245.926 2  -2348752.232 1
  24138717.312    -2535724.044 2  -1975887.362 1
  24572746.941     6193771.542 2   4826316.485 1
 91  4  7 20 50 15.0000000  0  5 18 19 11 02 14
  20455617.372     1082493.996 4    843500.477 2
  20947449.682     -295559.910 3   -230305.218 2
  23799826.824    -3039205.625 2  -2368201.189 1
  24131259.076    -2574913.635 2  -2006424.949 1
  24584646.903     6256330.085 2   4875063.634 1
 91  4  7 20 50 30.0000000  0  5 18 19 11 02 14
  20459452.315     1102645.051 4    859202.576 2
  20948087.043     -292198.906 3   -227686.243 2
  23795099.695    -3064036.353 2  -2387549.685 1
  24123815.231    -2614017.112 2  -2036895.013 1
  24596563.356     6318914.468 2   4923830.550 1
 91  4  7 20 50 45.0000000  0  5 18 19 11 02 14
  20463316.042     1122953.909 4    875027.648 2
  20948740.889     -288753.949 3   -225001.854 2
  23790397.149    -3088738.935 2  -2406798.277 1
  24116387.271    -2653035.569 2  -2067298.797 1
  24608472.309     6381523.079 2   4972616.678 1
 91  4  7 20 51  0.0000000  0  5 18 19 11 02 14
  20467212.745     1143420.437 4    890975.572 2
  20949415.122     -285225.270 3   -222252.229 2
  23785724.287    -3113313.221 2  -2425947.019 1
  24108983.598    -2691969.025 2  -2097636.405 1
  24620394.154     6444155.452 2   5021421.313 1
 91  4  7 20 51 15.0000000  0  5 18 19 11 02 14
  20471136.426     1164039.888 4    907042.645 2
  20950099.249     -281617.733 3   -219441.144 2
  23781068.211    -3137763.542 2  -2444999.024 1
  24101585.622    -2730822.275 2  -2127911.460 1
  24632315.702     6506806.086 2   5070239.799 1
 91  4  7 20 51 30.0000000  0  5 18 19 11 02 14
  20475087.391     1184812.447 4    923229.032 3
  20950807.959     -277931.380 3   -216568.654 2
  23776441.211    -3162089.565 2  -2463954.227 1
  24094202.330    -2769595.128 2  -2158123.936 1
  24644242.346     6569474.557 2   5119072.521 1
 91  4  7 20 51 45.0000000  0  5 18 19 11 02 14
  20479066.835     1205734.619 4    939532.009 2
  20951518.166     -274169.618 3   -213637.411 2
  23771834.000    -3186294.351 2  -2482814.925 1
  24086844.223    -2808290.873 2  -2188276.231 1
  24656171.986     6632157.354 2   5167916.126 1
 91  4  7 20 52  0.0000000  0  5 18 19 11 02 14
  20483078.662     1226810.547 4    955954.799 2
  20952246.660     -270328.379 3   -210644.221 2
  23767248.074    -3210373.303 2  -2501577.611 1
  24079493.013    -2846905.140 2  -2218365.029 1
  24668096.230     6694858.356 2   5216773.827 1
 91  4  7 20 52 15.0000000  0  5 18 19 11 02 14
  20487117.763     1248034.813 4    972493.162 3
  20952990.148     -266413.054 3   -207593.315 2
  23762692.730    -3234331.507 2  -2520246.329 1
  24072158.892    -2885442.920 2  -2248394.288 1
  24680030.971     6757571.980 2   5265641.743 1
 91  4  7 20 52 30.0000000  0  5 18 19 11 02 14
  20491185.946     1269407.666 4    989147.322 2
  20953753.120     -262423.745 3   -204484.752 2
  23758153.872    -3258168.593 2  -2538820.909 1
  24064843.656    -2923904.276 2  -2278364.021 1
  24691971.104     6820297.699 2   5314518.764 1
 91  4  7 20 52 45.0000000  0  5 18 19 11 02 14
  20495280.814     1290928.191 4   1005916.526 2
  20954525.986     -258361.142 3   -201319.083 2
  23753638.999    -3281884.903 2  -2557301.075 1
  24057540.413    -2962289.774 2  -2308274.579 1
  24703907.942     6883034.555 2   5363404.410 1
 91  4  7 20 53  0.0000000  0  5 18 19 11 02 14
  20499406.857     1312596.933 4   1022801.249 2
  20955313.837     -254224.862 3   -198095.986 2
  23749150.506    -3305479.486 2  -2575686.342 1
  24050244.363    -3000598.602 2  -2338125.435 1
  24715850.475     6945782.589 2   5412298.801 1
 91  4  7 20 53 15.0000000  0  4 18 19 11 02
  20503556.283     1334419.368 4   1039805.727 2
  20956114.885     -250009.536 3   -194811.310 2
  23744685.994    -3328946.673 2  -2593972.292 1
  24042968.700    -3038825.434 2  -2367912.404 1
 91  4  7 20 53 30.0000000  0  4 18 19 11 02
  20507737.787     1356389.100 4   1056924.977 2
  20956929.120     -245721.483 3   -191469.962 2
  23740238.876    -3352292.442 2  -2612163.608 1
  24035717.018    -3076976.338 2  -2397640.188 1
 91  4  7 20 53 45.0000000  0  4 18 19 11 02
  20511947.473     1378510.677 4   1074162.542 2
  20957764.641     -241356.072 3   -188068.338 2
  23735826.528    -3375511.690 2  -2630256.459 1
  24028464.441    -3115046.465 2  -2427305.044 1
 91  4  7 20 54  0.0000000  0  4 18 19 11 02
  20516185.642     1400783.000 4   1091517.574 2
  20958603.159     -236914.569 3   -184607.416 2
  23731432.471    -3398605.211 2  -2648251.415 1
  24021242.141    -3153036.734 2  -2456907.658 1
 91  4  7 20 54 15.0000000  0  4 18 19 11 02
  20520452.587     1423203.481 4   1108988.054 2
  20959464.166     -232399.706 3   -181089.334 2
  23727065.393    -3421575.505 2  -2666150.097 1
  24014023.138    -3190949.959 2  -2486450.303 1
 91  4  7 20 54 30.0000000  0  4 18 19 11 02
  20524748.312     1445772.315 4   1126574.140 2
  20960341.659     -227811.350 3   -177513.990 2
  23722707.310    -3444421.963 2  -2683952.424 1
  24006836.214    -3228785.761 2  -2515932.990 1
 91  4  7 20 54 45.0000000  0  4 18 19 11 02
  20529071.319     1468489.482 4   1144275.805 2
  20961225.744     -223149.286 3   -173881.195 2
  23718385.502    -3467143.884 2  -2701657.628 1
  23999634.600    -3266543.607 2  -2545354.597 1
 91  4  7 20 55  0.0000000  0  4 18 19 11 02
  20533420.411     1491354.998 4   1162093.057 2
  20962126.620     -218413.618 3   -170191.047 2
  23714088.577    -3489741.127 2  -2719265.678 1
  23992459.367    -3304223.641 2  -2574715.455 1
 91  4  7 20 55 15.0000000  0  4 18 19 11 02
  20537800.376     1514368.773 4   1180025.845 2
  20963039.192     -213604.641 3   -166443.785 2
  23709810.539    -3512213.479 2  -2736776.642 1
  23985315.911    -3341825.757 2  -2604015.620 1
 91  4  7 20 55 30.0000000  0  4 18 19 11 02
  20542209.126     1537533.018 4   1198075.880 2
  20963975.440     -208720.270 3   -162637.780 2
  23705558.885    -3534558.459 2  -2754188.115 1
  23978174.257    -3379347.753 2  -2633253.395 1
 91  4  7 20 55 45.0000000  0  4 18 19 11 02
  20546643.955     1560843.970 4   1216240.227 2
  20964916.190     -203764.049 3   -158775.767 2
  23701327.312    -3556779.327 2  -2771502.942 1
  23971058.080    -3416792.843 2  -2662431.185 1
 91  4  7 20 56  0.0000000  0  4 18 19 11 02
  20551108.165     1584305.548 4   1234521.956 2
  20965871.629     -198731.791 3   -154854.526 2
  23697125.120    -3578871.436 2  -2788717.404 1
  23963936.511    -3454156.907 2  -2691545.912 1
 91  4  7 20 56 15.0000000  0  4 18 19 11 02
  20555602.652     1607919.524 4   1252922.434 3
  20966845.953     -193621.888 3   -150872.773 2
  23692947.813    -3600832.755 2  -2805829.953 1
  23956838.325    -3491438.016 2  -2720595.924 1
 91  4  7 20 56 30.0000000  0  4 18 19 11 02
  20560122.625     1631682.498 4   1271439.013 2
  20967835.869     -188438.109 3   -146833.458 2
  23688794.487    -3622666.688 2  -2822843.263 1
  23949757.830    -3528639.563 2  -2749583.911 1
 91  4  7 20 56 45.0000000  0  4 18 19 11 02
  20564673.175     1655593.873 4   1290071.229 2
  20968834.776     -183180.960 3   -142736.957 2
  23684665.146    -3644373.317 2  -2839757.399 1
  23942700.713    -3565761.898 2  -2778510.246 1
 91  4  7 20 57  0.0000000  0  4 18 19 11 02
  20569253.404     1679648.781 4   1308815.280 3
  20969849.877     -177855.212 3   -138587.009 2
  23680551.994    -3665957.003 2  -2856575.774 1
  23935656.789    -3602809.718 2  -2807378.484 1
 91  4  7 20 57 15.0000000  0  4 18 19 11 02
  20573859.114     1703852.302 4   1327675.139 2
  20970873.965     -172455.964 3   -134379.794 2
  23676473.019    -3687412.542 2  -2873294.299 1
  23928614.064    -3639777.910 2  -2836184.713
 91  4  7 20 57 30.0000000  0  4 18 19 11 02
  20578494.507     1728207.890 4   1346653.492 2
  20971913.348     -166979.913 3   -130112.739 2
  23672408.135    -3708736.266 2  -2889910.028 1
  23921592.327    -3676663.196 2  -2864926.368 1
 91  4  7 20 57 45.0000000  0  4 18 19 11 02
  20583158.675     1752716.525 4   1365751.101 3
  20972970.416     -161425.660 3   -125784.741 2
  23668380.720    -3729926.357 2  -2906421.637 1
  23914586.475    -3713463.788 2  -2893601.968 1
 91  4  7 20 58  0.0000000  0  4 18 19 11 02
  20587850.729     1777379.609 4   1384969.061 2
  20974045.171     -155792.164 3   -121394.994 2
  23664375.494    -3750981.249 2  -2922827.929 1
  23907602.213    -3750178.526 2  -2922210.658 1
 91  4  7 20 58 15.0000000  0  4 18 19 11 02
  20592573.360     1802196.920 4   1404307.199 2
  20975132.817     -150079.627 3   -116943.650 2
  23660389.153    -3771900.814 2  -2939128.722 1
  23900637.434    -3786807.518 2  -2950752.528 1
 91  4  7 20 58 30.0000000  0  4 18 19 11 02
  20597325.067     1827169.472 4   1423766.299 2
  20976230.357     -144286.899 3   -112429.822 2
  23656436.688    -3792683.542 2  -2955322.953 1
  23893684.648    -3823349.317 2  -2979226.457 1
 91  4  7 20 58 45.0000000  0  4 18 19 11 02
  20602108.259     1852297.740 4   1443346.728 3
  20977349.182     -138413.546 3   -107853.174 2
  23652510.607    -3813328.782 2  -2971410.035 1
  23886748.047    -3859803.266 2  -3007631.973 1
 91  4  7 20 59  0.0000000  0  4 18 19 11 02
  20606919.328     1877575.818 4   1463043.910 2
  20978479.699     -132465.431 3   -103218.282 2
  23648600.113    -3833841.995 2  -2987394.227 1
  23879822.544    -3896175.146 2  -3035973.535 1
 91  4  7 20 59 15.0000000  0  4 18 19 11 02
  20611754.979     1903004.142 4   1482858.156 2
  20979631.801     -126442.058 3    -98524.739 2
  23644725.297    -3854222.182 2  -3003274.698 1
  23872907.830    -3932464.294 2  -3064250.576 1
 91  4  7 20 59 30.0000000  0  4 18 19 11 02
  20616622.709     1928582.821 4   1502789.580 2
  20980792.298     -120343.644 3    -93772.725 2
  23640875.063    -3874469.036 2  -3019051.327 1
  23866027.593    -3968670.710 2  -3092463.167 1
 91  4  7 20 59 45.0000000  0  4 18 19 11 02
  20621521.317     1954308.056 4   1522835.189 2
  20981962.989     -114173.924 3    -88965.137 2
  23637047.014    -3894586.071 2  -3034726.798 1
  23859153.350    -4004798.073 2  -3120614.203 1
 91  4  7 21  0  0.0000000  0  4 18 19 11 02
  20626442.112     1980183.221 4   1542997.622 3
  20983152.265     -107929.194 3    -84099.120 2
  23633252.839    -3914569.293 2  -3050298.080 1
  23852296.501    -4040842.526 2  -3148700.614 1
 91  4  7 21  0 15.0000000  0  4 18 19 11 02
  20631394.384     2006206.976 4   1563275.848 2
  20984357.730     -101611.155 3    -79175.953 2
  23629467.062    -3934419.891 2  -3065765.911 1
  23845447.142    -4076805.324 2  -3176723.426 1
 91  4  7 21  0 30.0000000  0  4 18 19 11 02
  20636375.736     2032376.043 4   1583667.291 2
  20985570.992      -95223.013 3    -74198.168 2
  23625712.761    -3954140.766 2  -3081132.665 1
  23838618.466    -4112689.707 2  -3204685.075 1
 91  4  7 21  0 45.0000000  0  4 18 19 11 02
  20641383.765     2058690.721 4   1604172.212 3
  20986796.241      -88764.456 3    -69165.519 2
  23621985.142    -3973731.280 2  -3096397.835 1
  23831810.181    -4148495.118 2  -3232585.227 1
 91  4  7 21  1  0.0000000  0  5 18 19 11 16 02
  20646417.883     2085155.298 4   1624793.945 2
  20988040.983      -82230.834 3    -64074.391 2
  23618285.102    -3993186.439 2  -3111557.590 1
  24841326.208           0.766 2         0.099 1
  23825010.590    -4184216.821 2  -3260420.139 1
 91  4  7 21  1 15.0000000  0  5 18 19 11 16 02
  20651486.473     2111766.534 4   1645529.945 2
  20989299.510      -75625.800 3    -58927.609 2
  23614609.345    -4012509.468 2  -3126614.312 1
  24836885.381      -23294.526 2    -18152.082 1
  23818224.785    -4219858.256 2  -3288192.528 1
 91  4  7 21  1 30.0000000  0  5 18 19 11 16 02
  20656575.153     2138519.093 4   1666376.064 2
  20990567.033      -68954.852 3    -53729.462 2
  23610956.975    -4031705.486 2  -3141572.164 1
  24832487.726      -46459.285 2    -36202.535 1
  23811456.373    -4255424.650 2  -3315906.420 1
 91  4  7 21  1 45.0000000  0  5 18 19 11 16 02
  20661690.810     2165408.020 4   1687328.451 2
  20991849.545      -62222.614 3    -48483.553 2
  23607320.192    -4050778.634 2  -3156434.238 1
  24828096.967      -69498.137 2    -54154.800 1
  23804701.150    -4290920.312 2  -3343565.192 1
 91  4  7 21  2  0.0000000  0  5 18 19 11 16 02
  20666832.849     2192433.423 4   1708387.178 2
  20993142.550      -55428.936 3    -43189.773 2
  23603716.086    -4069728.492 2  -3171200.212 1
  24823736.184      -92410.928 2    -72008.849 1
  23797961.814    -4326345.116 2  -3371168.776 1
 91  4  7 21  2 15.0000000  0  5 18 19 11 16 02
  20671999.173     2219595.082 4   1729552.082 2
  20994446.347      -48574.264 3    -37848.453 2
  23600136.265    -4088555.077 2  -3185870.151 1
  24819405.681     -115197.470 2    -89764.614 1
  23791233.573    -4361699.314 2  -3398717.363 1
 91  4  7 21  2 30.0000000  0  5 18 19 11 16 02
  20677195.477     2246892.565 4   1750822.817 2
  20995760.937      -41658.757 3    -32459.744 2
  23596572.032    -4107258.299 2  -3200443.892 1
  24815097.366     -137857.715 2   -107422.025 1
  23784518.821    -4396983.060 2  -3426210.984 1
 91  4  7 21  2 45.0000000  0  5 18 19 11 16 02
  20682417.259     2274322.637 4   1772196.869 2
  20997086.918      -34685.765 3    -27026.237 2
  23593037.778    -4125841.105 2  -3214923.898 1
  24810789.946     -160394.995 2   -124983.574 1
  23777817.558    -4432199.472 2  -3453652.204 1
 91  4  7 21  3  0.0000000  0  5 18 19 11 16 02
  20687659.731     2301882.447 4   1793672.012 2
  20998427.291      -27658.029 3    -21550.084 2
  23589521.516    -4144305.717 2  -3229311.766 1
  24806532.594     -182811.622 2   -142451.020 1
  23771126.193    -4467351.009 2  -3481042.869 1
 91  4  7 21  3 15.0000000  0  5 18 19 11 16 02
  20692929.483     2329567.782 4   1815244.977 2
  20999773.358      -20579.986 3    -16034.720 2
  23586031.629    -4162656.369 2  -3243610.882 1
  24802299.224     -205111.502 2   -159827.578 1
  23764447.415    -4502441.910 2  -3508386.276 1
 91  4  7 21  3 30.0000000  0  5 18 19 11 16 02
  20698222.318     2357385.509 4   1836921.098 2
  21001129.021      -13444.769 3    -10474.796 2
  23582569.026    -4180885.827 2  -3257815.547 1
  24798061.958     -227287.752 2   -177107.707
  23757788.124    -4537465.212 2  -3535677.022 1
 91  4  7 21  3 45.0000000  0  5 18 19 11 16 02
  20703540.036     2385328.571 4   1858694.891 2
  21002497.873       -6259.027 3     -4875.518 2
  23579115.118    -4199000.544 2  -3271930.779 1
  24793872.060     -249347.025 2   -194296.764 1
  23751133.331    -4572427.630 2  -3562920.267 1
 91  4  7 21  4  0.0000000  0  5 18 19 11 16 02
  20708880.540     2413398.391 4   1880567.451 2
  21003878.417         978.347 3       764.003 2
  23575688.191    -4216998.967 2  -3285955.406 1
  24789699.848     -271287.789 2   -211393.410 1
  23744491.132    -4607327.649 2  -3590114.925 1
 91  4  7 21  4 15.0000000  0  5 18 19 11 16 02
  20714248.323     2441594.532 4   1902538.440 2
  21005264.060        8266.882 3      6443.397 2
  23572284.649    -4234881.183 2  -3299889.535 1
  24785547.722     -293110.468 2   -228398.238 1
  23737860.922    -4642165.705 2  -3617261.313 1
 91  4  7 21  4 30.0000000  0  5 18 19 11 16 02
  20719634.996     2469915.499 4   1924606.693 2
  21006658.991       15605.242 3     12161.602 2
  23568904.188    -4252648.187 2  -3313733.841 1
  24781425.278     -314816.169 2   -245311.657 1
  23731243.603    -4676942.936 2  -3644360.340 1
 91  4  7 21  4 45.0000000  0  5 18 19 11 16 02
  20725048.948     2498360.707 4   1946771.762 2
  21008066.220       22993.043 3     17918.336 2
  23565546.810    -4270300.158 2  -3327488.528 1
  24777309.727     -336404.932 2   -262134.004 1
  23724634.377    -4711659.784 2  -3671412.261 1
 91  4  7 21  5  0.0000000  0  5 18 19 11 16 02
  20730488.983     2526944.598 4   1969044.888 2
  21009485.438       30444.520 3     23724.691 2
  23562215.816    -4287822.320 2  -3341141.987 1
  24773228.352     -357862.267 2   -278853.995 1
  23718045.838    -4746301.592 2  -3698405.735 1
 91  4  7 21  5 15.0000000  0  5 18 19 11 16 02
  20735953.898     2555662.709 4   1991422.605 2
  21010913.646       37955.296 3     29577.255 2
  23558901.610    -4305218.551 2  -3354697.410 1
  24769152.374     -379192.375 2   -295474.850 1
  23711467.193    -4780872.363 2  -3725343.850 1
 91  4  7 21  5 30.0000000  0  5 18 19 11 16 02
  20741443.096     2584514.364 4   2013904.392 2
  21012356.548       45524.990 3     35475.725 2
  23555614.988    -4322489.007 2  -3368154.884 1
  24765136.355     -400395.627 2   -311996.829 1
  23704907.433    -4815372.735 2  -3752227.124 1
 91  4  7 21  5 45.0000000  0  5 18 19 11 16 02
  20746960.479     2613503.329 4   2036493.162 2
  21013803.948       53157.194 3     41422.899 2
  23552359.842    -4339629.932 2  -3381511.343 1
  24761117.936     -421467.766 2   -328416.690 1
  23698341.078    -4849798.856 2  -3779052.500 1
 91  4  7 21  6  0.0000000  0  5 18 19 11 16 02
  20752505.439     2642632.906 4   2059191.508 2
  21015267.833       60855.242 3     47421.384 2
  23549117.587    -4356637.446 2  -3394763.830 1
  24757137.589     -442405.514 2   -344731.826 1
  23691812.201    -4884147.201 2  -3805817.279 1
 91  4  7 21  6 15.0000000  0  5 18 19 11 16 02
  20758074.082     2671900.377 4   2081997.297 2
  21016746.709       68616.124 3     53468.844 2
  23545910.407    -4373514.341 2  -3407914.585 1
  24753180.630     -463211.362 2   -360944.146 1
  23685292.612    -4918420.512 2  -3832523.625 1
 91  4  7 21  6 30.0000000  0  5 18 19 11 16 02
  20763669.111     2701309.217 4   2104913.249 2
  21018236.076       76443.780 3     59568.314 2
  23542722.113    -4390256.339 2  -3420960.270 1
  24749245.554     -483881.228 2   -377050.458 1
  23678785.618    -4952614.611 2  -3859168.248 1
 91  4  7 21  6 45.0000000  0  5 18 19 11 16 02
  20769293.517     2730860.318 4   2127940.045 2
  21019740.137       84338.907 3     65720.371 2
  23539562.000    -4406862.238 2  -3433899.798 1
  24745324.568     -504414.188 2   -393050.197 1
  23672292.715    -4986728.876 2  -3885750.627 1
 91  4  7 21  7  0.0000000  0  5 18 19 11 16 02
  20774942.806     2760554.873 4   2151078.633 2
  21021255.588       92302.817 3     71926.027 2
  23536425.572    -4423330.342 2  -3446731.973 1
  24741462.940     -524808.692 2   -408941.964 1
  23665815.696    -5020761.712 2  -3912269.585 1
 91  4  7 21  7 15.0000000  0  5 18 19 11 16 02
  20780621.177     2790393.172 4   2174329.226 2
  21022783.031      100335.709 3     78185.430 2
  23533319.722    -4439660.184 2  -3459456.485 1
  24737598.018     -545064.447 2   -424725.701 1
  23659350.970    -5054712.761 2  -3938724.802 1
 91  4  7 21  7 30.0000000  0  5 18 19 11 16 02
  20786326.827     2820374.142 4   2197690.987 2
  21024323.362      108436.695 3     84497.882 2
  23530236.059    -4455852.456 2  -3472073.791 1
  24733783.457     -565182.251 2   -440401.890 1
  23652910.832    -5088582.921 2  -3965116.934 1
 91  4  7 21  7 45.0000000  0  5 18 19 11 16 02
  20792058.556     2850493.356 4   2221160.474 2
  21025875.389      116601.101 3     90859.770 2
  23527187.165    -4471911.302 2  -3484587.067 1
  24729969.197     -585166.257 2   -455973.860 1
  23646478.782    -5122376.574 2  -3991449.495 1
 91  4  7 21  8  0.0000000  0  5 18 19 11 16 02
  20797816.670     2880754.706 4   2244740.706 2
  21027448.399      124833.238 3     97274.436 2
  23524148.773    -4487832.306 2  -3496992.926 1
  24726195.413     -605012.090 2   -471438.078 1
  23640061.726    -5156089.464 2  -4017719.113 1
 91  4  7 21  8 15.0000000  0  5 18 19 11 16 02
  20803600.566     2911155.403 4   2268429.528 2
  21029022.012      133130.426 3    103739.785 2
  23521147.549    -4503617.778 2  -3509293.256 1
  24722441.112     -624722.189 2   -486796.585 1
  23633663.556    -5189724.030 2  -4043927.671 1
 91  4  7 21  8 30.0000000  0  5 18 19 11 16 02
  20809413.543     2941700.150 4   2292230.595 2
  21030613.908      141497.368 3    110259.481 2
  23518172.409    -4519262.709 2  -3521484.030 1
  24718720.084     -644291.852 2   -502045.601 1
  23627283.970    -5223275.441 2  -4070071.536 1
 91  4  7 21  8 45.0000000  0  5 18 19 11 16 02
  20815252.299     2972385.065 4   2316140.879 2
  21032221.095      149930.041 3    116830.398 2
  23515220.351    -4534770.890 2  -3533568.254 1
  24715009.256     -663724.579 2   -517187.947 1
  23620907.687    -5256747.652 2  -4096153.545 1
 91  4  7 21  9  0.0000000  0  5 18 19 11 16 02
  20821119.538     3003207.621 4   2340158.426 2
  21033839.974      158425.921 3    123450.569 2
  23512293.780    -4550144.351 2  -3545547.503 1
  24711357.484     -683022.860 2   -532225.592 1
  23614552.684    -5290142.793 2  -4122175.593 1
 91  4  7 21  9 15.0000000  0  5 18 19 11 16 02
  20827010.160     3034166.280 4   2364282.020 2
  21035465.152      166983.508 3    130118.823 2
  23509395.983    -4565384.150 2  -3557422.594 1
  24707696.119     -702187.891 2   -547159.351 1
  23608212.976    -5323462.262 2  -4148138.671 1
 91  4  7 21  9 30.0000000  0  5 18 19 11 16 02
  20832929.863     3065261.123 4   2388511.731 2
  21037104.115      175603.212 3    136835.479 2
  23506526.073    -4580489.651 2  -3569193.043 1
  24704070.426     -721219.371 2   -561989.099 1
  23601891.848    -5356705.572 2  -4174042.340 1
 91  4  7 21  9 45.0000000  0  5 18 19 11 16 02
  20838869.952     3096493.723 4   2412848.794 2
  21038760.172      184286.576 3    143601.749 2
  23503669.948    -4595458.905 2  -3580857.301 1
  24700486.107     -740115.161 2   -576712.986 1
  23595582.417    -5389871.032 2  -4199885.416 1
 91  4  7 21 10  0.0000000  0  5 18 19 11 16 02
  20844839.117     3127861.655 4   2437291.300 2
  21040419.822      193031.148 3    150415.700 2
  23500849.499    -4610294.008 2  -3592417.088 1
  24696910.183     -758877.546 2   -591332.982 1
  23589278.081    -5422960.936 2  -4225669.614 1
 91  4  7 21 10 15.0000000  0  5 18 19 11 16 02
  20850835.269     3159362.882 4   2461837.674 2
  21042097.159      201834.804 3    157275.705 2
  23498055.733    -4624996.867 2  -3603873.808 1
  24693368.137     -777508.496 2   -605850.744 1
  23582993.232    -5455977.294 2  -4251396.459 1
 91  4  7 21 10 30.0000000  0  5 18 19 11 16 02
  20856858.696     3190996.197 4   2486486.977 2
  21043786.192      210696.434 3    164180.865 2
  23495279.957    -4639568.252 2  -3615228.021 1
  24689844.075     -796008.669 2   -620266.313 1
  23576728.172    -5488920.949 2  -4277066.656 1
 91  4  7 21 10 45.0000000  0  5 18 19 11 16 02
  20862900.114     3222762.018 4   2511239.525 2
  21045483.016      219616.409 3    171131.497 2
  23492529.659    -4654007.443 2  -3626479.287 1
  24686344.900     -814377.638 2   -634579.829 1
  23570468.805    -5521791.537 2  -4302680.018 1
 91  4  7 21 11  0.0000000  0  5 18 19 11 16 02
  20868968.816     3254659.668 4   2536094.807 2
  21047187.933      228594.491 3    178127.411 2
  23489806.644    -4668314.360 2  -3637627.471 1
  24682893.387     -832615.602 2   -648791.257 1
  23564228.926    -5554589.041 2  -4328236.347 1
 91  4  7 21 11 15.0000000  0  5 18 19 11 16 02
  20875062.994     3286692.635 4   2561055.523 2
  21048911.142      237633.965 3    185171.167 2
  23487112.112    -4682485.327 2  -3648669.714 1
  24679436.782     -850719.238 2   -662897.998 1
  23558001.637    -5587309.890 2  -4353732.958 1
 91  4  7 21 11 30.0000000  0  5 18 19 11 16 02
  20881185.656     3318861.094 4   2586121.812 2
  21050645.742      246734.836 3    192262.755 2
  23484439.760    -4696520.132 2  -3659605.804 1
  24676031.141     -868688.248 2   -676899.690 1
  23551789.036    -5619954.179 2  -4379169.904 1
 91  4  7 21 11 45.0000000  0  5 18 19 11 16 02
  20887332.600     3351164.490 4   2611293.249 2
  21052386.034      255896.908 3    199402.041 2
  23481796.789    -4710418.748 2  -3670435.892 1
  24672618.001     -886522.503 2   -690796.551 1
  23545595.924    -5652522.053 2  -4404547.318 1
 91  4  7 21 12  0.0000000  0  5 18 19 11 16 02
  20893506.226     3383599.479 4   2636567.224 2
  21054144.017      265117.030 3    206586.569 2
  23479174.505    -4724184.018 2  -3681162.032 1
  24669251.335     -904224.829 2   -704590.592 1
  23539410.306    -5685016.586 2  -4429867.606 1
 91  4  7 21 12 15.0000000  0  5 18 19 11 16 02
  20899702.039     3416164.530 4   2661942.549 2
  21055905.002      274393.645 3    213815.095 2
  23476575.906    -4737817.196 2  -3691785.209 1
  24665912.842     -921796.680 2   -718282.936 1
  23533244.773    -5717439.165 2  -4455131.807 1
 91  4  7 21 12 30.0000000  0  5 18 19 11 16 02
  20905924.830     3448860.740 4   2687420.075 2
  21057679.471      283728.072 3    221088.677 2
  23474012.679    -4751316.628 2  -3702304.165 1
  24662596.240     -939236.461 2   -731872.311 1
  23527082.242    -5749788.231 2  -4480338.725 1
 91  4  7 21 12 45.0000000  0  5 18 19 11 16 02
  20912174.002     3481691.131 4   2713002.165 2
  21059465.636      293123.122 3    228409.503 2
  23471465.640    -4764679.086 2  -3712716.459 1
  24659300.322     -956541.077 2   -745356.448 1
  23520940.092    -5782060.888 2  -4505486.094 1
 91  4  7 21 13  0.0000000  0  5 18 19 11 16 02
  20918444.764     3514654.530 4   2738687.887 2
  21061270.987      302577.785 3    235776.779 2
  23468954.580    -4777905.186 2  -3723022.397 1
  24656018.795     -973711.516 2   -758735.921 1
  23514817.430    -5814257.824 2  -4530574.500 1
 91  4  7 21 13 15.0000000  0  5 18 19 11 16 02
  20924742.504     3547750.354 4   2764476.807 2
  21063080.531      312091.553 3    243190.099 2
  23466459.409    -4790995.280 3  -3733222.400 1
  24652787.329     -990748.145 2   -772011.231
  23508703.463    -5846379.610 2  -4555604.292 1
 91  4  7 21 13 30.0000000  0  5 18 19 11 16 02
  20931067.222     3580977.189 4   2790367.808 2
  21064898.774      321663.047 3    250648.409 2
  23463989.116    -4803950.430 2  -3743317.275 1
  24649584.049    -1007652.142 2   -785183.102 1
  23502605.685    -5878427.559 2  -4580576.578 1
 91  4  7 21 13 45.0000000  0  5 18 19 11 16 02
  20937410.533     3614334.763 4   2816360.684 2
  21066733.503      331292.270 3    258151.723 2
  23461556.303    -4816770.433 2  -3753306.835 1
  24646379.565    -1024423.344 2   -798251.528 1
  23496518.700    -5910401.346 2  -4605491.097 1
 91  4  7 21 14  0.0000000  0  5 18 19 11 16 02
  20943784.718     3647818.109 4   2842451.560 2
  21068577.228      340974.086 3    265696.003 2
  23459143.274    -4829460.189 3  -3763194.891 1
  24643193.374    -1041066.834 2   -811220.471 1
  23490447.603    -5942306.054 2  -4630351.805 1
 91  4  7 21 14 15.0000000  0  5 18 19 11 16 02
  20950181.693     3681428.805 4   2868641.684 2
  21070428.447      350710.155 3    273282.547 2
  23456747.931    -4842017.534 2  -3772979.760 1
  24640073.733    -1057581.128 2   -824088.746 1
  23484389.097    -5974139.868 2  -4655157.237 1
 91  4  7 21 14 30.0000000  0  5 18 19 11 16 02
  20956603.547     3715165.107 4   2894929.670 2
  21072287.759      360499.022 3    280910.243 2
  23454393.063    -4854443.711 2  -3782662.456 1
  24636957.089    -1073966.860 2   -836856.815 1
  23478344.979    -6005904.178 2  -4679908.537 1
 91  4  7 21 14 45.0000000  0  5 18 19 11 16 02
  20963044.288     3749034.134 4   2921321.085 2
  21074162.663      370347.496 3    288584.386 2
  23452049.586    -4866731.553 2  -3792237.352 1
  24633854.837    -1090216.990 2   -849519.256 1
  23472320.051    -6037591.987 2  -4704600.207 1
 91  4  7 21 15  0.0000000  0  5 18 19 11 16 02
  20969514.706     3783034.189 4   2947814.593 2
  21076050.153      380254.148 3    296303.860 2
  23449736.385    -4878882.133 2  -3801705.268 1
  24630796.054    -1106333.049 2   -862077.202 1
  23466305.314    -6069204.572 2  -4729233.251 1
 91  4  7 21 15 15.0000000  0  5 18 19 11 16 02
  20976012.709     3817161.342 4   2974407.141 2
  21077944.243      390215.326 3    304065.821 2
  23447451.366    -4890899.008 2  -3811068.992 1
  24627751.663    -1122318.303 2   -874533.208 1
  23460301.070    -6100745.607 2  -4753810.574 1
 91  4  7 21 15 30.0000000  0  5 18 19 11 16 02
  20982528.699     3851414.743 4   3001098.053 2
  21079850.923      400230.333 3    311869.728 2
  23445189.731    -4902782.449 3  -3820328.747 1
  24624735.149    -1138173.289 2   -886887.720 1
  23454311.217    -6132215.632 2  -4778332.504 1
 91  4  7 21 15 45.0010000  0  5 18 19 11 16 02
  20989071.967     3885797.081 4   3027889.444 2
  21081768.095      410299.956 3    319716.196 2
  23442949.383    -4914532.775 3  -3829484.760 1
  24621736.026    -1153898.766 2   -899141.295 1
  23448337.256    -6163616.476 2  -4802800.613 1
 91  4  7 21 16  0.0010000  0  5 18 19 11 16 02
  20995637.424     3920300.361 4   3054775.082 2
  21083691.266      420419.800 3    327601.781 2
  23440742.611    -4926151.221 3  -3838538.049 1
  24618778.572    -1169495.852 2   -911294.838 1
  23442372.283    -6194946.771 2  -4827213.693 1
 91  4  7 21 16 15.0010000  0  5 18 19 11 16 02
  21002225.064     3954927.155 4   3081756.958 2
  21085629.121      430590.963 3    335527.363 2
  23438558.625    -4937637.913 2  -3847488.676 1
  24615828.316    -1184964.565 2   -923348.405 1
  23436428.896    -6226208.137 2  -4851573.043 1
 91  4  7 21 16 30.0010000  0  5 18 19 11 16 02
  21008839.682     3989675.765 4   3108833.764 2
  21087576.273      440811.436 3    343491.370 2
  23436395.919    -4948994.620 2  -3856337.976 1
  24612917.332    -1200306.919 2   -935303.421 1
  23430490.308    -6257402.441 2  -4875880.219 1
 91  4  7 21 16 45.0010000  0  6 18 19 11 16 02 06
  21015474.390     4024544.037 4   3136003.808 2
  21089526.723      451079.566 3    351492.520 2
  23434259.302    -4960222.811 3  -3865087.101 1
  24610017.738    -1215524.537 2   -947161.246 1
  23424561.312    -6288531.415 2  -4900136.419 1
  25104108.687           0.052 2         0.310 1
 91  4  7 21 17  0.0010000  0  6 18 19 11 16 02 06
  21022132.181     4059531.765 4   3163266.922 2
  21091488.865      461395.111 3    359530.598 2
  23432141.268    -4971322.342 2  -3873736.088 1
  24607145.127    -1230617.411 2   -958921.883 1
  23418652.704    -6319595.133 2  -4924341.778 1
  25099952.364      -21748.807 2    -16946.712 1
 91  4  7 21 17 15.0010000  0  6 18 19 11 16 02 06
  21028812.456     4094636.747 4   3190621.420 2
  21093458.803      471755.706 3    367603.794 2
  23430054.113    -4982295.180 2  -3882286.257 1
  24604299.197    -1245587.551 2   -970586.938 1
  23412753.989    -6350595.784 2  -4948497.997 1
  25095826.919      -43480.772 2    -33880.519 1
 91  4  7 21 17 30.0010000  0  6 18 19 11 16 02 06
  21035515.215     4129860.563 4   3218068.499 2
  21095442.229      482163.279 3    375713.592 2
  23428000.532    -4993139.224 3  -3890736.060 1
  24601470.657    -1260433.004 2   -982154.762 1
  23406859.768    -6381531.217 2  -4972603.369 1
  25091697.879      -65194.133 2    -50799.828 1
 91  4  7 21 17 45.0010000  0  6 18 19 11 16 02 06
  21042238.963     4165203.431 4   3245608.354 2
  21097432.553      492618.275 3    383860.350 2
  23425954.451    -5003853.839 2  -3899085.063 1
  24598669.997    -1275153.193 2   -993625.020 1
  23400989.231    -6412400.970 2  -4996657.626 1
  25087571.234      -86888.494 2    -67704.676 1
 91  4  7 21 18  0.0010000  0  6 18 19 11 16 02 06
  21048986.692     4200659.070 4   3273236.080 2
  21099431.567      503114.275 3    392039.046 2
  23423939.845    -5014444.900 2  -3907337.773 1
  24595894.518    -1289754.355 2  -1005002.540 1
  23395128.890    -6443211.150 2  -5020665.443 1
  25083444.593     -108570.260 2    -84599.681 1
 91  4  7 21 18 15.0010000  0  6 18 19 11 16 02 06
  21055756.905     4236228.217 4   3300952.256 2
  21101434.180      513652.153 3    400250.379 2
  23421948.622    -5024911.322 3  -3915493.364 1
  24593132.227    -1304235.353 2  -1016286.387 1
  23389275.140    -6473960.825 2  -5044626.100 1
  25079314.353     -130238.655 2   -101484.105 1
 91  4  7 21 18 30.0010000  0  6 18 19 11 16 02 06
  21062547.801     4271912.417 4   3328758.086 2
  21103447.888      524233.578 3    408495.647 2
  23419984.081    -5035251.399 3  -3923550.447 1
  24590391.527    -1318594.444 2  -1027475.264 1
  23383437.283    -6504648.211 2  -5068538.230 1
  25075207.196     -151892.203 2   -118357.194 1
 91  4  7 21 18 45.0010000  0  6 18 19 11 16 02 06
  21069357.888     4307712.725 4   3356654.383 2
  21105471.188      534859.586 3    416775.655 2
  23418036.929    -5045463.811 3  -3931508.125 1
  24587686.498    -1332830.318 2  -1038568.048 1
  23377615.315    -6535272.410 2  -5092401.103 1
  25071083.849     -173530.008 2   -135217.658 1
 91  4  7 21 19  0.0010000  0  6 18 19 11 16 02 06
  21076196.454     4343628.014 4   3384640.275 2
  21107497.782      545529.141 3    425089.593 2
  23416114.360    -5055549.260 3  -3939366.843 1
  24585010.551    -1346944.199 2  -1049565.919 1
  23371795.741    -6565834.413 2  -5116215.497 1
  25066965.301     -195153.180 2   -152066.765 1
 91  4  7 21 19 15.0010000  0  6 18 19 11 16 02 06
  21083049.111     4379657.111 4   3412714.853 2
  21109538.768      556241.514 3    433436.892 2
  23414225.069    -5065508.063 3  -3947126.824 1
  24582346.296    -1360936.716 2  -1060469.072 1
  23365986.965    -6596334.626 2  -5139981.824 1
  25062856.944     -216762.373 2   -168904.944 1
 91  4  7 21 19 30.0010000  0  6 18 19 11 16 02 06
  21089926.050     4415798.076 4   3440876.598 2
  21111585.452      566994.759 3    441816.048 2
  23412351.967    -5075341.976 3  -3954789.544 1
  24579702.125    -1374809.215 2  -1071278.807 1
  23360191.678    -6626774.988 2  -5163701.454 1
  25058742.593     -238359.740 2   -185734.026 1
 91  4  7 21 19 45.0010000  0  5 18 19 11 16 02
  21096825.770     4452055.269 4   3469128.908 2
  21113639.033      577793.379 3    450230.566 2
  23410503.744    -5085046.423 3  -3962351.415 1
  24577086.739    -1388557.240 2  -1081991.523 1
  23354424.267    -6657150.914 2  -5187370.873 1
 91  4  7 21 20  0.0010000  0  5 18 19 11 16 02
  21103750.077     4488423.690 4   3497467.893 2
  21115700.104      588632.257 3    458676.443 2
  23408678.609    -5094626.072 3  -3969815.972 1
  24574495.033    -1402185.588 2  -1092610.948 1
  23348647.268    -6687467.293 2  -5210993.919 1
 91  4  7 21 20 15.0010000  0  5 18 19 11 16 02
  21110691.172     4524906.944 4   3525896.354 2
  21117772.571      599515.393 3    467156.808 2
  23406887.649    -5104076.606 3  -3977179.935 1
  24571922.212    -1415690.346 2  -1103134.129 1
  23342890.655    -6717719.904 2  -5234567.247 1
 91  4  7 21 20 30.0010000  0  5 18 19 11 16 02
  21117653.255     4561504.078 4   3554413.558 2
  21119854.630      610441.719 3    475670.833 2
  23405110.480    -5113398.910 3  -3984444.019 1
  24569377.573    -1429072.648 2  -1113561.789 1
  23337146.628    -6747909.798 3  -5258091.767 1
 91  4  7 21 20 45.0010000  0  5 18 19 11 16 02
  21124641.116     4598212.803 4   3583017.705 2
  21121937.288      621409.072 3    484216.825 2
  23403357.893    -5122594.864 3  -3991609.627 1
  24566860.218    -1442334.081 2  -1123895.381 1
  23331407.701    -6778039.039 2  -5281568.960 1
 91  4  7 21 21  0.0010000  0  5 18 19 11 16 02
  21131647.265     4635038.846 4   3611713.278 2
  21124034.036      632423.199 3    492799.265 2
  23401632.289    -5131658.467 2  -3998672.086 1
  24564361.146    -1455468.736 2  -1134130.132 1
  23325687.061    -6808101.853 2  -5304994.429 1
 91  4  7 21 21 15.0010000  0  5 18 19 11 16 02
  21138678.298     4671983.468 4   3640501.251 2
  21126142.777      643486.026 3    501419.655 2
  23399934.562    -5140587.696 3  -4005629.836 1
  24561875.868    -1468475.007 2  -1144264.868 1
  23319984.112    -6838096.303 2  -5328366.586 1
 91  4  7 21 21 30.0010000  0  5 18 19 11 16 02
  21145731.515     4709044.161 4   3669379.653 2
  21128257.512      654594.873 3    510075.905 2
  23398257.823    -5149384.957 3  -4012484.759 1
  24559435.857    -1481355.256 2  -1154301.377 1
  23314285.355    -6868024.829 2  -5351687.420 1
 91  4  7 21 21 45.0010000  0  5 18 19 11 16 02
  21152807.216     4746221.990 4   3698349.345 2
  21130378.242      665750.836 3    518768.870 2
  23396608.664    -5158048.959 3  -4019235.879 1
  24557004.540    -1494108.303 2  -1164238.796 1
  23308601.592    -6897886.365 2  -5374956.039 1
 91  4  7 21 22  0.0010000  0  5 18 19 11 16 02
  21159904.804     4783518.170 4   3727411.254 2
  21132512.765      676954.920 3    527499.324 2
  23394986.487    -5166578.146 3  -4025881.884 1
  24554591.511    -1506732.722 2  -1174075.953 1
  23302937.313    -6927679.653 2  -5398171.436 1
 91  4  7 21 22 15.0010000  0  5 18 19 11 16 02
  21167020.078     4820930.956 4   3756564.034 2
  21134652.384      688205.778 3    536266.230 2
  23393393.391    -5174973.786 3  -4032423.888 1
  24552220.453    -1519229.590 2  -1183813.737 1
  23297276.929    -6957406.089 2  -5421334.786 1
 91  4  7 21 22 30.0010000  0  5 18 19 11 16 02
  21174165.632     4858465.969 4   3785812.041 2
  21136801.898      699509.222 3    545074.115 2
  23391814.086    -5183229.778 3  -4038857.053 1
  24549865.280    -1531593.288 2  -1193447.793 1
  23291634.837    -6987059.553 2  -5444441.262 1
 91  4  7 21 22 45.0010000  0  5 18 19 11 16 02
  21181331.870     4896120.324 4   3815153.055 2
  21138963.099      710862.368 3    553920.735 2
  23390277.049    -5191348.711 3  -4045183.422 1
  24547541.291    -1543826.487 2  -1202980.090 1
  23286005.633    -7016642.863 2  -5467493.101 1
 91  4  7 21 23  0.0010000  0  5 18 19 11 16 02
  21188516.997     4933895.387 4   3844588.123 2
  21141134.796      722267.041 3    562807.500 2
  23388755.302    -5199328.687 3  -4051401.509 1
  24545237.086    -1555927.428 2  -1212409.351 1
  23280391.121    -7046154.220 3  -5490488.842 1
 91  4  7 21 23 15.0010000  0  5 18 19 11 16 02
  21195727.601     4971791.433 4   3874117.455 2
  21143315.488      733723.477 3    571734.593 2
  23387265.333    -5207169.180 3  -4057510.917 1
  24542964.657    -1567895.671 2  -1221735.279
  23274784.401    -7075593.216 2  -5513428.205 1
 91  4  7 21 23 30.0010000  0  5 18 19 11 16 02
  21202963.993     5009812.580 4   3903744.270 2
  21145502.472      745235.632 4    580705.115 2
  23385798.149    -5214866.033 3  -4063508.406 1
  24540712.017    -1579726.971 2  -1230954.389 1
  23269202.268    -7104955.883 3  -5536308.087 1
 91  4  7 21 23 45.0010000  0  5 18 19 11 16 02
  21210222.267     5047953.678 4   3933464.565 2
  21147701.749      756798.610 3    589715.237 2
  23384364.243    -5222423.883 3  -4069397.551 1
  24538472.269    -1591426.293 2  -1240070.696 1
  23263623.429    -7134246.915 2  -5559132.150 1
 91  4  7 21 24  0.0010000  0  5 18 19 11 16 02
  21217504.230     5086215.989 4   3963279.300 2
  21149916.919      768413.904 3    598766.115 2
  23382952.219    -5229840.892 3  -4075176.960 1
  24536291.877    -1602991.653 2  -1249082.654 1
  23258064.078    -7163464.695 2  -5581899.146 1
 91  4  7 21 24 15.0010000  0  5 18 19 11 16 02
  21224808.969     5124601.584 4   3993190.101 2
  21152136.281      780083.732 3    607859.498 2
  23381563.282    -5237114.769 3  -4080844.855 1
  24534105.190    -1614420.888 2  -1257988.474 1
  23252522.713    -7192607.047 3  -5604607.333 1
 91  4  7 21 24 30.0010000  0  5 18 19 11 16 02
  21232137.995     5163113.848 4   4023199.610 2
  21154369.433      791811.791 3    616998.259 2
  23380208.221    -5244241.612 3  -4086398.211 1
  24531952.383    -1625710.544 2  -1266785.624 1
  23246985.545    -7221670.410 2  -5627253.999 1
 91  4  7 21 24 45.0010000  0  5 18 19 11 16 02
  21239488.908     5201741.567 4   4053299.067 2
  21156607.084      803586.517 3    626173.375 2
  23378876.839    -5251232.558 3  -4091845.589 1
  24529837.046    -1636871.570 2  -1275482.539 1
  23241474.461    -7250665.855 3  -5649847.749 1
 91  4  7 21 25  0.0010000  0  6 18 19 11 16 02 06
  21246863.204     5240495.941 4   4083497.233 2
  21158855.531      815419.729 3    635394.059 2
  23377580.536    -5258075.688 3  -4097177.844 1
  24527725.609    -1647892.373 2  -1284070.113 1
  23235965.174    -7279581.535 3  -5672379.302 1
  24969158.013      241049.45512    187831.509 1
 91  4  7 21 25 15.0010000  0  6 18 19 11 16 02 06
  21254260.880     5279364.848 4   4113784.639 2
  21161119.562      827299.340 3    644650.924 2
  23376304.620    -5264782.803 3  -4102404.117 1
  24525671.430    -1658784.692 2  -1292557.585 1
  23230479.873    -7308429.650 3  -5694858.263 1
  24965123.104      219886.680 2    171341.147 1
 91  4  7 21 25 30.0010000  0  6 18 19 11 16 02 06
  21261678.945     5318354.676 4   4144166.273 2
  21163390.188      839231.813 3    653948.961 2
  23375048.492    -5271347.237 3  -4107519.206 1
  24523615.153    -1669542.155 2  -1300940.050 1
  23225004.165    -7337203.507 3  -5717279.348 1
  24961107.687      198745.508 2    154867.714 1
 91  4  7 21 25 45.0010000  0  6 18 19 11 16 02 06
  21269119.797     5357464.414 4   4174641.344 2
  21165667.416      851216.319 3    663287.539 2
  23373827.435    -5277769.634 3  -4112523.576 1
  24521587.360    -1680165.395 2  -1309217.838 1
  23219546.744    -7365903.938 3  -5739643.182 1
  24957085.970      177625.090 2    138410.444 1
 91  4  7 21 26  0.0010000  0  6 18 19 11 16 02 06
  21276587.923     5396694.789 4   4205210.405 2
  21167962.324      863253.734 3    672667.356 2
  23372632.462    -5284048.955 3  -4117416.525 1
  24519595.535    -1690653.465 2  -1317390.345 1
  23214096.514    -7394529.898 3  -5761949.023 1
  24953072.647      156526.209 2    121969.879 1
 91  4  7 21 26 15.0010000  0  6 18 19 11 16 02 06
  21284076.143     5436048.674 4   4235875.731 2
  21170262.333      875346.854 3    682090.563 2
  23371463.572    -5290182.123 3  -4122195.533 1
  24517628.900    -1701003.487 2  -1325455.211 1
  23208662.175    -7423078.533 3  -5784194.558 1
  24949060.226      135451.484 2    105548.123 1
 91  4  7 21 26 30.0010000  0  6 18 19 11 16 02 06
  21291588.941     5475523.642 4   4266635.393 2
  21172576.131      887493.714 3    691555.655 2
  23370327.659    -5296171.013 3  -4126862.153 1
  24515686.843    -1711217.244 2  -1333414.005 1
  23203239.232    -7451551.851 3  -5806381.485 1
  24945042.405      114398.938 2     89143.632 1
 91  4  7 21 26 45.0010000  0  6 18 19 11 16 02 06
  21299123.623     5515119.317 4   4297489.116 2
  21174897.124      899694.112 3    701062.465 2
  23369213.929    -5302015.520 3  -4131416.234 1
  24513751.082    -1721294.786 2  -1341266.590 1
  23197834.874    -7479949.984 3  -5828509.774 1
  24941043.775       93368.229 2     72756.292 1
 91  4  7 21 27  0.0010000  0  6 18 19 11 16 02 06
  21306675.697     5554827.184 4   4328430.258 2
  21177227.112      911939.465 3    710604.312 2
  23368132.277    -5307724.001 3  -4135864.337 1
  24511872.583    -1731244.424 2  -1349019.491 1
  23192450.299    -7508281.283 3  -5850585.982 1
  24937050.537       72350.780 2     56379.194
 91  4  7 21 27 15.0010000  0  6 18 19 11 16 02 06
  21314250.252     5594622.833 4   4359439.805 2
  21179558.596      924205.490 3    720162.259 2
  23367060.821    -5313320.332 3  -4140225.058 1
  24510000.079    -1741090.606 2  -1356691.816 1
  23187068.425    -7536569.796 3  -5872628.870 1
  24933042.314       51322.303 2     39993.441 1
 91  4  7 21 27 30.0010000  0  6 18 19 11 16 02 06
  21321845.193     5634541.461 4   4390545.177 2
  21181905.074      936527.394 3    729763.742 2
  23366030.433    -5318769.193 3  -4144470.859 1
  24508151.560    -1750797.962 2  -1364255.963 1
  23181696.145    -7564780.324 3  -5894610.969 1
  24929048.779       30317.700 2     23626.290 1
 91  4  7 21 27 45.0010000  0  6 18 19 11 16 02 06
  21329466.816     5674589.243 4   4421751.184 2
  21184262.341      948911.699 3    739413.854 2
  23365018.635    -5324063.821 3  -4148596.526 1
  24506345.908    -1760359.717 2  -1371706.658 1
  23176344.551    -7592906.337 3  -5916527.233 1
  24925061.841        9343.548 2      7282.986 1
 91  4  7 21 28  0.0010000  0  6 18 19 11 16 02 06
  21337114.221     5714765.084 4   4453056.987 2
  21186629.799      961357.501 3    749111.888 2
  23364038.914    -5329205.188 3  -4152602.699 1
  24504535.762    -1769776.889 2  -1379044.678 1
  23171008.846    -7620948.908 3  -5938378.498 1
  24921075.796      -11601.400 2     -9037.565 1
 91  4  7 21 28 15.0010000  0  6 18 19 11 16 02 06
  21344780.817     5755066.095 4   4484460.322 2
  21189010.454      973862.127 3    758855.757 2
  23363095.464    -5334195.580 3  -4156491.241 1
  24502773.883    -1779051.946 2  -1386271.992 1
  23165690.827    -7648910.516 3  -5960166.622 1
  24917090.058      -32519.716 2    -25337.483 1
 91  4  7 21 28 30.0010000  0  6 18 19 11 16 02 06
  21352472.891     5795486.566 4   4515956.743 2
  21191399.799      986419.737 3    768640.908 2
  23362167.906    -5339040.547 3  -4160266.480 1
  24501028.791    -1788190.524 2  -1393392.834 1
  23160377.903    -7676796.540 3  -5981895.889 2
  24913119.309      -53417.273 2    -41621.205 1
 91  4  7 21 28 45.0010000  0  6 18 19 11 16 02 06
  21360187.152     5836023.049 4   4547543.555 2
  21193799.937      999026.974 3    778464.732 2
  23361276.623    -5343743.318 3  -4163930.928 1
  24499321.174    -1797196.225 2  -1400410.303 1
  23155090.766    -7704610.424 3  -6003568.931 1
  24909140.759      -74297.525 2    -57891.329 1
 91  4  7 21 29  0.0010000  0  6 18 19 11 16 02 06
  21367921.795     5876670.761 4   4579217.049 2
  21196208.769     1011679.481 3    788323.838 2
  23360405.430    -5348308.152 3  -4167487.905 1
  24497638.140    -1806073.127 2  -1407327.289 1
  23149807.822    -7732356.492 3  -6025189.165 1
  24905167.611      -95165.049 2    -74151.634 1
 91  4  7 21 29 15.0010000  0  6 18 19 11 16 02 06
  21375684.922     5917450.095 4   4610993.100 2
  21198625.995     1024397.785 3    798234.209 2
  23359564.809    -5352714.094 3  -4170921.028 1
  24495975.789    -1814800.522 2  -1414127.876 1
  23144542.864    -7760014.186 3  -6046740.509 1
  24901211.550     -115999.316 2    -90385.984 1
 91  4  7 21 29 30.0010000  0  6 18 19 11 16 02 06
  21383468.434     5958357.592 4   4642869.021 2
  21201056.112     1037178.590 3    808193.275 2
  23358756.869    -5356964.404 3  -4174232.896 1
  24494341.318    -1823381.539 2  -1420814.400 1
  23139300.993    -7787586.757 3  -6068225.482 1
  24897247.097     -136803.758 2   -106597.109 1
 91  4  7 21 29 45.0010000  0  6 18 19 11 16 02 06
  21391272.630     5999371.143 4   4674827.583 2
  21203499.723     1050000.136 3    818184.097 2
  23357978.009    -5361080.709 3  -4177440.353 1
  24492730.236    -1831838.141 2  -1427403.889 1
  23134065.422    -7815096.012 3  -6089661.162 1
  24893285.936     -157600.354 2   -122802.131 1
 91  4  7 21 30  0.0010000  0  6 18 19 11 16 02 06
  21399098.712     6040495.730 4   4706872.670 2
  21205944.830     1062867.389 3    828210.527 2
  23357218.933    -5365057.846 3  -4180539.355 1
  24491150.031    -1840165.281 2  -1433892.505 1
  23128835.539    -7842536.779 3  -6111043.480 1
  24889336.472     -178384.232 2   -138997.276 1
 91  4  7 21 30 15.0010000  0  6 18 19 11 16 02 06
  21406942.781     6081724.433 4   4738998.868 2
  21208402.829     1075773.550 3    838267.273 2
  23356483.842    -5368902.293 3  -4183534.961 1
  24489592.608    -1848369.644 2  -1440285.533 1
  23123634.140    -7869915.653 3  -6132377.579 1
  24885381.311     -199162.130 2   -155187.698 1
 91  4  7 21 30 30.0010000  0  6 18 19 11 16 02 06
  21414810.234     6123057.581 4   4771206.471 2
  21210866.821     1088719.176 3    848354.770 2
  23355782.030    -5372613.322 3  -4186426.624 1
  24488046.876    -1856450.342 2  -1446582.137 1
  23118433.041    -7897232.132 3  -6153663.024 1
  24881431.842     -219933.653 2   -171373.162 1
 91  4  7 21 30 45.0010000  0  6 18 19 11 16 02 06
  21422697.174     6164496.026 4   4803496.112 2
  21213335.914     1101705.179 3    858473.731 2
  23355101.502    -5376189.935 3  -4189213.524 1
  24486530.828    -1864406.574 2  -1452781.852 1
  23113243.936    -7924485.369 3  -6174899.192 1
  24877474.582     -240698.089 2   -187553.079 1
 91  4  7 21 31  0.0010000  0  6 18 19 11 16 02 06
  21430602.402     6206039.822 4   4835867.845 2
  21215816.698     1114731.973 3    868624.493 2
  23354441.356    -5379631.438 3  -4191895.166 1
  24485055.547    -1872237.771 2  -1458884.026 1
  23108073.414    -7951674.685 3  -6196085.568 1
  24873517.924     -261455.025 2   -203727.235 1
 91  4  7 21 31 15.0010000  0  6 18 19 11 16 02 06
  21438526.218     6247686.573 4   4868319.814 2
  21218302.573     1127797.106 3    878805.117 2
  23353815.988    -5382940.169 3  -4194473.355 1
  24483587.163    -1879946.404 2  -1464890.716 1
  23102912.486    -7978802.556 3  -6217224.114 1
  24869567.256     -282206.924 2   -219897.563 1
 91  4  7 21 31 30.0010000  0  6 18 19 11 16 02 06
  21446471.617     6289439.531 4   4900854.531 2
  21220796.850     1140904.105 3    889018.348 2
  23353211.608    -5386112.448 3  -4196945.211 1
  24482134.372    -1887528.745 2  -1470799.054 1
  23097758.756    -8005865.359 3  -6238311.871 1
  24865620.191     -302950.456 2   -236061.580 1
 91  4  7 21 31 45.0010000  0  6 18 19 11 16 02 06
  21454437.401     6331299.400 4   4933472.548 2
  21223297.418     1154053.975 3    899265.001 2
  23352634.207    -5389147.135 3  -4199309.797 1
  24480726.545    -1894983.898 2  -1476608.264 1
  23092626.307    -8032862.138 3  -6259348.214 1
  24861689.010     -323684.874 2   -252218.129 1
 91  4  7 21 32  0.0010000  0  6 18 19 11 16 02 06
  21462422.376     6373266.445 4   4966174.089 2
  21225809.678     1167247.191 3    909545.423 2
  23352083.788    -5392043.495 3  -4201566.664 1
  24479313.924    -1902311.377 2  -1482318.015 1
  23087500.157    -8059792.372 3  -6280332.708 1
  24857745.239     -344409.621 2   -268367.175 1
 91  4  7 21 32 15.0010000  0  6 18 19 11 16 02 06
  21470430.731     6415340.900 4   4998959.325 2
  21228324.638     1180484.286 3    919860.044 2
  23351554.357    -5394800.907 3  -4203715.262 1
  24477953.465    -1909510.560 2  -1487927.690 1
  23082387.195    -8086655.397 3  -6301264.811 1
  24853794.575     -365124.304 2   -284508.317 1
 91  4  7 21 32 30.0010000  0  6 18 19 11 16 02 06
  21478455.575     6457521.444 4   5031827.230 2
  21230854.287     1193763.827 3    930207.737 2
  23351059.996    -5397420.529 3  -4205756.464 1
  24476611.295    -1916582.641 2  -1493438.374 1
  23077285.027    -8113452.548 3  -6322145.643 1
  24849858.901     -385830.511 2   -300642.912 1
 91  4  7 21 32 45.0010000  0  6 18 19 11 16 02 06
  21486502.905     6499812.207 4   5064781.006 2
  21233392.627     1207090.124 3    940591.859 2
  23350590.524    -5399897.978 3  -4207686.873 1
  24475268.824    -1923523.331 2  -1498846.704 1
  23072203.846    -8140179.470 3  -6342971.701 1
  24845911.832     -406523.998 2   -316767.586 1
 91  4  7 21 33  0.0010000  0  6 18 19 11 16 02 06
  21494576.017     6542214.080 4   5097821.373 2
  21235940.564     1220464.111 3    951013.156 2
  23350145.330    -5402232.159 3  -4209505.667 1
  24473998.304    -1930331.644 2  -1504151.852 1
  23067130.457    -8166835.197 3  -6363742.279 1
  24841991.746     -427203.832 2   -332881.662 1
 91  4  7 21 33 15.0010000  0  6 18 19 11 16 02 06
  21502662.016     6584722.223 4   5130944.547 2
  21238488.199     1233881.409 3    961468.193 2
  23349727.720    -5404427.457 3  -4211216.213 1
  24472723.587    -1937011.997 2  -1509357.308 1
  23062067.564    -8193424.172 3  -6384460.891 1
  24838032.387     -447874.755 2   -348988.697 1
 91  4  7 21 33 30.0010000  0  6 18 19 11 16 02 06
  21510772.301     6627342.932 4   5164155.422 2
  21241051.728     1247348.373 3    971961.926 2
  23349336.491    -5406477.094 3  -4212813.281 1
  24471469.252    -1943557.762 2  -1514457.865 1
  23057023.256    -8219939.821 3  -6405122.314 1
  24834112.300     -468530.317 2   -365083.834 1
 91  4  7 21 33 45.0010000  0  6 18 19 11 16 02 06
  21518902.375     6670070.550 4   5197449.616 2
  21243622.747     1260859.601 3    982490.151 2
  23348975.241    -5408386.281 3  -4214300.921 1
  24470252.095    -1949974.428 2  -1519457.867 1
  23051990.037    -8246387.391 3  -6425730.717 1
  24830182.620     -489176.035 2   -381171.189 1
 91  4  7 21 34  0.0010000  0  6 18 19 11 16 02 06
  21527054.331     6712910.151 4   5230831.068 2
  21246205.759     1274420.189 3    993056.842 2
  23348636.776    -5410149.709 3  -4215674.964 1
  24469056.825    -1956256.615 2  -1524353.037 1
  23046969.714    -8272761.862 3  -6446282.153 1
  24826261.635     -509806.910 2   -397247.076
 91  4  7 21 34 15.0010000  0  6 18 19 11 16 02 06
  21535229.671     6755861.363 4   5264299.476 2
  21248793.565     1288030.220 3   1003662.065 2
  23348326.791    -5411767.271 3  -4216935.335 1
  24467869.648    -1962404.475 2  -1529143.513 1
  23041963.482    -8299063.033 3  -6466776.449 2
  24822335.855     -530422.953 2   -413311.381 1
 91  4  7 21 34 30.0010000  0  6 18 19 11 16 02 06
  21543421.501     6798922.899 4   5297853.868 2
  21251396.365     1301688.497 3   1014304.868 2
  23348045.886    -5413239.972 3  -4218082.848 1
  24466740.030    -1968418.926 2  -1533830.109 1
  23036977.933    -8325292.041 3  -6487214.556 1
  24818415.467     -551025.405 2   -429365.170 1
 91  4  7 21 34 45.0010000  0  6 18 19 11 16 02 06
  21551637.614     6842100.742 4   5331498.881 2
  21254001.260     1315400.783 3   1024989.772 2
  23347793.159    -5414561.741 3  -4219112.743 1
  24465623.303    -1974294.170 2  -1538408.141 1
  23031996.280    -8351442.991 3  -6507591.803 1
  24814504.677     -571608.507 2   -445403.852 1
 91  4  7 21 35  0.0010000  0  6 18 19 11 16 02 06
  21559877.109     6885388.184 4   5365229.300 2
  21256619.050     1329161.013 3   1035712.041 2
  23347572.514    -5415738.747 3  -4220029.841 1
  24464533.554    -1980036.253 2  -1542882.493 1
  23027032.618    -8377522.095 3  -6527913.056 1
  24810589.385     -592178.779 2   -461432.560 1
 91  4  7 21 35 15.0010000  0  6 18 19 11 16 02 06
  21568135.189     6928784.475 4   5399044.529 2
  21259247.929     1342968.560 3   1046471.166 2
  23347374.947    -5416771.286 3  -4220834.370 1
  24463470.190    -1985645.549 2  -1547253.330 1
  23022084.543    -8403529.884 3  -6548178.773 1
  24806674.398     -612736.611 2   -477451.507 1
 91  4  7 21 35 30.0010000  0  6 18 19 11 16 02 06
  21576415.758     6972295.674 4   5432949.306 2
  21261886.703     1356829.634 3   1057272.004 2
  23347209.763    -5417653.035 3  -4221521.400 1
  24462426.615    -1991115.807 2  -1551515.943 1
  23017152.955    -8429460.238 3  -6568384.139 1
  24802764.206     -633276.131 2   -493456.109 1
 91  4  7 21 35 45.0010000  0  6 18 19 11 16 02 06
  21584717.010     7015918.053 4   5466940.712 2
  21264534.468     1370740.658 3   1068111.759 2
  23347068.259    -5418387.411 3  -4222093.571 1
  24461410.916    -1996450.942 2  -1555673.130 1
  23012232.761    -8455316.561 3  -6588531.835 1
  24798847.417     -653800.990 2   -509449.539 1
 91  4  7 21 36  0.0010000  0  6 18 19 11 16 02 06
  21593039.551     7059651.684 4   5501018.815 2
  21267189.733     1384702.090 3   1078990.801 2
  23346954.039    -5418973.850 3  -4222550.499 1
  24460411.708    -2001650.360 2  -1559724.660 1
  23007324.560    -8481098.290 3  -6608621.392 1
  24794958.806     -674310.674 2   -525430.910 1
 91  4  7 21 36 15.0010000  0  6 18 19 11 16 02 06
  21601382.775     7103497.217 4   5535184.098 2
  21269853.687     1398714.440 3   1089909.518 2
  23346870.997    -5419411.623 3  -4222891.574 1
  24459456.570    -2006713.604 2  -1563669.969 1
  23002434.944    -8506804.812 3  -6628652.337 1
  24791050.411     -694804.884 2   -541400.271 1
 91  4  7 21 36 30.0010000  0  6 18 19 11 16 02 06
  21609745.185     7147449.405 4   5569432.494 2
  21272532.632     1412772.577 3   1100863.915 2
  23346815.536    -5419705.706 3  -4223120.692 1
  24458516.423    -2011645.353 2  -1567512.883 1
  22997557.621    -8532441.185 3  -6648628.612 1
  24787163.903     -715288.711 2   -557361.569 1
 91  4  7 21 36 45.0010000  0  6 18 19 11 16 02 06
  21618131.878     7191508.588 4   5603764.272 2
  21275215.175     1426877.429 3   1111854.709 2
  23346790.652    -5419855.200 3  -4223237.144 1
  24457603.554    -2016444.886 2  -1571252.726 1
  22992689.591    -8558006.576 3  -6668549.632 1
  24783267.200     -735761.518 2   -573314.313 1
 91  4  7 21 37  0.0010000  0  6 18 19 11 16 02 06
  21626536.858     7235679.166 4   5638182.839 2
  21277915.108     1441033.431 3   1122885.365 2
  23346787.655    -5419855.399 3  -4223237.227 1
  24456716.769    -2021107.658 2  -1574886.030 1
  22987835.952    -8583496.451 3  -6688411.777 1
  24779371.997     -756218.939 2   -589254.988 1
 91  4  7 21 37 15.0010000  0  6 18 19 11 16 02 06
  21634964.026     7279960.080 4   5672687.374 2
  21280612.637     1455239.660 3   1133955.157 2
  23346817.037    -5419707.136 3  -4223121.655 1
  24455857.563    -2025634.653 2  -1578413.497 1
  22983003.298    -8608911.557 3  -6708215.638 1
  24775484.590     -776661.946 2   -605184.532 1
 91  4  7 21 37 30.0010000  0  6 18 19 11 16 02 06
  21643408.579     7324354.063 4   5707280.029 2
  21283323.663     1469499.232 3   1145066.506 2
  23346873.397    -5419407.238 3  -4222887.900 1
  24455020.843    -2030022.706 2  -1581832.785 1
  22978178.439    -8634248.996 3  -6727958.982 2
  24771584.288     -797087.662 2   -621100.551 1
 91  4  7 21 37 45.0010000  0  6 18 19 11 16 02 06
  21651878.915     7368860.345 4   5741960.185 2
  21286045.478     1483811.493 3   1156218.917 2
  23346955.840    -5418956.260 3  -4222536.461 1
  24454206.005    -2034272.677 2  -1585144.446 1
  22973373.962    -8659509.387 3  -6747642.314 1
  24767708.572     -817496.902 2   -637003.651 1
 91  4  7 21 38  0.0010000  0  6 18 19 11 16 02 06
  21660368.738     7413477.512 4   5776726.741 2
  21288783.780     1498175.396 3   1167411.574 2
  23347072.159    -5418355.260 3  -4222068.110 1
  24453435.840    -2038385.521 2  -1588349.225 1
  22968581.482    -8684693.856 3  -6767266.487 1
  24763831.954     -837890.772 2   -652894.897 1
 91  4  7 21 38 15.0010000  0  6 18 19 11 16 02 06
  21668880.448     7458208.341 4   5811581.870 2
  21291527.181     1512593.761 3   1178646.660 2
  23347220.255    -5417600.875 3  -4221480.216 1
  24452676.463    -2042358.146 2  -1591444.772 1
  22963804.289    -8709799.142 3  -6786828.937 2
  24759943.950     -858266.401 2   -668772.048 1
 91  4  7 21 38 30.0010000  0  6 18 19 11 16 02 06
  21677418.238     7503052.996 4   5846525.693 2
  21294284.974     1527066.970 3   1189924.486 2
  23347389.936    -5416692.726 3  -4220772.524 1
  24451944.073    -2046190.107 2  -1594430.690 1
  22959041.186    -8734824.834 3  -6806329.372 1
  24756076.925     -878623.505 2   -684634.964 1
 91  4  7 21 38 45.0010000  0  6 18 19 11 16 02 06
  21685971.916     7548011.116 4   5881557.944 2
  21297043.962     1541594.960 3   1201245.004 2
  23347595.897    -5415630.975 3  -4219945.156 1
  24451247.054    -2049881.648 2  -1597307.226 1
  22954296.969    -8759771.238 3  -6825768.056 1
  24752206.903     -898962.465 2   -700483.266 1
 91  4  7 21 39  0.0010000  0  6 18 19 11 16 02 06
  21694544.780     7593078.596 4   5916675.393 2
  21299822.739     1556173.725 3   1212605.079 2
  23347819.539    -5414419.408 3  -4219001.040 1
  24450564.725    -2053436.663 2  -1600077.338 1
  22949562.350    -8784642.253 3  -6845147.965 1
  24748339.882     -919287.238 2   -716320.739 1
 91  4  7 21 39 15.0010000  0  6 18 19 11 16 02 06
  21703142.529     7638261.882 4   5951883.085 2
  21302604.213     1570809.944 3   1224009.929 2
  23348082.758    -5413051.124 3  -4217934.774 1
  24449911.179    -2056848.455 2  -1602735.865 1
  22944843.615    -8809431.136 3  -6864463.859 1
  24744484.549     -939591.261 2   -732141.915 1
 91  4  7 21 39 30.0010000  0  6 18 19 11 16 02 06
  21711765.458     7683554.803 4   5987176.197 2
  21305399.179     1585497.510 3   1235454.775 2
  23348371.459    -5411532.004 3  -4216750.994 1
  24449290.610    -2060122.814 2  -1605287.422 1
  22940143.469    -8834143.738 3  -6883720.333 1
  24740620.826     -959880.667 2   -747951.680 1
 91  4  7 21 39 45.0010000  0  6 18 19 11 16 02 06
  21720405.475     7728962.796 4   6022558.995 2
  21308206.736     1600242.226 3   1246944.172 2
  23348692.835    -5409856.233 3  -4215445.163 1
  24448693.123    -2063254.277 2  -1607727.349 1
  22935454.713    -8858774.448 3  -6902912.996 1
  24736757.099     -980149.891 2   -763745.865 1
 91  4  7 21 40  0.0010000  0  6 18 19 11 16 02 06
  21729067.078     7774482.099 4   6058028.510 2
  21311023.886     1615040.639 3   1258475.398 2
  23349037.599    -5408027.201 3  -4214019.901 1
  24448125.315    -2066246.201 2  -1610058.706 1
  22930783.948    -8883326.680 3  -6922044.511 1
  24732905.365    -1000402.420 2   -779526.929 1
 91  4  7 21 40 15.0010000  0  6 18 19 11 16 02 06
  21737748.169     7820111.465 4   6093583.803 2
  21313848.230     1629891.557 3   1270047.544 2
  23349418.036    -5406045.998 3  -4212476.067 1
  24447571.297    -2069099.730 2  -1612282.279 1
  22926124.575    -8907801.503 3  -6941115.700 2
  24729043.741    -1020639.561 2   -795296.005 1
 91  4  7 21 40 30.0010000  0  6 18 19 11 16 02 06
  21746455.042     7865851.282 4   6129225.152 2
  21316685.465     1644795.380 3   1281660.913 2
  23349816.760    -5403912.072 3  -4210813.210 1
  24447074.241    -2071814.532 2  -1614397.653 1
  22921482.289    -8932198.405 3  -6960126.169 1
  24725202.499    -1040861.022 2   -811052.823 1
 91  4  7 21 40 45.0010000  0  6 18 19 11 16 02 06
  21755179.902     7911708.584 4   6164958.036 2
  21319533.192     1659759.755 3   1293321.463 2
  23350259.550    -5401617.834 3  -4209025.443 1
  24446579.584    -2074383.146 2  -1616399.218 1
  22916856.790    -8956509.895 3  -6979070.114 2
  24721350.765    -1061059.344 2   -826791.644 1
 91  4  7 21 41  0.0010000  0  6 18 19 11 16 02 06
  21763927.247     7957679.526 4   6200779.497 2
  21322388.715     1674781.155 3   1305026.458 2
  23350725.131    -5399166.648 3  -4207115.400 1
  24446114.309    -2076808.791 2  -1618289.276 1
  22912242.686    -8980739.506 3  -6997950.231 2
  24717516.720    -1081238.257 2   -842515.452 1
 91  4  7 21 41 15.0010000  0  6 18 19 11 16 02 06
  21772696.776     8003763.477 4   6236689.010 2
  21325261.030     1689859.153 3   1316775.560 2
  23351222.187    -5396558.773 3  -4205083.217 1
  24445676.910    -2079092.056 2  -1620068.432 1
  22907651.063    -9004887.551 3  -7016766.800 1
  24713687.772    -1101398.118 2   -858224.266 1
 91  4  7 21 41 30.0010000  0  6 18 19 11 16 02 06
  21781489.090     8049963.207 4   6272688.738 2
  21328143.832     1704996.428 3   1328570.827 2
  23351745.921    -5393791.349 3  -4202926.748 1
  24445273.688    -2081230.325 2  -1621734.633 1
  22903070.834    -9028951.478 3  -7035517.811 1
  24709850.726    -1121536.467 2   -873916.438 1
 91  4  7 21 41 45.0010000  0  6 18 19 11 16 02 06
  21790304.787     8096278.827 4   6308778.762 2
  21331030.835     1720193.515 3   1340412.706 2
  23352308.634    -5390863.617 3  -4200645.325 1
  24444896.850    -2083222.673 2  -1623287.061 1
  22898508.292    -9052930.528 3  -7054202.698 1
  24706016.979    -1141652.752 2   -889591.281 1
 91  4  7 21 42  0.0010000  0  6 18 19 11 16 02 06
  21799139.967     8142708.144 4   6344957.384 2
  21333933.426     1735448.281 3   1352299.541 2
  23352891.728    -5387777.661 3  -4198240.653 1
  24444543.994    -2085071.639 2  -1624727.778 1
  22893959.243    -9076826.754 3  -7072823.046 2
  24702194.627    -1161749.196 2   -905250.653 1
 91  4  7 21 42 15.0010000  0  6 18 19 11 16 02 06
  21807994.038     8189250.113 4   6381223.787 2
  21336849.506     1750759.674 3   1364230.502 2
  23353510.203    -5384534.523 3  -4195713.446 1
  24444215.720    -2086777.970 2  -1626057.424 1
  22889426.679    -9100641.242 3  -7091379.704 1
  24698374.072    -1181826.932 2   -920895.641 1
 91  4  7 21 42 30.0010000  0  6 18 19 11 16 02 06
  21816877.490     8235909.157 4   6417581.425 2
  21339775.480     1766132.635 3   1376209.429 2
  23354156.555    -5381129.208 3  -4193059.943 1
  24443916.829    -2088336.727 2  -1627272.065 1
  22884913.604    -9124369.024 3  -7109868.782 1
  24694560.710    -1201881.126 2   -936522.150 1
 91  4  7 21 42 45.0010000  0  6 18 19 11 16 02 06
  21825774.431     8282684.080 4   6454029.345 2
  21342710.449     1781566.237 3   1388235.615 2
  23354835.582    -5377562.560 3  -4190280.687 1
  24443656.009    -2089748.991 2  -1628372.467 1
  22880412.822    -9148011.097 3  -7128291.091 1
  24690740.757    -1221912.939 2   -952131.285 1
 91  4  7 21 43  0.0010000  0  6 18 19 11 16 02 06
  21834701.051     8329571.666 4   6490565.057 2
  21345658.607     1797057.622 3   1400306.831 2
  23355544.292    -5373837.470 3  -4187377.962 2
  24443409.878    -2091017.741 2  -1629361.089 1
  22875930.022    -9171570.389 3  -7146648.903 1
  24686940.288    -1241925.356 2   -967725.267 1
 91  4  7 21 43 15.0010000  0  6 18 19 11 16 02 06
  21843643.262     8376572.528 4   6527189.043 2
  21348620.258     1812607.375 3   1412423.516 2
  23356282.681    -5369953.125 3  -4184351.153 1
  24443195.829    -2092142.197 2  -1630237.301 1
  22871464.315    -9195046.192 3  -7164941.639 1
  24683133.222    -1261917.833 2   -983303.687 1
 91  4  7 21 43 30.0010000  0  6 18 19 11 16 02 06
  21852607.954     8423685.091 4   6563900.065 2
  21351587.305     1828214.279 3   1424584.740 2
  23357052.549    -5365910.590 3  -4181201.081 1
  24443010.556    -2093123.690 2  -1631002.096 1
  22867011.500    -9218439.456 3  -7183170.081 1
  24679343.545    -1281891.701 2   -998867.623 1
 91  4  7 21 43 45.0010000  0  6 18 19 11 16 02 06
  21861592.133     8470912.733 4   6600700.757 2
  21354567.240     1843881.966 3   1436793.334 2
  23357851.198    -5361706.061 3  -4177924.780 1
  24442849.866    -2093958.573 2  -1631652.615 1
  22862573.669    -9241746.640 3  -7201331.442 1
  24675538.878    -1301843.365 2  -1014414.336 1
 91  4  7 21 44  0.0010000  0  6 18 19 11 16 02 06
  21870602.998     8518252.182 4   6637588.568 2
  21357561.270     1859607.073 3   1449046.662 2
  23358684.917    -5357342.764 3  -4174524.783 1
  24442730.249    -2094650.142 2  -1632191.492 1
  22858157.726    -9264971.113 3  -7219428.356 1
  24671744.106    -1321776.195 2  -1029946.271 1
 91  4  7 21 44 15.0010000  0  6 18 19 11 16 02 06
  21879633.346     8565700.636 4   6674561.324 2
  21360563.091     1875387.338 3   1461342.969 2
  23359548.323    -5352823.099 3  -4171002.917 1
  24442619.026    -2095200.639 2  -1632620.443 1
  22853751.376    -9288115.136 3  -7237462.558 2
  24667965.222    -1341692.614 2  -1045465.474 1
 91  4  7 21 44 30.0010000  0  6 18 19 11 16 02 06
  21888681.681     8613256.868 4   6711618.060 2
  21363577.202     1891221.544 3   1473681.308 2
  23360430.611    -5348148.127 3  -4167360.037 1
  24442550.075    -2095611.055 2  -1632940.224 1
  22849366.315    -9311179.892 3  -7255434.994 1
  24664167.151    -1361594.026 2  -1060972.963 1
 91  4  7 21 44 45.0010000  0  6 18 19 11 16 02 06
  21897750.402     8660920.308 4   6748758.333 2
  21366597.311     1907109.627 3   1486061.644 2
  23361350.673    -5343318.008 3  -4163596.288 1
  24442491.015    -2095881.890 2  -1633151.260 1
  22844984.844    -9334165.475 3  -7273345.767 2
  24660387.369    -1381480.707 2  -1076468.968 1
 91  4  7 21 45  0.0010000  0  6 18 19 11 16 02 06
  21906843.108     8708691.204 4   6785982.331 2
  21369635.110     1923052.097 3   1498484.343 2
  23362302.216    -5338332.100 3  -4159711.129 1
  24442455.940    -2096012.932 2  -1633253.327 1
  22840632.760    -9357071.353 3  -7291194.425 2
  24656602.787    -1401352.284 2  -1091953.197 1
 91  4  7 21 45 15.0010000  0  6 18 19 11 16 02 06
  21915953.801     8756570.037 4   6823290.461 2
  21372679.200     1939049.502 3   1510949.856 2
  23363279.236    -5333189.602 3  -4155703.942 1
  24442468.229    -2096003.072 2  -1633245.604 1
  22836287.569    -9379896.926 3  -7308980.504 1
  24652824.806    -1421208.066 2  -1107425.130 1
 91  4  7 21 45 30.0010000  0  6 18 19 11 16 02 06
  21925086.081     8804556.322 4   6860682.313 2
  21375738.284     1955101.688 3   1523458.044 2
  23364286.542    -5327890.800 3  -4151574.963 1
  24442495.513    -2095852.563 2  -1633128.364 1
  22831961.860    -9402642.395 3  -7326704.168 1
  24649042.921    -1441048.537 2  -1122885.106 1
 91  4  7 21 45 45.0010000  0  6 18 19 11 16 02 06
  21934234.244     8852647.857 4   6898156.153 2
  21378798.564     1971206.693 3   1536007.388 2
  23365326.522    -5322437.609 3  -4147325.672 1
  24442547.977    -2095563.307 2  -1632903.040 1
  22827646.051    -9425309.722 3  -7344366.927 1
  24645278.128    -1460875.758 2  -1138334.773 1
 91  4  7 21 46  0.0010000  0  6 18 19 11 16 02 06
  21943407.295     8900846.814 4   6935713.716 2
  21381870.540     1987367.051 3   1548599.882 2
  23366394.384    -5316827.359 3  -4142954.026 1
  24442632.519    -2095133.123 2  -1632567.738 1
  22823344.027    -9447896.286 3  -7361966.756 2
  24641498.647    -1480687.175 2  -1153772.177 1
 91  4  7 21 46 15.0010000  0  6 18 19 11 16 02 06
  21952601.331     8949155.602 4   6973356.854 2
  21384960.502     2003585.303 3   1561237.486 2
  23367491.021    -5311057.420 3  -4138457.944 1
  24442743.441    -2094559.455 2  -1632120.772 1
  22819065.988    -9470399.757 3  -7379501.851 2
  24637742.544    -1500480.535 2  -1169195.421 1
 91  4  7 21 46 30.0010000  0  6 18 19 11 16 02 06
  21961811.255     8997574.372 4   7011085.698 2
  21388059.155     2019861.705 3   1573920.386 2
  23368617.642    -5305127.493 3  -4133837.184 1
  24442877.747    -2093842.049 2  -1631561.789 1
  22814800.841    -9492819.669 3  -7396971.829 2
  24633981.651    -1520255.556 2  -1184604.472 1
 91  4  7 21 46 45.0010000  0  6 18 19 11 16 02 06
  21971046.359     9046100.257 4   7048898.020 2
  21391167.702     2036193.692 3   1586646.602 2
  23369776.341    -5299040.035 3  -4129093.685 1
  24443042.036    -2092983.474 2  -1630892.680 1
  22810548.886    -9515158.505 3  -7414378.654 1
  24630214.158    -1540014.900 2  -1200001.213 1
 91  4  7 21 47  0.0010000  0  6 18 19 11 16 02 06
  21980301.253     9094732.919 4   7086793.523 2
  21394286.444     2052581.163 3   1599416.073 2
  23370965.918    -5292794.974 3  -4124227.384 1
  24443231.201    -2091983.933 2  -1630113.860 1
  22806310.721    -9537416.439 3  -7431722.384 1
  24626461.057    -1559758.688 2  -1215385.912 1
 91  4  7 21 47 15.0010000  0  6 18 19 11 16 02 06
  21989577.431     9143471.670 4   7124771.699 2
  21397409.383     2069023.527 3   1612228.297 2
  23372185.771    -5286392.912 3  -4119238.707 1
  24443445.555    -2090844.080 2  -1629225.626 1
  22802090.543    -9559594.109 3  -7449003.614 2
  24622698.659    -1579487.724 2  -1230759.128 1
 91  4  7 21 47 30.0010000  0  6 18 19 11 16 02 06
  21998875.195     9192317.247 4   7162833.120 2
  21400551.805     2085522.073 3   1625084.307 2
  23373432.907    -5279832.618 3  -4114126.766 1
  24443684.191    -2089562.530 2  -1628227.016 1
  22797884.155    -9581690.203 3  -7466221.271 2
  24618950.056    -1599200.843 2  -1246119.883 1
 91  4  7 21 47 45.0010000  0  6 18 19 11 16 02 06
  22008188.249     9241271.326 4   7200979.090 2
  21403704.422     2102078.715 3   1637985.582 2
  23374710.926    -5273112.235 3  -4108890.087 1
  24443966.296    -2088137.459 2  -1627116.570 1
  22793698.449    -9603702.959 3  -7483374.002 2
  24615213.741    -1618896.272 2  -1261466.818 1
 91  4  7 21 48  0.0010000  0  6 18 19 11 16 02 06
  22017525.883     9290330.916 4   7239207.276 2
  21406866.035     2118690.618 3   1650929.923 2
  23376020.718    -5266234.525 3  -4103530.808 1
  24444259.490    -2086571.360 2  -1625896.212 1
  22789526.840    -9625634.943 3  -7500463.776 1
  24611458.843    -1638577.016 2  -1276802.343 1
 91  4  7 21 48 15.0010000  0  6 18 19 11 16 02 06
  22026876.713     9339497.687 4   7277518.967 2
  21410031.243     2135359.530 3   1663918.679 2
  23377363.189    -5259197.420 3  -4098047.301 1
  24444583.868    -2084862.935 2  -1624564.962 1
  22785365.421    -9647484.254 3  -7517489.129 2
  24607710.536    -1658241.157 2  -1292124.955 1
 91  4  7 21 48 30.0010000  0  6 18 19 11 16 02 06
  22036258.115     9388770.517 4   7315913.306 2
  21413216.837     2152084.707 3   1676951.286 2
  23378729.642    -5252001.822 3  -4092440.332 1
  24444943.617    -2083013.024 2  -1623123.451 1
  22781225.884    -9669251.924 3  -7534450.884 2
  24603985.015    -1677889.811 2  -1307435.529 1
 91  4  7 21 48 45.0010000  0  6 18 19 11 16 02 06
  22045656.009     9438148.001 4   7354389.199 2
  21416409.629     2168865.105 3   1690026.919 2
  23380128.473    -5244648.738 3  -4086710.600 1
  24445309.064    -2081022.727 2  -1621572.535 1
  22777097.442    -9690939.025 3  -7551349.844 2
  24600246.005    -1697524.175 2  -1322734.834 1
 91  4  7 21 49  0.0010000  0  6 18 19 11 16 02 06
  22055071.291     9487632.973 4   7392948.850 2
  21419618.305     2185703.722 3   1703147.922 2
  23381559.086    -5237134.879 3  -4080855.628 1
  24445722.778    -2078888.907 2  -1619909.859 1
  22772986.389    -9712542.377 3  -7568183.540 2
  24596504.595    -1717141.133 2  -1338020.695 1
 91  4  7 21 49 15.0010000  0  6 18 19 11 16 02 06
  22064505.459     9537221.122 4   7431588.895 2
  21422831.780     2202596.573 3   1716311.183 2
  23383013.976    -5229464.307 3  -4074878.526 1
  24446146.683    -2076615.565 2  -1618138.443 1
  22768891.525    -9734065.924 3  -7584955.050 2
  24592770.379    -1736744.854 2  -1353296.219 1
 91  4  7 21 49 30.0010000  0  6 18 19 11 16 02 06
  22073963.612     9586912.396 4   7470309.291 2
  21426056.650     2219543.803 3   1729516.808 2
  23384506.641    -5221636.724 3  -4068779.073 1
  24446603.870    -2074202.608 2  -1616258.164 1
  22764810.748    -9755509.552 3  -7601664.303 2
  24589057.152    -1756335.233 2  -1368561.366 1
 91  4  7 21 49 45.0010000  0  6 18 19 11 16 02 06
  22083438.252     9636706.553 4   7509109.866 2
  21429286.315     2236545.370 3   1742764.785 2
  23386029.290    -5213652.277 3  -4062557.396 1
  24447105.721    -2071650.425 2  -1614269.469 1
  22760745.262    -9776873.401 3  -7618311.389 1
  24585334.929    -1775912.502 2  -1383816.245 1
 91  4  7 21 50  0.0010000  0  6 18 19 11 16 02 06
  22092937.478     9686601.920 4   7547989.303 2
  21432536.366     2253599.833 3   1756053.975 2
  23387577.116    -5205512.493 3  -4056214.677 1
  24447612.370    -2068960.124 2  -1612173.172 1
  22756693.867    -9798159.075 3  -7634897.536 2
  24581604.308    -1795478.269 2  -1399062.182 1
 91  4  7 21 50 15.0010000  0  6 18 19 11 16 02 06
  22102445.993     9736595.999 4   7586945.649 2
  21435791.512     2270705.343 3   1769382.949 2
  23389156.125    -5197219.013 3  -4049752.155 1
  24448151.696    -2066133.946 2  -1609970.942 1
  22752662.858    -9819368.225 3  -7651424.079 1
  24577887.481    -1815034.512 2  -1414300.732 1
 91  4  7 21 50 30.0010000  0  6 18 19 11 16 02 06
  22111979.697     9786693.919 4   7625982.914 2
  21439061.347     2287866.673 3   1782755.408 2
  23390762.112    -5188766.959 3  -4043166.124 1
  24448708.711    -2063166.779 2  -1607658.867 1
  22748636.045    -9840495.973 3  -7667887.186 2
  24574164.661    -1834576.222 2  -1429527.953 1
 91  4  7 21 50 45.0010000  0  6 18 19 11 16 02 06
  22121532.282     9836891.275 3   7665097.661 2
  21442334.183     2305080.060 3   1796168.436 2
  23392400.478    -5180160.266 3  -4036459.573 1
  24449312.192    -2060062.360 2  -1605239.800 1
  22744631.120    -9861546.303 3  -7684289.963 2
  24570441.836    -1854107.683 2  -1444747.200 1
 91  4  7 21 51  0.0010000  0  6 18 19 11 16 02 06
  22131103.155     9887183.489 4   7704286.320 2
  21445616.909     2322341.262 3   1809618.726 2
  23394066.123    -5171403.019 3  -4029635.711 1
  24449916.576    -2056825.674 2  -1602717.757 1
  22740640.582    -9882523.471 3  -7700635.732 2
  24566736.701    -1873633.103 2  -1459961.582 1
 91  4  7 21 51 15.0010000  0  6 18 19 11 16 02 06
  22140691.120     9937574.170 3   7743551.721 2
  21448908.330     2339653.815 3   1823109.029 2
  23395766.250    -5162491.597 3  -4022691.722 1
  24450562.330    -2053452.613 2  -1600089.372 1
  22736662.334    -9903423.753 3  -7716921.578 2
  24563015.677    -1893148.990 2  -1475168.687
 91  4  7 21 51 30.0010000  0  6 18 19 11 16 02 06
  22150300.667     9988063.906 3   7782894.285 1
  21452218.937     2357018.860 3   1836640.233 2
  23397487.356    -5153425.118 3  -4015626.892 1
  24451227.567    -2049942.574 2  -1597354.335 1
  22732699.080    -9924246.183 3  -7733146.794 2
  24559309.046    -1912654.527 2  -1490367.657 1
 91  4  7 21 51 45.0010000  0  6 18 19 11 16 02 06
  22159924.903    10038652.162 3   7822313.632 2
  21455530.744     2374436.114 3   1850212.123 2
  23399242.041    -5144203.744 3  -4008441.372 1
  24451921.588    -2046296.021 2  -1594512.817 1
  22728754.109    -9944991.017 3  -7749311.505 2
  24555589.820    -1932149.971 2  -1505558.879 1
 91  4  7 21 52  0.0010000  0  6 18 19 11 16 02 06
  22169573.124    10089336.317 4   7861807.701 1
  21458852.747     2391903.087 3   1863822.744 2
  23401028.804    -5134829.953 3  -4001137.090 1
  24452644.686    -2042515.325 2  -1591566.830 1
  22724817.536    -9965660.685 3  -7765417.683 1
  24551890.679    -1951637.976 2  -1520744.248 1
 91  4  7 21 52 15.0010000  0  6 18 19 11 16 02 06
  22179231.536    10140113.044 3   7901373.907 2
  21462184.940     2409416.703 3   1877469.725 2
  23402838.950    -5125306.771 3  -3993716.397 1
  24453385.775    -2038603.339 2  -1588518.507 1
  22720895.351    -9986258.419 3  -7781467.792 2
  24548173.552    -1971121.661 2  -1535926.320 1
 91  4  7 21 52 30.0020000  0  6 18 19 11 16 02 06
  22188915.433    10190994.493 3   7941021.722 2
  21465531.520     2426987.380 3   1891161.165 2
  23404678.778    -5115624.464 3  -3986171.718 1
  24454169.433    -2034550.897 2  -1585360.775 1
  22716992.055   -10006776.312 3  -7797455.682 2
  24544471.116    -1990593.298 2  -1551098.885 1
 91  4  7 21 52 45.0020000  0  6 18 19 11 16 02 06
  22198619.115    10241968.446 4   7980741.605 2
  21468880.504     2444607.716 3   1904891.303 2
  23406550.383    -5105789.159 3  -3978507.805 1
  24454951.591    -2030363.616 2  -1582098.004 1
  22713106.145   -10027216.567 3  -7813383.083 2
  24540769.580    -2010055.348 2  -1566264.028 1
 91  4  7 21 53  0.0020000  0  6 18 19 11 16 02 06
  22208336.587    10293038.333 4   8020536.255 2
  21472246.874     2462279.093 3   1918661.200 2
  23408453.164    -5095800.006 3  -3970724.021 1
  24455782.016    -2026041.161 2  -1578729.846 1
  22709228.030   -10047580.569 3  -7829251.062 1
  24537068.939    -2029508.970 2  -1581422.586 1
 91  4  7 21 53 15.0020000  0  6 18 19 11 16 02 06
  22218069.350    10344205.551 4   8060406.724 1
  21475617.440     2480002.878 3   1932471.937 2
  23410382.028    -5085655.560 3  -3962819.236 1
  24456623.832    -2021581.799 2  -1575255.036 1
  22705372.697   -10067866.691 3  -7845058.350 2
  24533373.397    -2048952.962 2  -1596573.684 1
 91  4  7 21 53 30.0020000  0  6 18 19 11 16 02 06
  22227824.899    10395467.963 4   8100351.393 2
  21478998.197     2497777.336 3   1946322.153 2
  23412346.870    -5075357.535 3  -3954794.780 1
  24457496.526    -2016987.467 2  -1571675.077 1
  22701522.764   -10088076.705 3  -7860806.338 2
  24529672.162    -2068389.087 2  -1611718.536 1
 91  4  7 21 53 45.0020000  0  6 18 19 11 16 02 06
  22237597.230    10446824.804 4   8140369.622 1
  21482394.546     2515602.002 3   1960211.476 2
  23414329.699    -5064906.456 3  -3946651.086 1
  24458404.299    -2012259.165 2  -1567990.592 1
  22697689.614   -10108211.167 3  -7876495.465 2
  24525978.117    -2087818.030 2  -1626857.903 1
 91  4  7 21 54  0.0020000  0  6 18 19 11 16 02 06
  22247390.851    10498279.065 4   8180463.776 2
  21485799.891     2533479.889 3   1974142.324 2
  23416347.302    -5054299.237 3  -3938385.682 1
  24459326.461    -2007393.688 2  -1564199.338 1
  22693875.656   -10128267.075 3  -7892123.360 2
  24522268.187    -2107236.764 2  -1641989.328 1
 91  4  7 21 54 15.0020000  0  6 18 19 11 16 02 06
  22257198.261    10549833.175 4   8220635.740 2
  21489207.033     2551414.111 3   1988117.040 2
  23418396.682    -5043532.932 3  -3929996.321 1
  24460283.400    -2002388.015 2  -1560298.841 1
  22690074.889   -10148241.412 3  -7907687.714 1
  24518583.439    -2126642.355 2  -1657110.489 1
 91  4  7 21 54 30.0020000  0  6 18 19 11 16 02 06
  22267031.154    10601482.974 4   8260882.244 1
  21492628.562     2569400.497 3   2002132.398 2
  23420474.841    -5032611.469 3  -3921486.066 1
  24461258.924    -1997246.337 2  -1556292.346 1
  22686293.008   -10168138.260 3  -7923191.684 2
  24514888.495    -2146038.885 2  -1672224.502 1
 91  4  7 21 54 45.0020000  0  6 18 19 11 16 02 06
  22276880.236    10653230.043 3   8301204.545 2
  21496065.082     2587441.134 3   2016190.043 2
  23422586.283    -5021532.943 3  -3912853.439 1
  24462253.935    -1991966.677 2  -1552178.360 1
  22682515.023   -10187955.546 3  -7938633.662 2
  24511209.143    -2165424.561 2  -1687330.067 1
 91  4  7 21 55  0.0020000  0  6 18 19 11 16 02 06
  22286744.909    10705074.883 3   8341603.047 2
  21499508.498     2605536.542 3   2030290.362 2
  23424724.702    -5010296.789 3  -3904097.966 1
  24463304.408    -1986548.401 2  -1547956.327 1
  22678762.820   -10207692.738 3  -7954013.207 2
  24507525.594    -2184799.022 2  -1702427.078 1
 91  4  7 21 55 15.0020000  0  6 18 19 11 16 02 06
  22296627.565    10757015.111 4   8382075.872 2
  21502957.311     2623684.900 3   2044431.942 2
  23426891.901    -4998904.867 3  -3895221.164 1
  24464351.281    -1980993.748 2  -1543628.046 1
  22675019.011   -10227351.578 3  -7969331.704 2
  24503837.246    -2204164.049 2  -1717516.579 1
 91  4  7 21 55 30.0020000  0  6 18 19 11 16 02 06
  22306530.010    10809054.391 3   8422625.878 2
  21506425.010     2641889.947 3   2058617.674 2
  23429087.579    -4987353.389 3  -3886219.966 1
  24465438.329    -1975299.105 2  -1539190.648 1
  22671295.890   -10246928.695 3  -7984586.540 1
  24500152.798    -2223516.159 2  -1732596.052 1
 91  4  7 21 55 45.0020000  0  6 18 19 11 16 02 06
  22316449.843    10861191.297 3   8463251.967 2
  21509900.504     2660150.604 3   2072846.753 2
  23431317.137    -4975643.602 3  -3877095.457 1
  24466537.667    -1969465.496 2  -1534645.050 1
  22667583.857   -10266425.037 3  -7999778.432 2
  24496462.352    -2242856.560 2  -1747666.407 1
 91  4  7 21 56  0.0020000  0  6 18 19 11 16 02 06
  22326390.661    10913425.701 3   8503954.025 2
  21513384.392     2678467.204 3   2087119.429 2
  23433575.771    -4963775.098 3  -3867847.238 1
  24467685.573    -1963492.833 2  -1529991.157 1
  22663890.715   -10285840.202 3  -8014907.040 1
  24492781.202    -2262185.031 2  -1762727.454 1
 91  4  7 21 56 15.0020000  0  6 18 19 11 16 02 06
  22336352.467    10965763.079 4   8544736.308 2
  21516878.175     2696845.160 3   2101439.909 2
  23435868.887    -4951742.361 3  -3858471.069 1
  24468844.272    -1957375.662 2  -1525224.297 1
  22660208.065   -10305168.786 3  -8029968.220 2
  24489123.733    -2281496.031 2  -1777774.858
 91  4  7 21 56 30.0020000  0  6 18 19 11 16 02 06
  22346331.657    11018201.972 3   8585597.686 2
  21520390.546     2715283.477 3   2115807.422 2
  23438188.378    -4939546.521 3  -3848967.811 1
  24470028.151    -1951114.914 2  -1520345.885 1
  22656549.697   -10324411.914 3  -8044962.787 1
  24485443.482    -2300790.816 2  -1792809.673 1
 91  4  7 21 56 45.0020000  0  6 18 19 11 16 02 06
  22356328.237    11070741.987 3   8626537.886 1
  21523911.607     2733782.188 3   2130221.989 2
  23440541.453    -4927187.537 3  -3839337.412 1
  24471252.506    -1944711.011 2  -1515355.817 1
  22652904.822   -10343569.585 3  -8059890.771 2
  24481770.425    -2320069.530 2  -1807831.951 1
 91  4  7 21 57  0.0020000  0  6 18 19 11 16 02 06
  22366344.902    11123384.339 3   8667557.820 2
  21527446.458     2752342.505 3   2144684.583 2
  23442922.103    -4914664.151 3  -3829578.913 1
  24472501.741    -1938162.502 2  -1510253.076 1
  22649273.732   -10362640.352 3  -8074751.032 2
  24478103.663    -2339330.867 2  -1822840.713 1
 91  4  7 21 57 15.0020000  0  6 18 19 11 16 02 06
  22376383.454    11176125.525 3   8708654.769 2
  21530985.210     2770961.294 3   2159192.719 2
  23445336.332    -4901979.616 3  -3819694.868 1
  24473762.668    -1931472.809 2  -1505040.386 1
  22645659.735   -10381627.516 3  -8089546.145 2
  24474443.794    -2358578.214 2  -1837838.564 1
 91  4  7 21 57 30.0020000  0  6 18 19 11 16 02 06
  22386436.991    11228963.664 3   8749827.252 2
  21534540.146     2789637.018 3   2173745.223 2
  23447779.642    -4889135.290 3  -3809686.290 1
  24475065.266    -1924643.276 2  -1499718.680 1
  22642064.323   -10400532.551 3  -8104277.279 1
  24470784.230    -2377813.087 2  -1852826.655 1
 91  4  7 21 57 45.0020000  0  6 18 19 11 16 02 06
  22396510.618    11281899.896 3   8791076.181 2
  21538107.678     2808371.001 3   2188343.132 2
  23450253.825    -4876129.911 3  -3799552.194 1
  24476399.042    -1917672.901 2  -1494287.234 1
  22638485.105   -10419354.132 3  -8118943.372 2
  24467123.462    -2397034.275 2  -1867804.145 1
 91  4  7 21 58  0.0020000  0  6 18 19 11 16 02 06
  22406603.130    11334936.603 3   8832403.412 2
  21541686.901     2827166.222 3   2202988.744 2
  23452761.592    -4862960.764 3  -3789290.534 2
  24477758.899    -1910558.879 2  -1488743.893 1
  22634914.873   -10438089.678 3  -8133542.429 2
  24463476.489    -2416239.090 2  -1882768.787 1
 91  4  7 21 58 15.0020000  0  6 18 19 11 16 02 06
  22416712.735    11388072.770 3   8873808.114 2
  21545266.721     2846021.878 3   2217681.469 2
  23455295.137    -4849628.618 3  -3778901.820 1
  24479136.746    -1903302.109 2  -1483089.281 1
  22631366.533   -10456739.869 3  -8148074.963 2
  24459830.711    -2435428.379 2  -1897721.455 1
 91  4  7 21 58 30.0020000  0  6 18 19 11 16 02 06
  22426844.519    11441303.477 3   8915286.503 2
  21548868.730     2864932.811 3   2232417.248 2
  23457867.957    -4836138.355 3  -3768389.932 1
  24480545.773    -1895907.844 2  -1477327.576 1
  22627837.972   -10475309.592 3  -8162544.825 2
  24456170.846    -2454607.180 2  -1912665.892 1
 91  4  7 21 58 45.0020000  0  6 18 19 11 16 02 06
  22436989.796    11494627.961 3   8956837.956 2
  21552474.931     2883898.826 3   2247195.956 2
  23460460.261    -4822490.394 3  -3757755.131 1
  24481975.181    -1888376.410 2  -1471458.904 1
  22624311.815   -10493799.330 3  -8176952.351 2
  24452521.172    -2473775.973 2  -1927602.461 1
 91  4  7 21 59  0.0020000  0  6 18 19 11 16 02 06
  22447157.558    11548047.842 3   8998463.752 1
  21556097.325     2902922.001 3   2262019.203 2
  23463089.141    -4808682.767 3  -3746995.945 1
  24483436.672    -1880706.089 2  -1465482.056 1
  22620810.538   -10512207.204 3  -8191296.064 2
  24448876.297    -2492932.871 2  -1942529.788 1
 91  4  7 21 59 15.0020000  0  6 18 19 11 16 02 06
  22457341.806    11601563.045 3   9040163.828 2
  21559730.509     2922002.564 3   2276887.168 2
  23465749.200    -4794715.253 3  -3736112.141 1
  24484924.242    -1872896.143 2  -1459396.384 1
  22617328.151   -10530532.831 3  -8205575.706 2
  24445241.613    -2512077.607 2  -1957447.700 1
 91  4  7 21 59 30.0020000  0  6 18 19 11 16 02 06
  22467543.443    11655174.747 3   9081939.088 1
  21563375.986     2941141.992 3   2291800.988 2
  23468438.636    -4780586.565 3  -3725102.759 1
  24486425.602    -1864945.526 2  -1453201.086 1
  22613855.654   -10548774.838 3  -8219790.196 2
  24441591.337    -2531209.040 2  -1972355.262 1
 91  4  7 21 59 45.0020000  0  6 18 19 11 16 02 06
  22477762.766    11708880.650 3   9123787.759 1
  21567020.263     2960338.196 3   2306759.068 2
  23471153.859    -4766298.861 3  -3713969.495 1
  24487978.527    -1856856.917 2  -1446898.278 1
  22610398.146   -10566935.286 3  -8233941.125 2
  24437958.154    -2550329.255 2  -1987254.016 1
 91  4  7 22  0  0.0020000  0  6 18 19 11 16 02 06
  22488000.683    11762682.010 3   9165710.797 2
  21570686.724     2979592.876 3   2321762.701 2
  23473904.755    -4751850.383 3  -3702710.921 1
  24489535.946    -1848628.248 2  -1440486.407 1
  22606955.632   -10585012.602 3  -8248027.262 1
  24434313.576    -2569436.587 2  -2002142.725 1
 91  4  7 22  0 15.0020000  0  6 18 19 11 16 02 06
  22498259.578    11816574.989 3   9207705.245 2
  21574361.879     2998902.278 3   2336808.982 2
  23476683.829    -4737244.891 3  -3691330.019 1
  24491135.040    -1840263.482 2  -1433968.421 1
  22603529.601   -10603010.586 3  -8262051.599 2
  24430687.586    -2588534.949 2  -2017024.497 1
 91  4  7 22  0 30.0020000  0  6 18 19 11 16 02 06
  22508531.667    11870562.880 3   9249773.646 2
  21578048.430     3018270.095 3   2351900.769 2
  23479493.183    -4722478.778 3  -3679823.958 1
  24492741.629    -1831759.065 2  -1427341.617 1
  22600122.760   -10620925.496 3  -8276011.211 2
  24427049.007    -2607620.813 2  -2031896.440 1
 91  4  7 22  0 45.0020000  0  6 18 19 11 16 02 06
  22518820.546    11924645.162 3   9291915.582 1
  21581742.170     3037696.279 3   2367038.052 2
  23482331.919    -4707552.203 3  -3668192.801 1
  24494389.589    -1823115.228 2  -1420606.178 1
  22596728.212   -10638757.418 3  -8289906.144 2
  24423422.415    -2626694.235 2  -2046758.831 1
 91  4  7 22  1  0.0020000  0  6 18 19 11 16 02 06
  22529133.703    11978821.746 3   9334131.009 2
  21585452.103     3057180.637 3   2382220.664 2
  23485205.133    -4692465.274 3  -3656436.726 1
  24496063.326    -1814332.049 2  -1413762.207 1
  22593350.151   -10656506.653 3  -8303736.657 2
  24419794.628    -2645755.508 2  -2061611.627 1
 91  4  7 22  1 15.0020000  0  6 18 19 11 16 02 06
  22539459.159    12033091.197 3   9376418.825 2
  21589170.130     3076722.465 3   2397448.054 2
  23488105.324    -4677218.655 3  -3644556.237 1
  24497758.955    -1805410.617 2  -1406810.441 1
  22589990.976   -10674173.719 3  -8317503.123 1
  24416178.830    -2664805.399 2  -2076455.657 1
 91  4  7 22  1 30.0020000  0  6 18 19 11 16 02 06
  22549805.593    12087452.717 3   9418778.352 1
  21592901.047     3096321.217 3   2412719.809 2
  23491036.995    -4661813.221 3  -3632552.020 1
  24499499.248    -1796351.603 2  -1399751.557 1
  22586644.094   -10691759.275 3  -8331206.087 2
  24412537.554    -2683844.743 2  -2091291.453 1
 91  4  7 22  1 45.0020000  0  6 18 19 11 16 02 06
  22560164.322    12141904.831 3   9461208.485 2
  21596638.858     3115975.509 3   2428034.827 2
  23493996.544    -4646250.408 3  -3620425.112 1
  24501237.447    -1787156.339 2  -1392586.428 1
  22583316.097   -10709264.955 3  -8344846.826 2
  24408919.958    -2702875.053 2  -2106120.106 1
 91  4  7 22  2  0.0020000  0  6 18 19 11 16 02 06
  22570545.238    12196449.106 3   9503710.431 2
  21600395.558     3135687.047 3   2443394.456 2
  23496989.374    -4630528.196 3  -3608174.052 1
  24503009.521    -1777823.220 2  -1385313.838 1
  22579995.295   -10726688.809 3  -8358423.782 2
  24405313.452    -2721894.404 2  -2120940.316 1
 91  4  7 22  2 15.0020000  0  6 18 19 11 16 02 06
  22580943.238    12251085.097 3   9546283.836 2
  21604148.358     3155455.802 3   2458798.672 2
  23500012.480    -4614646.841 3  -3595798.951 1
  24504820.866    -1768352.411 2  -1377934.025 1
  22576699.376   -10744030.982 3  -8371937.103 2
  24401693.461    -2740903.041 2  -2135752.201 1
 91  4  7 22  2 30.0020000  0  6 18 19 11 16 02 06
  22591355.932    12305811.654 3   9588927.814 1
  21607925.445     3175281.320 3   2474247.130 2
  23503062.569    -4598606.871 3  -3583300.265 1
  24506627.714    -1758744.414 2  -1370447.248 1
  22573409.155   -10761292.077 3  -8385387.231 2
  24398076.763    -2759901.539 2  -2150556.075 1
 91  4  7 22  2 45.0020000  0  6 18 19 11 16 02 06
  22601785.111    12360629.112 3   9631642.636 1
  21611707.928     3195164.171 3   2489740.261 2
  23506146.532    -4582407.959 3  -3570677.698 1
  24508503.517    -1748999.331 2  -1362853.667 1
  22570144.416   -10778471.572 3  -8398773.787 2
  24394456.467    -2778889.618 2  -2165351.920 1
 91  4  7 22  3  0.0020000  0  6 18 19 11 16 02 06
  22612236.474    12415533.717 3   9674425.360 2
  21615504.498     3215100.572 3   2505275.096 2
  23509259.577    -4566053.809 3  -3557934.224 1
  24510381.418    -1739120.637 2  -1355156.099 1
  22566888.667   -10795573.207 3  -8412099.663 2
  24390849.367    -2797870.977 2  -2180142.524 1
 91  4  7 22  3 15.0020000  0  6 18 19 11 16 02 06
  22622697.134    12470524.224 3   9717275.018 1
  21619306.167     3235089.675 3   2520851.023 2
  23512399.303    -4549545.401 3  -3545070.506 1
  24512279.404    -1729109.549 2  -1347355.175 1
  22563647.612   -10812597.780 3  -8425365.523 1
  24387244.663    -2816846.522 2  -2194928.565 1
 91  4  7 22  3 30.0020000  0  6 18 19 11 16 02 06
  22633181.774    12525604.170 3   9760194.345 1
  21623120.126     3255135.097 3   2536470.833 2
  23515576.207    -4532879.016 3  -3532083.700 1
  24514218.162    -1718962.535 2  -1339448.467 1
  22560425.744   -10829541.780 3  -8438568.558 2
  24383624.668    -2835812.765 2  -2209707.387 1
 91  4  7 22  3 45.0020000  0  6 18 19 11 16 02 06
  22643679.306    12580776.914 3   9803185.996 1
  21626945.475     3275240.799 3   2552137.607 2
  23518777.087    -4516050.980 3  -3518970.933 1
  24516176.705    -1708675.826 2  -1331432.963 1
  22557218.860   -10846401.310 3  -8451705.795 2
  24380020.862    -2854765.973 2  -2224476.021 1
 91  4  7 22  4  0.0020000  0  6 18 19 11 16 02 06
  22654196.927    12636039.520 3   9846247.686 1
  21630788.515     3295404.005 3   2567849.181 2
  23522006.455    -4499064.040 3  -3505734.358 1
  24518151.437    -1698252.310 2  -1323310.728 1
  22554022.774   -10863179.098 3  -8464779.325 2
  24376418.858    -2873708.825 2  -2239236.587 1
 91  4  7 22  4 15.0020000  0  6 18 19 11 16 02 06
  22664729.233    12691391.775 3   9889379.214 1
  21634630.656     3315624.919 3   2583605.726 2
  23525269.393    -4481918.043 3  -3492373.809 1
  24520163.342    -1687691.766 2  -1315081.753 1
  22550845.273   -10879875.040 3  -8477789.083 1
  24372816.251    -2892641.243 2  -2253989.039 1
 91  4  7 22  4 30.0020000  0  6 18 19 11 16 02 06
  22675281.929    12746835.627 3   9932582.112 2
  21638490.483     3335905.646 3   2599408.887 2
  23528564.413    -4464611.053 3  -3478887.839 1
  24522204.930    -1676992.133 2  -1306744.431 1
  22547685.161   -10896487.092 3  -8490733.471 2
  24369213.043    -2911561.387 2  -2268731.895 1
 91  4  7 22  4 45.0020000  0  6 18 19 11 16 02 06
  22685850.213    12802369.389 3   9975855.088 1
  21642361.705     3356244.836 3   2615257.607 2
  23531886.712    -4447144.388 3  -3465277.445 1
  24524267.503    -1666155.553 2  -1298300.377 1
  22544540.937   -10913016.808 3  -8503613.710 2
  24365614.935    -2930470.564 2  -2283466.241 1
 91  4  7 22  5  0.0020000  0  6 18 19 11 16 02 06
  22696434.084    12857993.504 3  10019198.461 1
  21646245.818     3376643.163 3   2631152.401 2
  23535244.391    -4429517.496 3  -3451542.191 1
  24526353.759    -1655181.035 2  -1289748.781 1
  22541412.004   -10929463.475 3  -8516429.217 2
  24362012.329    -2949368.335 2  -2298191.656 1
 91  4  7 22  5 15.0020000  0  6 18 19 11 16 02 06
  22707033.547    12913708.490 3  10062612.630 1
  21650133.224     3397101.679 3   2647094.102 2
  23538625.148    -4411729.353 3  -3437681.304 1
  24528462.797    -1644067.466 2  -1281088.927 1
  22538297.759   -10945825.842 3  -8529179.047 2
  24358426.213    -2968253.644 2  -2312907.451 1
 91  4  7 22  5 30.0020000  0  6 18 19 11 16 02 06
  22717655.495    12969511.208 3  10106095.175 1
  21654040.119     3417617.698 3   2663080.614 2
  23542037.687    -4393783.039 3  -3423697.150 1
  24530606.914    -1632818.331 2  -1272323.364 1
  22535201.803   -10962106.934 3  -8541865.553 2
  24354840.394    -2987129.546 2  -2327615.868 1
 91  4  7 22  5 45.0020000  0  6 18 19 11 16 02 06
  22728287.332    13025401.614 3  10149646.039 1
  21657954.211     3438191.109 3   2679111.834 2
  23545484.999    -4375678.391 3  -3409589.622 1
  24532772.014    -1621433.154 2  -1263451.874 1
  22532116.940   -10978306.726 3  -8554488.694 2
  24351246.181    -3005995.801 2  -2342316.680 1
 91  4  7 22  6  0.0020000  0  6 18 19 11 16 02 06
  22738942.557    13081378.049 3  10193263.955 2
  21661879.695     3458820.783 3   2695186.900 2
  23548964.690    -4357416.819 3  -3395359.811 1
  24534963.199    -1609913.603 2  -1254475.637 1
  22529048.564   -10994426.538 3  -8567049.519 2
  24347647.475    -3024853.820 2  -2357011.169 1
 91  4  7 22  6 15.0020000  0  6 18 19 11 16 02 06
  22749610.970    13137437.813 3  10236946.789 1
  21665813.571     3479504.268 3   2711303.889 2
  23552466.268    -4339000.932 3  -3381009.751 1
  24537186.457    -1598262.555 2  -1245396.968 1
  22525995.478   -11010468.883 3  -8579549.979 2
  24344066.154    -3043706.299 2  -2371701.402 1
 91  4  7 22  6 30.0020000  0  6 18 19 11 16 02 06
  22760294.674    13193580.596 3  10280694.303 2
  21669766.931     3500241.663 3   2727462.892 2
  23556003.820    -4320430.551 3  -3366539.332 1
  24539428.308    -1586479.693 2  -1236215.504 1
  22522956.483   -11026433.756 3  -8591990.070 2
  24340492.929    -3062553.016 2  -2386386.977 1
 91  4  7 22  6 45.0020000  0  6 18 19 11 16 02 06
  22770993.669    13249807.047 3  10324507.016 2
  21673719.698     3521033.962 3   2743664.686 2
  23559561.457    -4301704.650 3  -3351947.703 1
  24541687.841    -1574563.943 2  -1226930.500 1
  22519930.075   -11042320.102 3  -8604368.975 2
  24336897.818    -3081393.368 2  -2401067.800 1
 91  4  7 22  7  0.0020000  0  6 18 19 11 16 02 06
  22781710.048    13306113.501 3  10368382.071 1
  21677688.348     3541877.701 3   2759906.548 2
  23563158.667    -4282826.922 3  -3337237.774 1
  24543970.465    -1562519.230 2  -1217545.083 1
  22516924.955   -11058131.290 3  -8616689.317 2
  24333320.092    -3100230.507 2  -2415745.900 1
 91  4  7 22  7 15.0020000  0  6 18 19 11 16 02 06
  22792437.522    13362501.291 3  10412320.516 1
  21681663.595     3562774.714 3   2776189.935 2
  23566777.161    -4263795.813 3  -3322408.313 1
  24546291.457    -1550344.220 2  -1208058.096 1
  22513930.629   -11073865.806 3  -8628949.918 2
  24329728.880    -3119063.103 2  -2430420.619 1
 91  4  7 22  7 30.0020000  0  6 18 19 11 16 02 06
  22803181.184    13418969.087 3  10456321.296 2
  21685648.736     3583724.167 3   2792514.190 2
  23570428.632    -4244612.374 3  -3307460.199 1
  24548638.232    -1538039.920 2  -1198470.350 1
  22510951.292   -11089524.850 3  -8641151.706 2
  24326143.960    -3137892.154 2  -2445092.518 1
 91  4  7 22  7 45.0020000  0  6 18 19 11 16 02 06
  22813946.132    13475517.930 3  10500385.221 1
  21689644.671     3604726.843 3   2808879.899 2
  23574102.588    -4225275.543 3  -3292392.523 1
  24551008.090    -1525605.544 2  -1188781.243 1
  22507986.945   -11105107.232 3  -8653293.758 2
  24322569.536    -3156716.600 2  -2459760.878 1
 91  4  7 22  8  0.0020000  0  6 18 19 11 16 02 06
  22824722.475    13532147.165 3  10544511.792 1
  21693655.895     3625782.529 3   2825286.927 2
  23577813.717    -4205785.710 3  -3277205.615 1
  24553401.034    -1513041.358 2  -1178990.994 1
  22505035.489   -11120613.284 3  -8665376.336 2
  24318984.917    -3175536.854 2  -2474425.912 1
 91  4  7 22  8 15.0020000  0  6 18 19 11 16 02 06
  22835509.305    13588857.493 3  10588701.557 2
  21697670.117     3646892.373 3   2841736.138 2
  23581553.329    -4186141.957 3  -3261898.804 1
  24555814.063    -1500346.281 2  -1169098.833 1
  22502098.421   -11136042.059 3  -8677398.692 2
  24315396.703    -3194352.038 2  -2489086.997
 91  4  7 22  8 30.0020000  0  6 18 19 11 16 02 06
  22846317.425    13645649.389 3  10632954.890 1
  21701695.730     3668057.422 3   2858228.380 2
  23585320.221    -4166343.294 3  -3246471.263 1
  24558264.867    -1487519.739 2  -1159104.055 1
  22499176.945   -11151392.488 3  -8689360.004 2
  24311821.977    -3213161.086 2  -2503743.292 1
 91  4  7 22  8 45.0020000  0  6 18 19 11 16 02 06
  22857138.732    13702519.403 3  10677269.090 1
  21705733.632     3689274.522 3   2874761.184 2
  23589116.795    -4146393.009 3  -3230925.582 1
  24560725.562    -1474565.035 2  -1149009.558 1
  22496269.259   -11166667.697 3  -8701262.698 2
  24308245.451    -3231967.311 2  -2518397.440 1
 91  4  7 22  9  0.0020000  0  6 18 19 11 16 02 06
  22867982.825    13759469.516 3  10721645.693 1
  21709783.531     3710545.591 3   2891336.038 2
  23592946.943    -4126289.165 3  -3215260.241 1
  24563217.139    -1461480.054 2  -1138813.554 1
  22493381.056   -11181865.799 3  -8713105.308 2
  24304665.630    -3250768.743 2  -2533047.883 1
 91  4  7 22  9 15.0020000  0  6 18 19 11 16 02 06
  22878833.811    13816495.458 3  10766081.403 1
  21713839.720     3731866.882 3   2907950.014 2
  23596800.776    -4106035.708 3  -3199478.313 1
  24565727.902    -1448268.982 2  -1128519.252 1
  22490497.953   -11196990.697 3  -8724890.894 2
  24301088.506    -3269569.248 2  -2547697.522 1
 91  4  7 22  9 30.0020000  0  6 18 19 11 16 02 06
  22889697.091    13873594.167 3  10810573.799 1
  21717905.207     3753235.693 3   2924601.034 2
  23600680.090    -4085635.484 3  -3183582.019 1
  24568262.944    -1434934.748 2  -1118128.995 1
  22487635.533   -11212045.013 3  -8736621.479 2
  24297505.985    -3288371.736 2  -2562348.704 1
 91  4  7 22  9 45.0020000  0  6 18 19 11 16 02 06
  22900576.861    13930767.742 3  10855124.527 1
  21721979.688     3774654.389 3   2941290.924 2
  23604590.282    -4065086.203 3  -3167569.593 1
  24570824.374    -1421475.036 2  -1107640.895 1
  22484782.409   -11227026.680 3  -8748295.426 2
  24293932.760    -3307173.955 2  -2576999.690 1
 91  4  7 22 10  0.0020000  0  6 18 19 11 16 02 06
  22911470.417    13988019.000 3  10899735.812 1
  21726068.257     3796125.857 3   2958021.926 2
  23608529.556    -4044385.006 3  -3151438.798 1
  24573402.888    -1407887.037 2  -1097052.936 1
  22481946.971   -11241932.556 3  -8759910.333 2
  24290353.236    -3325972.862 2  -2591648.123 1
 91  4  7 22 10 15.0020000  0  6 18 19 11 16 02 06
  22922384.062    14045344.702 3  10944405.086 1
  21730160.124     3817647.333 3   2974791.898 2
  23612495.209    -4023534.907 3  -3135191.950 1
  24576012.882    -1394173.963 2  -1086367.451 1
  22479124.424   -11256765.597 3  -8771468.485 2
  24286777.914    -3344771.432 2  -2606296.261 1
 91  4  7 22 10 30.0020000  0  6 18 19 11 16 02 06
  22933301.905    14102745.539 3  10989132.896 1
  21734273.877     3839219.826 3   2991601.619 2
  23616491.741    -4002534.969 3  -3118828.364 1
  24578646.556    -1380334.792 2  -1075583.693 1
  22476316.868   -11271524.792 3  -8782969.099 2
  24283196.893    -3363568.779 2  -2620943.484 1
 91  4  7 22 10 45.0020000  0  6 18 19 11 16 02 06
  22944237.734    14160224.185 3  11033921.342 1
  21738383.129     3860846.545 3   3008453.604 2
  23620518.257    -3981382.211 3  -3102345.692 1
  24581318.306    -1366366.779 2  -1064699.513 1
  22473523.402   -11286207.247 3  -8794409.922 1
  24279624.568    -3382361.738 2  -2635587.254 1
 91  4  7 22 11  0.0020000  0  6 18 19 11 16 02 06
  22955196.047    14217779.181 3  11078769.287 1
  21742507.976     3882526.432 3   3025347.018 2
  23624574.446    -3960077.751 3  -3085744.819 1
  24583990.057    -1352270.907 2  -1053715.860 1
  22470742.230   -11300814.132 3  -8805791.839 2
  24276048.041    -3401151.618 2  -2650228.645 1
 91  4  7 22 11 15.0020000  0  6 18 19 11 16 02 06
  22966161.258    14275412.300 3  11123678.112 1
  21746642.714     3904261.506 3   3042283.437 2
  23628655.821    -3938619.763 3  -3069024.316 1
  24586703.780    -1338045.421 2  -1042631.042 1
  22467980.240   -11315343.277 3  -8817113.186 2
  24272471.217    -3419936.535 2  -2664866.109 1
 91  4  7 22 11 30.0020000  0  6 18 19 11 16 02 06
  22977140.555    14333119.858 3  11168644.930 1
  21750797.837     3926048.211 3   3059260.077 2
  23632767.476    -3917011.946 3  -3052187.041 1
  24589432.789    -1323694.215 2  -1031448.413 1
  22465227.547   -11329798.373 3  -8828376.838 2
  24268903.389    -3438719.972 2  -2679502.525 1
 91  4  7 22 11 45.0020000  0  6 18 19 11 16 02 06
  22988138.743    14390904.794 3  11213672.051 1
  21754944.267     3947889.992 3   3076279.645 2
  23636912.108    -3895250.953 3  -3035230.425 1
  24592185.185    -1309214.187 2  -1020165.220 1
  22462490.742   -11344176.065 3  -8839580.155 2
  24265324.764    -3457498.640 2  -2694135.149 1
 91  4  7 22 12  0.0020000  0  6 18 19 11 16 02 06
  22999150.720    14448770.194 3  11258761.882 1
  21759119.776     3969790.037 3   3093344.612 2
  23641078.622    -3873333.667 3  -3018152.016 1
  24594967.858    -1294602.091 2  -1008779.251 1
  22459770.126   -11358472.997 3  -8850720.563 1
  24261758.433    -3476269.537 2  -2708761.767 1
 91  4  7 22 12 15.0020000  0  6 18 19 11 16 02 06
  23010172.587    14506711.103 3  11303910.522 1
  21763292.285     3991743.900 3   3110451.502 2
  23645276.617    -3851264.753 3  -3000955.442 1
  24597770.319    -1279862.519 2   -997293.946 1
  22457064.797   -11372693.944 3  -8861801.742 2
  24258181.011    -3495036.995 2  -2723385.657 1
 91  4  7 22 12 30.0020000  0  6 18 19 11 16 02 06
  23021215.443    14564731.105 3  11349120.820 1
  21767481.886     4013755.481 3   3127603.370 2
  23649508.186    -3829040.396 3  -2983637.768 1
  24600601.556    -1264991.872 2   -985706.375 1
  22454374.462   -11386835.118 3  -8872820.776 2
  24254608.686    -3513797.287 2  -2738004.010 1
 91  4  7 22 12 45.0020000  0  6 18 19 11 16 02 06
  23032267.892    14622825.233 3  11394388.861 1
  21771678.380     4035820.125 3   3144796.585 2
  23653768.538    -3806665.531 3  -2966202.801 1
  24603454.684    -1249995.050 2   -974020.593 1
  22451696.115   -11400901.235 3  -8883781.331 2
  24251039.353    -3532555.354 2  -2752620.570 1
 91  4  7 22 13  0.0020000  0  6 18 19 11 16 02 06
  23043341.625    14680992.660 3  11439714.016 1
  21775891.364     4057937.660 3   3162031.024 2
  23658052.872    -3784140.423 3  -2948650.772 1
  24606333.892    -1234872.267 2   -962236.676 1
  22449035.455   -11414892.442 3  -8894683.500 2
  24247471.224    -3551311.246 2  -2767235.493 1
 91  4  7 22 13 15.0020000  0  6 18 19 11 16 02 06
  23054426.754    14739235.689 3  11485098.068 1
  21780105.845     4080110.363 3   3179308.456 2
  23662366.885    -3761462.928 3  -2930979.984 2
  24609232.582    -1219621.405 2   -950352.940 1
  22446384.391   -11428806.595 3  -8905525.633 2
  24243902.794    -3570062.845 2  -2781847.044 1
 91  4  7 22 13 30.0020000  0  6 18 19 11 16 02 06
  23065518.474    14797550.362 3  11530537.998 1
  21784337.117     4102334.687 3   3196626.095 2
  23666713.873    -3738636.555 3  -2913193.182 1
  24612165.453    -1204246.288 2   -938372.357 1
  22443754.613   -11442647.304 3  -8916310.545 2
  24240334.364    -3588813.771 2  -2796458.078 1
 91  4  7 22 13 45.0020000  0  6 18 19 11 16 02 06
  23076632.082    14855936.640 3  11576033.640 1
  21788575.282     4124610.766 3   3213984.077 2
  23671080.053    -3715661.479 3  -2895290.538 1
  24615107.015    -1188747.211 2   -926295.245 1
  22441132.028   -11456414.468 3  -8927038.148 2
  24236772.234    -3607563.975 2  -2811068.528 1
 91  4  7 22 14  0.0020000  0  6 18 19 11 16 02 06
  23087754.982    14914396.324 3  11621586.540 1
  21792827.839     4146940.867 3   3231384.141 2
  23675484.004    -3692535.285 3  -2877270.140 2
  24618078.259    -1173121.644 2   -914119.531 1
  22438528.329   -11470105.630 3  -8937706.510 2
  24233199.607    -3626311.172 2  -2825676.620 1
 91  4  7 22 14 15.0020000  0  6 18 19 11 16 02 06
  23098892.269    14972928.791 3  11667196.128 1
  21797083.393     4169324.617 3   3248826.015 2
  23679917.336    -3669258.734 3  -2859132.572 1
  24621084.578    -1157370.461 2   -901845.905 1
  22435934.525   -11483721.381 3  -8948316.141 2
  24229632.974    -3645055.882 2  -2840282.816 1
 91  4  7 22 14 30.0020000  0  6 18 19 11 16 02 06
  23110048.446    15031531.604 3  11712860.558 1
  21801356.035     4191759.865 3   3266308.018 2
  23684373.751    -3645834.166 3  -2840879.663 1
  24624107.684    -1141496.156 2   -889476.360 1
  22433360.810   -11497264.220 3  -8958868.950 2
  24226070.840    -3663800.409 2  -2854888.851 1
 91  4  7 22 14 45.0020000  0  6 18 19 11 16 02 06
  23121210.618    15090206.780 3  11758581.381 1
  21805632.874     4214249.438 3   3283832.352 2
  23688859.844    -3622258.903 3  -2822509.333 1
  24627142.186    -1125496.260 2   -877008.972 1
  22430795.183   -11510731.353 3  -8969362.755 2
  24222501.511    -3682542.100 2  -2869492.706 1
 91  4  7 22 15  0.0020000  0  6 18 19 11 16 02 06
  23132396.774    15148954.893 3  11804359.030 1
  21809922.604     4236793.836 3   3301399.394 2
  23693375.319    -3598532.509 3  -2804021.239 1
  24630211.757    -1109370.084 2   -864443.183 1
  22428251.744   -11524122.015 3  -8979796.974 2
  24218935.480    -3701280.271 2  -2884093.797 1
 91  4  7 22 15 15.0020000  0  6 18 19 11 16 02 06
  23143586.827    15207776.809 3  11850194.164 1
  21814225.226     4259394.289 3   3319010.137 2
  23697916.573    -3574653.959 3  -2785414.565 1
  24633311.915    -1093116.636 2   -851778.232 1
  22425716.698   -11537435.204 3  -8990170.831 2
  24215362.854    -3720013.929 2  -2898691.377 1
 91  4  7 22 15 30.0020000  0  6 18 19 11 16 02 06
  23154791.271    15266668.388 3  11896083.587 1
  21818541.040     4282046.928 3   3336661.530 2
  23702485.110    -3550627.201 3  -2766692.433 1
  24636426.757    -1076740.119 2   -839017.342 1
  22423196.346   -11550674.723 3  -9000487.291 2
  24211809.414    -3738746.906 2  -2913288.488 1
 91  4  7 22 15 45.0020000  0  6 18 19 11 16 02 06
  23166009.807    15325632.990 3  11942029.908 1
  21822856.849     4304755.605 3   3354356.591 2
  23707090.222    -3526448.660 3  -2747852.021 1
  24639563.783    -1060237.219 2   -826158.042 1
  22420693.675   -11563836.939 3  -9010743.502 2
  24208242.183    -3757475.574 2  -2927882.131 1
 91  4  7 22 16  0.0020000  0  6 18 19 11 16 02 06
  23177248.724    15384675.896 3  11988037.256 1
  21827193.948     4327525.903 3   3372099.676 2
  23711718.417    -3502112.960 3  -2728889.147 1
  24642727.795    -1043602.179 2   -813195.690 1
  22418201.203   -11576916.457 3  -9020935.276 2
  24204674.953    -3776194.477 2  -2942468.223 1
 91  4  7 22 16 15.0020000  0  6 18 19 11 16 02 06
  23188502.335    15443793.019 3  12034102.440 1
  21831536.740     4350353.904 3   3389887.712 2
  23716381.390    -3477624.151 3  -2709806.949 1
  24645911.888    -1026839.502 2   -800133.959 1
  22415726.414   -11589917.136 3  -9031065.619 2
  24201120.012    -3794907.683 2  -2957049.828 1
 91  4  7 22 16 30.0020000  0  6 18 19 11 16 02 06
  23199761.041    15502982.711 3  12080224.174 1
  21835893.327     4373238.495 3   3407719.863 2
  23721072.244    -3452983.450 3  -2690606.418 1
  24649133.460    -1009950.129 2   -786973.417 1
  22413266.618   -11602840.304 4  -9041135.562 2
  24197556.979    -3813616.161 2  -2971627.792 1
 91  4  7 22 16 45.0020000  0  6 18 19 11 16 02 06
  23211038.035    15562247.365 3  12126404.306 1
  21840252.609     4396182.333 3   3425598.159 2
  23725789.779    -3428188.359 3  -2671285.572 1
  24652368.521     -992931.650 2   -773712.328 1
  22410822.113   -11615683.365 3  -9051143.078 2
  24193996.942    -3832317.533 2  -2986200.203 1
 91  4  7 22 17  0.0020000  0  6 18 19 11 16 02 06
  23222332.112    15621586.600 3  12172642.543 1
  21844631.977     4419185.694 3   3443522.862 2
  23730536.391    -3403238.942 3  -2651844.481 2
  24655637.759     -975784.036 2   -760350.652 1
  22408397.689   -11628446.022 3  -9061087.960 2
  24190439.305    -3851011.641 2  -3000766.986 1
 91  4  7 22 17 15.0020000  0  6 18 19 11 16 02 06
  23233638.488    15680998.631 3  12218937.534 1
  21849019.437     4442246.666 3   3461492.444 2
  23735314.182    -3378137.117 3  -2632284.628 1
  24658927.679     -958509.177 2   -746889.769 1
  22405982.862   -11641130.137 3  -9070971.629 2
  24186881.668    -3869700.207 2  -3015329.446 1
 91  4  7 22 17 30.0020000  0  6 18 19 11 16 02 06
  23244957.449    15740479.118 3  12265285.842 1
  21853420.692     4465361.356 3   3479503.875 2
  23740119.558    -3352887.050 3  -2612609.255 1
  24662237.091     -941111.464 2   -733333.193 1
  22403581.524   -11653739.885 4  -9080797.345 2
  24183326.130    -3888387.547 2  -3029890.917 1
 91  4  7 22 17 45.0020000  0  6 18 19 11 16 02 06
  23256286.907    15800031.282 3  12311690.019 1
  21857826.741     4488533.581 3   3497560.146 2
  23744950.411    -3327484.956 3  -2592815.421 1
  24665565.083     -923587.554 2   -719678.207 1
  22401193.676   -11666271.350 3  -9090562.070 2
  24179778.688    -3907069.561 2  -3044448.270 1
 91  4  7 22 18  0.0020000  0  6 18 19 11 16 02 06
  23267635.853    15859651.431 3  12358147.126 1
  21862250.777     4511759.434 3   3515658.200 2
  23749814.546    -3301934.888 3  -2572906.273 1
  24668931.452     -905941.351 2   -705927.970 1
  22398827.714   -11678728.669 3  -9100269.019 2
  24176212.056    -3925750.425 2  -3059004.686 1
 91  4  7 22 18 15.0020000  0  6 18 19 11 16 02 06
  23278991.988    15919343.563 3  12404660.383 1
  21866679.311     4535043.575 3   3533801.682 2
  23754701.462    -3276232.372 3  -2552878.360 1
  24672303.218     -888168.350 2   -692078.984 1
  22396471.346   -11691107.215 4  -9109914.576 2
  24172661.015    -3944425.526 2  -3073556.607 1
 91  4  7 22 18 30.0020000  0  6 18 19 11 16 02 06
  23290364.914    15979108.416 3  12451230.252 1
  21871124.034     4558387.142 3   3551991.463 2
  23759625.852    -3250376.446 3  -2532730.889 1
  24675714.858     -870267.542 2   -678130.313 1
  22394130.268   -11703405.844 3  -9119497.881 2
  24169107.575    -3963093.636 2  -3088103.163 1
 91  4  7 22 18 45.0020000  0  6 18 19 11 16 02 06
  23301751.635    16038946.760 3  12497857.404 1
  21875576.252     4581791.379 3   3570228.520 2
  23764574.825    -3224366.207 3  -2512463.191 2
  24679147.181     -852238.418 2   -664081.728 1
  22391806.576   -11715623.590 4  -9129018.139 2
  24165558.331    -3981754.048 2  -3102643.643 1
 91  4  7 22 19  0.0020000  0  6 18 19 11 16 02 06
  23313150.941    16098850.586 3  12544535.606 1
  21880044.358     4605248.686 3   3588506.929 2
  23769552.282    -3198209.612 3  -2492081.432 1
  24682602.891     -834088.824 2   -649939.305 1
  22389496.075   -11727768.418 4  -9138481.598 2
  24162009.088    -4000414.339 2  -3117184.051 1
 91  4  7 22 19 15.0020000  0  6 18 19 11 16 02 06
  23324567.938    16158825.000 3  12591268.812 1
  21884514.267     4628764.352 3   3606830.808 2
  23774558.217    -3171901.400 3  -2471581.521 1
  24686078.084     -815813.483 2   -635698.835 1
  22387197.266   -11739834.854 4  -9147883.971 2
  24158455.949    -4019069.290 2  -3131720.306 1
 91  4  7 22 19 30.0020000  0  6 18 19 11 16 02 06
  23335993.329    16218870.065 3  12638057.033 1
  21889000.962     4652338.624 3   3625200.364 2
  23779593.530    -3145441.398 3  -2450963.347 1
  24689583.257     -797412.231 2   -621360.265 1
  22384916.444   -11751822.436 4  -9157224.877 2
  24154910.902    -4037718.646 2  -3146252.222 1
 91  4  7 22 19 45.0020000  0  6 18 19 11 16 02 06
  23347430.110    16278981.618 3  12684897.108 1
  21893493.049     4675967.949 3   3643612.817 2
  23784654.625    -3118833.389 3  -2430229.857 2
  24693108.219     -778889.025 2   -606926.699 1
  22382651.214   -11763735.012 4  -9166507.356 2
  24151359.264    -4056365.878 2  -3160782.449 1
 91  4  7 22 20  0.0020000  0  6 18 19 11 16 02 06
  23358880.384    16339162.484 3  12731791.169 1
  21898002.827     4699655.302 3   3662070.478 2
  23789750.800    -3092074.436 3  -2409378.726 1
  24696652.663     -760240.876 2   -592395.716 1
  22380397.074   -11775569.729 4  -9175729.160 2
  24147812.119    -4075008.155 2  -3175308.873 1
 91  4  7 22 20 15.0020000  0  6 18 19 11 16 02 06
  23370347.747    16399413.375 3  12778739.771 1
  21902521.901     4723401.857 3   3680574.277 2
  23794870.654    -3065163.742 3  -2388409.350 1
  24700224.692     -741467.250 2   -577766.955 1
  22378162.420   -11787325.525 4  -9184889.469 2
  24144269.471    -4093644.425 2  -3189830.537 1
 91  4  7 22 20 30.0020000  0  6 18 19 11 16 02 06
  23381822.600    16459729.673 3  12825739.375 1
  21907053.862     4747203.137 3   3699120.713 2
  23800019.289    -3038105.852 3  -2367325.282 1
  24703823.699     -722572.289 2   -563043.704 1
  22375936.763   -11799006.927 4  -9193991.806 2
  24140723.526    -4112279.125 2  -3204351.026 1
 91  4  7 22 20 45.0020000  0  6 18 19 11 16 02 06
  23393315.143    16520111.737 3  12872790.198 1
  21911590.923     4771059.947 3   3717710.432 2
  23805193.108    -3010900.169 3  -2346126.053 1
  24707439.493     -703555.965 2   -548225.807 1
  22373731.487   -11810613.154 4  -9203035.558 2
  24137170.383    -4130911.718 2  -3218869.883 1
 91  4  7 22 21  0.0020000  0  6 18 19 11 16 02 06
  23404820.281    16580562.573 3  12919894.633 1
  21916144.767     4794975.544 3   3736345.951 2
  23810403.499    -2983543.639 3  -2324809.272 1
  24711083.474     -684415.053 2   -533310.875 1
  22371535.809   -11822140.989 4  -9212018.244 2
  24133629.537    -4149538.843 2  -3233384.428 1
 91  4  7 22 21 15.0020000  0  6 18 19 11 16 02 06
  23416333.507    16641080.822 3  12967051.583 1
  21920701.315     4818949.045 3   3755026.585 2
  23815636.680    -2956037.551 3  -2303375.968 1
  24714758.630     -665150.461 2   -518299.545 1
  22369354.820   -11833591.498 4  -9220940.664 2
  24130080.294    -4168161.710 2  -3247895.671 1
 91  4  7 22 21 30.0020000  0  6 18 19 11 16 02 06
  23427865.327    16701667.370 3  13014261.762 1
  21925275.846     4842981.701 3   3773753.315 2
  23820898.335    -2928380.648 3  -2281825.136 1
  24718437.380     -645761.390 2   -503191.248 1
  22367196.014   -11844963.433 4  -9229801.839 2
  24126545.739    -4186778.859 2  -3262402.505 1
 91  4  7 22 21 45.0020000  0  6 18 19 11 16 02 06
  23439406.735    16762316.978 3  13061521.066 1
  21929863.570     4867068.892 3   3792522.543 2
  23826191.771    -2900577.907 3  -2260160.679 1
  24722151.209     -626253.149 2   -487990.119 1
  22365044.101   -11856261.673 4  -9238605.630 2
  24123002.791    -4205395.278 2  -3276908.734 1
 91  4  7 22 22  0.0020000  0  6 18 19 11 16 02 06
  23450958.941    16823030.586 3  13108830.238 1
  21934457.889     4891211.495 3   3811334.958 2
  23831508.892    -2872628.706 3  -2238382.069 1
  24725892.619     -606624.858 2   -472695.381 1
  22362907.780   -11867485.291 4  -9247351.247 2
  24119465.540    -4224010.154 2  -3291413.762 1
 91  4  7 22 22 15.0020000  0  6 18 19 11 16 02 06
  23462521.935    16883807.756 3  13156188.939 1
  21939059.703     4915409.543 3   3830190.572 2
  23836859.586    -2844532.976 3  -2216489.300 1
  24729647.221     -586876.436 2   -457307.014 1
  22360787.348   -11878634.484 4  -9256038.865 2
  24115922.295    -4242623.321 2  -3305917.478 1
 91  4  7 22 22 30.0020000  0  6 18 19 11 16 02 06
  23474106.214    16944648.180 3  13203596.924 1
  21943675.609     4939663.064 3   3849089.401 2
  23842228.870    -2816290.852 3  -2194482.469 1
  24733427.003     -567008.225 2   -441825.425 1
  22358678.310   -11889709.196 4  -9264668.468 2
  24112373.353    -4261234.951 2  -3320419.969 1
 91  4  7 22 22 45.0020000  0  6 18 19 11 16 02 06
  23485695.593    17005553.105 3  13251055.189 1
  21948300.807     4963973.924 3   3868032.922 2
  23847632.928    -2787900.926 3  -2172360.433 1
  24737233.171     -547018.898 2   -426249.373 1
  22356585.156   -11900707.814 4  -9273238.755 2
  24108835.500    -4279843.104 2  -3334919.781 1
 91  4  7 22 23  0.0020000  0  6 18 19 11 16 02 06
  23497297.558    17066515.280 3  13298558.083 1
  21952939.794     4988334.998 3   3887015.561 2
  23853060.369    -2759370.473 3  -2150128.921 1
  24741057.922     -526915.951 2   -410584.735 1
  22354504.000   -11911637.471 4  -9281755.303 2
  24105295.850    -4298455.150 2  -3349422.559 1
 91  4  7 22 23 15.0020000  0  6 18 19 11 16 02 06
  23508905.822    17127533.176 3  13346104.347 1
  21957582.983     5012745.133 3   3906036.437 2
  23858517.793    -2730700.710 3  -2127788.862 1
  24744906.058     -506700.442 2   -394832.509 1
  22352435.133   -11922499.472 4  -9290219.134 2
  24101745.708    -4317072.367 2  -3363929.436 1
 91  4  7 22 23 30.0020000  0  6 18 19 11 16 02 06
  23520529.076    17188611.178 3  13393697.465 1
  21962238.457     5037208.977 3   3925099.156 2
  23863996.198    -2701887.322 3  -2105336.889 1
  24748769.784     -486367.787 2   -378988.941 1
  22350386.049   -11933289.136 4  -9298626.616 2
  24098212.056    -4335689.935 2  -3378436.539 1
 91  4  7 22 23 45.0020000  0  6 18 19 11 16 02 06
  23532162.224    17249747.389 3  13441335.948 1
  21966902.630     5061725.152 3   3944202.654 2
  23869509.384    -2672931.959 3  -2082774.282 1
  24752665.585     -465920.040 2   -363055.669 1
  22348345.364   -11944008.030 4  -9306978.937 2
  24094664.911    -4354309.576 2  -3392945.290 1
 91  4  7 22 24  0.0020000  0  6 18 19 11 16 02 06
  23543807.959    17310944.558 3  13489021.932 1
  21971584.789     5086296.780 3   3963349.368 2
  23875046.251    -2643831.550 3  -2060098.650 1
  24756574.281     -445354.055 2   -347030.351 1
  22346319.664   -11954653.044 4  -9315273.694 2
  24091125.562    -4372928.048 2  -3407453.100 1
 91  4  7 22 24 15.0020000  0  6 18 19 11 16 02 06
  23555462.091    17372199.920 3  13536753.248 1
  21976265.448     5110921.183 3   3982537.201 2
  23880610.995    -2614588.912 3  -2037312.196 1
  24760517.751     -424672.881 2   -330915.219 1
  22344307.157   -11965226.784 4  -9323512.931 2
  24087575.119    -4391548.037 2  -3421962.116 1
 91  4  7 22 24 30.0020000  0  6 18 19 11 16 02 06
  23567132.112    17433515.697 3  13584531.637 1
  21980965.293     5135600.998 3   4001768.216 2
  23886201.827    -2585201.884 3  -2014413.225 1
  24764463.620     -403874.264 2   -314708.526 1
  22342309.940   -11975726.814 4  -9331694.710 2
  24084033.972    -4410167.172 2  -3436470.475 1
 91  4  7 22 24 45.0020000  0  6 18 19 11 16 02 06
  23578811.429    17494890.188 3  13632355.807 1
  21985665.741     5160334.978 3   4021041.440 2
  23891823.235    -2555671.868 3  -1991402.818 1
  24768440.364     -382959.484 2   -298411.375 1
  22340325.314   -11986154.525 4  -9339820.150 2
  24080488.027    -4428786.524 2  -3450978.969 1
 91  4  7 22 25  0.0020000  0  6 18 19 11 16 02 06
  23590505.431    17556321.297 3  13680224.065 1
  21990382.975     5185121.375 3   4040355.501 2
  23897469.528    -2526000.789 3  -1968282.511 1
  24772458.486     -361930.468 2   -282025.204 1
  22338353.579   -11996511.650 4  -9347890.579 2
  24076940.280    -4447408.055 2  -3465489.141 1
 91  4  7 22 25 15.0020000  0  6 18 19 11 16 02 06
  23602202.434    17617809.778 3  13728137.068 1
  21995111.901     5209960.916 3   4059710.978 2
  23903143.999    -2496188.090 3  -1945051.848 1
  24776470.605     -340786.900 2   -265549.797 1
  22336398.631   -12006797.610 4  -9355905.563 2
  24073405.428    -4466031.077 2  -3480000.489 1
 91  4  7 22 25 30.0020000  0  6 18 19 11 16 02 06
  23613915.029    17679358.916 3  13776097.301 1
  21999852.519     5234857.621 3   4079110.989 2
  23908843.650    -2466230.142 3  -1921708.008 1
  24780521.101     -319525.325 2   -248982.349 1
  22334453.879   -12017008.758 4  -9363862.243 2
  24069856.486    -4484651.661 2  -3494509.969 1
 91  4  7 22 25 45.0020000  0  6 18 19 11 16 02 06
  23625637.213    17740966.678 3  13824103.185 1
  22004595.536     5259809.836 3   4098554.263 2
  23914573.285    -2436128.797 3  -1898252.420 1
  24784595.282     -298147.459 2   -232324.317 1
  22332525.014   -12027146.780 4  -9371761.947 2
  24066319.833    -4503271.701 2  -3509019.006 1
 91  4  7 22 26  0.0020000  0  6 18 19 11 16 02 06
  23637366.891    17802631.489 3  13872153.552 1
  22009355.641     5284816.384 3   4118039.863 2
  23920324.802    -2405885.393 3  -1874686.165 1
  24788679.056     -276654.794 2   -215576.873 1
  22330609.639   -12037212.964 4  -9379605.665 2
  24062772.688    -4521892.419 2  -3523528.587 1
 91  4  7 22 26 15.0020000  0  6 18 19 11 16 02 06
  23649125.053    17864357.655 3  13920251.742 1
  22014125.637     5309881.904 3   4137571.421 2
  23926108.699    -2375495.483 3  -1851005.699 1
  24792791.008     -255043.113 2   -198736.710 1
  22328707.160   -12047202.546 4  -9387389.708 2
  24059231.842    -4540509.023 2  -3538034.966 1
 91  4  7 22 26 30.0030000  0  6 18 19 11 16 02 06
  23660883.510    17926148.366 3  13968400.190 1
  22018910.625     5335007.027 3   4157149.445 2
  23931921.976    -2344958.216 3  -1827210.451 1
  24796916.151     -233312.084 2   -181803.513 1
  22326819.965   -12057117.279 4  -9395115.418 2
  24055687.693    -4559123.831 2  -3552539.873 1
 91  4  7 22 26 45.0030000  0  6 18 19 11 16 02 06
  23672645.568    17987994.610 3  14016591.968 1
  22023697.713     5360188.555 3   4176771.399 2
  23937755.937    -2314277.846 3  -1803303.670 1
  24801083.569     -211464.515 2   -164779.496 1
  22324948.360   -12066955.956 4  -9402781.867 2
  24052146.547    -4577734.406 2  -3567041.523 1
 91  4  7 22 27  0.0030000  0  6 18 19 11 16 02 06
  23684428.011    18049898.725 3  14064828.798 1
  22028502.185     5385426.675 3   4196437.451 2
  23943623.176    -2283454.065 3  -1779285.151 1
  24805269.570     -189500.981 2   -147665.063 1
  22323091.146   -12076720.796 4  -9410390.777 2
  24048608.393    -4596343.634 2  -3581542.127 1
 91  4  7 22 27 15.0030000  0  6 18 19 11 16 02 06
  23696217.051    18111859.035 3  14113109.410 1
  22033318.349     5410720.191 3   4216146.680 2
  23949516.494    -2252488.507 3  -1755156.180 1
  24809466.365     -167422.953 2   -130461.580 1
  22321244.425   -12086413.393 4  -9417943.394 2
  24045066.047    -4614952.689 2  -3596042.577 1
 91  4  7 22 27 30.0030000  0  6 18 19 11 16 02 06
  23708019.580    18173879.257 3  14161436.730 1
  22038140.512     5436072.695 3   4235901.863 2
  23955441.593    -2221377.635 3  -1730913.946 1
  24813693.140     -145227.291 2   -113166.233 1
  22319414.189   -12096029.966 4  -9425436.758 2
  24041525.799    -4633558.040 2  -3610540.186 1
 91  4  7 22 27 45.0030000  0  6 18 19 11 16 02 06
  23719829.303    18235958.626 3  14209810.118 1
  22042972.865     5461484.028 3   4255702.896 2
  23961384.378    -2190121.657 3  -1706558.653 1
  24817928.006     -122914.159 2    -95779.428 1
  22317599.846   -12105570.538 4  -9432870.919 2
  24037983.152    -4652159.894 2  -3625035.061 1
 91  4  7 22 28  0.0030000  0  6 18 19 11 16 02 06
  23731652.519    18298094.410 3  14258227.477 1
  22047824.410     5486951.910 3   4275547.986 2
  23967361.043    -2158723.303 3  -1682092.435 1
  24822203.048     -100486.315 2    -78303.283 1
  22315799.595   -12115037.586 4  -9440247.783 2
  24034448.898    -4670760.666 2  -3639529.081 1
 91  4  7 22 28 15.0030000  0  6 18 19 11 16 02 06
  23743494.023    18360289.242 3  14306690.815 1
  22052678.349     5512478.936 3   4295439.160 2
  23973361.985    -2127180.175 3  -1657513.380 1
  24826493.677      -77941.231 2    -60735.619 1
  22314011.632   -12124428.643 4  -9447565.440 2
  24030900.854    -4689357.563 2  -3654020.053 1
 91  4  7 22 28 30.0030000  0  6 18 19 11 16 02 06
  23755337.621    18422539.666 3  14355197.505 1
  22057548.775     5538062.141 3   4315374.117 2
  23979391.114    -2095495.330 3  -1632823.928 1
  24830803.794      -55282.281 2    -43079.503 1
  22312238.057   -12133746.662 4  -9454826.166 2
  24027369.598    -4707953.602 2  -3668510.378 1
 91  4  7 22 28 45.0030000  0  6 18 19 11 16 02 06
  23767196.514    18484848.019 3  14403749.307 1
  22062426.102     5563704.283 3   4335355.004 2
  23985447.522    -2063666.230 3  -1608022.030 1
  24835127.098      -32506.727 2    -25332.418 1
  22310477.976   -12142989.048 4  -9462027.981 2
  24023829.350    -4726546.234 2  -3682998.016 1
 91  4  7 22 29  0.0030000  0  6 18 19 11 16 02 06
  23779061.698    18547216.231 3  14452347.787 1
  22067320.814     5589407.762 3   4355383.682 2
  23991538.403    -2031690.786 3  -1583106.135 1
  24839492.379       -9612.546 2     -7492.814 1
  22308735.284   -12152153.772 4  -9469169.276 2
  24020298.394    -4745133.199 2  -3697481.295 1
 91  4  7 22 29 15.0030000  0  6 18 19 11 16 02 06
  23790938.277    18609637.690 3  14500987.719 1
  22072218.523     5615166.415 3   4375455.342 2
  23997646.075    -1999575.521 3  -1558081.258 1
  24843873.845       13393.762 2     10434.103
  22307005.780   -12161247.072 4  -9476254.899 2
  24016755.747    -4763720.542 2  -3711964.866 1
 91  4  7 22 29 30.0030000  0  6 18 19 11 16 02 06
  23802832.241    18672114.711 3  14549670.994 1
  22077134.219     5640982.618 3   4395571.852 2
  24003783.726    -1967318.284 3  -1532945.774 1
  24848278.394       36514.036 2     28449.800 1
  22305289.171   -12170266.428 4  -9483282.910 2
  24013220.595    -4782306.006 2  -3726446.919 1
 91  4  7 22 29 45.0030000  0  6 18 19 11 16 02 06
  23814732.203    18734644.475 3  14598395.313 1
  22082057.409     5666854.271 3   4415731.586 2
  24009946.262    -1934921.613 3  -1507701.620 1
  24852697.936       59745.831 2     46552.438 1
  22303586.048   -12179214.416 4  -9490255.312 2
  24009679.143    -4800892.135 2  -3740929.502 1
 91  4  7 22 30  0.0030000  0  6 18 19 11 16 02 06
  23826642.657    18797229.391 3  14647162.630 1
  22086988.998     5692783.871 3   4435936.453 2
  24016142.669    -1902383.095 3  -1482346.960 1
  24857136.962       83091.357 2     64743.686 1
  22301898.817   -12188088.402 4  -9497170.055 2
  24006149.387    -4819476.156 2  -3755410.509 1
 91  4  7 22 30 15.0030000  0  6 18 19 11 16 02 06
  23838558.508    18859867.060 3  14695971.093 1
  22091936.471     5718769.400 3   4456184.903 2
  24022357.367    -1869705.063 3  -1456883.568 1
  24861602.372      106548.576 2     83021.942 1
  22300220.577   -12196890.429 4  -9504028.735 2
  24002611.238    -4838060.239 2  -3769891.508 1
 91  4  7 22 30 30.0030000  0  6 18 19 11 16 02 06
  23850496.547    18922560.321 3  14744822.772 1
  22096891.739     5744814.282 3   4476479.604 2
  24028601.444    -1836884.328 3  -1431309.005 1
  24866082.768      130120.743 2    101389.837 1
  22298562.427   -12205617.258 4  -9510828.799 2
  23999071.587    -4856640.899 2  -3784369.854 1
 91  4  7 22 30 45.0030000  0  6 18 19 11 16 02 06
  23862434.581    18985306.275 3  14793715.595 1
  22101856.605     5770915.938 3   4496818.552 2
  24034878.802    -1803923.735 3  -1405625.474 1
  24870603.940      153804.739 2    119844.822 1
  22296916.265   -12214271.660 4  -9517572.448 2
  23995539.136    -4875220.832 2  -3798847.646 1
 91  4  7 22 31  0.0030000  0  6 18 19 11 16 02 06
  23874379.211    19048106.534 3  14842650.703 1
  22106839.153     5797076.343 3   4517203.267 2
  24041176.838    -1770821.550 3  -1379831.570 1
  24875124.511      177601.994 2    138388.117 1
  22295283.295   -12222851.801 4  -9524258.221 2
  23991997.985    -4893798.166 2  -3813323.408 1
 91  4  7 22 31 15.0030000  0  6 18 19 11 16 02 06
  23886344.529    19110961.563 3  14891628.534 1
  22111822.904     5823296.180 3   4537634.305 2
  24047503.659    -1737577.230 3  -1353926.925 1
  24879680.156      201513.310 2    157020.201 1
  22293662.920   -12231356.899 4  -9530885.516 2
  23988460.136    -4912372.136 2  -3827796.535 1
 91  4  7 22 31 30.0030000  0  6 18 19 11 16 02 06
  23898315.841    19173870.861 3  14940648.602 1
  22116830.035     5849575.247 3   4558111.483 2
  24053855.063    -1704191.316 3  -1327911.974 1
  24884242.996      225538.101 2    175740.705 1
  22292060.528   -12239787.406 4  -9537454.696 2
  23984926.480    -4930943.044 2  -3842267.295 1
 91  4  7 22 31 45.0030000  0  6 18 19 11 16 02 06
  23910291.650    19236833.169 3  14989709.967 1
  22121838.972     5875912.605 3   4578634.092 2
  24060231.647    -1670664.951 3  -1301787.559 1
  24888841.813      249675.116 2    194548.669 1
  22290470.128   -12248144.104 4  -9543966.365 2
  23981404.520    -4949511.858 2  -3856736.436 1
 91  4  7 22 32  0.0030000  0  6 18 19 11 16 02 06
  23922283.946    19299848.740 3  15038812.861 1
  22126861.092     5902308.963 3   4599202.674 2
  24066645.409    -1636997.870 3  -1275553.498 1
  24893455.620      273924.552 2    213444.282 1
  22288890.521   -12256426.835 4  -9550420.397 2
  23977862.471    -4968078.240 2  -3871203.635 1
 91  4  7 22 32 15.0030000  0  6 18 19 11 16 02 06
  23934291.833    19362912.693 3  15087953.452 1
  22131893.709     5928760.132 3   4619813.967 2
  24073073.856    -1603194.462 3  -1249213.183 1
  24898092.810      298281.927 2    232424.003 1
  22287331.004   -12264639.938 4  -9556820.164 2
  23974328.518    -4986646.163 2  -3885672.064 1
 91  4  7 22 32 30.0030000  0  6 18 19 11 16 02 06
  23946298.822    19426028.893 3  15137134.744 1
  22136941.616     5955269.962 3   4640470.955 2
  24079534.685    -1569251.015 3  -1222763.778 1
  24902733.896      322751.213 2    251490.857 1
  22285778.079   -12272779.378 4  -9563162.528 2
  23970794.264    -5005211.776 2  -3900138.711 1
 91  4  7 22 32 45.0030000  0  6 18 19 11 16 02 06
  23958320.801    19489199.659 3  15186358.584 1
  22141998.515     5981840.983 3   4661175.634 2
  24086020.997    -1535165.160 3  -1196203.381 1
  24907423.847      347334.482 2    270646.552 1
  22284245.238   -12280842.502 4  -9569445.436 2
  23967261.210    -5023772.485 2  -3914601.489 1
 91  4  7 22 33  0.0030000  0  6 18 19 11 16 02 06
  23970348.171    19552422.878 3  15235623.288 1
  22147068.606     6008471.695 3   4681926.824 2
  24092529.191    -1500938.773 3  -1169533.506 1
  24912128.492      372029.844 2    289889.608 1
  22282724.090   -12288831.293 4  -9575670.430 2
  23963736.851    -5042329.955 2  -3929061.770 1
 91  4  7 22 33 15.0030000  0  6 18 19 11 16 02 06
  23982391.435    19615692.799 3  15284924.389 1
  22152141.990     6035156.643 3   4702720.276 2
  24099069.759    -1466577.648 3  -1142758.635 1
  24916834.933      396831.444 2    309215.476 1
  22281219.135   -12296751.272 4  -9581841.789 2
  23960202.597    -5060889.867 2  -3943523.959 1
 91  4  7 22 33 30.0030000  0  6 18 19 11 16 02 06
  23994443.990    19679016.941 3  15334267.693 1
  22157232.166     6061903.683 3   4723562.107 2
  24105638.514    -1432074.201 3  -1115872.875 1
  24921581.846      421747.029 2    328630.138 1
  22279723.468   -12304594.637 4  -9587953.460 2
  23956677.636    -5079444.263 2  -3957981.843 1
 91  4  7 22 33 45.0030000  0  6 18 19 11 16 02 06
  24006500.747    19742389.062 2  15383648.433 1
  22162334.335     6088706.998 3   4744447.790 2
  24112227.053    -1397434.410 3  -1088880.822 1
  24926350.947      446770.308 2    348128.728 1
  22278248.192   -12312367.244 4  -9594009.994 2
  23953143.984    -5097999.055 2  -3972440.051 1
 91  4  7 22 34  0.0030000  0  6 18 19 11 16 02 06
  24018564.096    19805767.738 3  15433034.263 1
  22167435.605     6115525.595 3   4765345.381 2
  24118840.175    -1362699.682 3  -1061814.824 1
  24931114.647      471860.134 2    367679.195 1
  22276775.010   -12320110.279 4  -9600043.473 2
  23949601.634    -5116595.166 2  -3986930.443 1
 91  4  7 22 34 15.0030000  0  6 18 19 11 16 02 06
  24030639.734    19869201.525 3  15482463.009 1
  22172550.661     6142408.208 3   4786292.868 2
  24125475.481    -1327821.614 3  -1034637.129 1
  24935909.531      497064.701 2    387318.967 1
  22275314.422   -12327775.197 4  -9606016.093 2
  23946069.483    -5135184.161 2  -4001415.333 1
 91  4  7 22 34 30.0030000  0  6 18 19 11 16 02 06
  24042719.272    19932697.729 2  15531940.441 1
  22177684.009     6169362.582 3   4807296.262 2
  24132143.763    -1292792.484 3  -1007341.749 1
  24940744.881      522391.757 2    407054.257 1
  22273874.216   -12335354.109 4  -9611921.692 2
  23942531.329    -5153758.155 2  -4015888.512 1
 91  4  7 22 34 45.0030000  0  6 18 19 11 16 02 06
  24054807.504    19996250.836 3  15581462.165 1
  22182819.456     6196383.274 3   4828351.319 2
  24138837.231    -1257618.142 3   -979933.176 1
  24945583.233      547835.326 2    426880.369 1
  22272445.405   -12342852.626 4  -9617764.656 2
  23938996.478    -5172322.530 2  -4030354.156 1
 91  4  7 22 35  0.0030000  0  6 18 19 11 16 02 06
  24066906.229    20059858.680 2  15631026.575 1
  22187978.883     6223468.776 3   4849456.885 2
  24145557.379    -1222300.280 3   -952412.785 1
  24950441.671      573393.625 2    446795.974
  22271033.683   -12350272.322 4  -9623546.192 2
  23935461.923    -5190878.929 2  -4044813.597 1
 91  4  7 22 35 15.0030000  0  6 18 19 11 16 02 06
  24079027.438    20123521.960 2  15680634.185 1
  22193142.206     6250620.452 3   4870614.009 2
  24152305.409    -1186838.068 3   -924779.897 1
  24955327.086      599067.495 2    466801.358 1
  22269636.653   -12357612.237 4  -9629265.556 2
  23931937.262    -5209426.217 2  -4059265.937 1
 91  4  7 22 35 30.0030000  0  6 18 19 11 16 02 06
  24091155.540    20187231.398 2  15730277.743 1
  22198326.818     6277828.957 3   4891815.427 2
  24159078.318    -1151240.876 3   -897041.850 1
  24960231.391      624847.331 2    486889.402 1
  22268253.409   -12364881.634 4  -9634929.977 2
  23928410.805    -5227973.649 2  -4073718.439 1
 91  4  7 22 35 45.0030000  0  6 18 19 11 16 02 06
  24103286.042    20250987.837 2  15779957.890 1
  22203508.133     6305095.535 3   4913062.095 2
  24165878.210    -1115507.778 3   -869197.909 1
  24965157.880      650734.589 2    507061.224 1
  22266884.854   -12372079.331 4  -9640538.515 2
  23924876.852    -5246519.964 2  -4088170.025 1
 91  4  7 22 36  0.0030000  0  6 18 19 11 16 02 06
  24115430.036    20314800.956 2  15829682.243 1
  22208711.927     6332430.454 3   4934362.005 2
  24172709.281    -1079628.838 3   -841240.322 1
  24970102.059      676738.698 2    527324.036 1
  22265531.594   -12379195.469 4  -9646083.519 2
  23921352.493    -5265054.940 2  -4102612.809 1
 91  4  7 22 36 15.0030000  0  6 18 19 11 16 02 06
  24127583.022    20378691.562 2  15879466.963 1
  22213927.719     6359854.892 3   4955731.683 2
  24179566.135    -1043583.119 3   -813152.750 1
  24975080.409      702880.762 2    547694.484 1
  22264196.618   -12386208.738 4  -9651548.346 2
  23917833.530    -5283557.387 2  -4117030.190 1
 91  4  7 22 36 30.0030000  0  6 18 19 11 16 02 06
  24139753.398    20442627.082 2  15929286.683 1
  22219164.193     6387336.469 3   4977145.877 2
  24186451.166    -1007403.467 3   -784960.854 1
  24980080.351      729127.899 2    568146.599 1
  22262873.634   -12393151.609 4  -9656958.329 2
  23914315.164    -5302060.002 2  -4131447.745 1
 91  4  7 22 36 45.0030000  0  6 18 19 11 16 02 06
  24151928.868    20506604.808 2  15979139.293 1
  22224400.070     6414872.635 3   4998602.604 2
  24193361.985     -971092.532 3   -756666.657 1
  24985081.788      755477.235 2    588678.512 1
  22261564.440   -12400026.813 4  -9662315.579 2
  23910787.507    -5320565.178 2  -4145867.316 1
 91  4  7 22 37  0.0030000  0  6 18 19 11 16 02 06
  24164112.431    20570623.108 2  16029023.532 1
  22229653.929     6442462.214 3   5020100.964 2
  24200289.590     -934651.741 3   -728271.234 1
  24990119.801      781927.329 2    609288.790 1
  22260269.337   -12406835.526 4  -9667621.014 2
  23907264.945    -5339074.047 2  -4160289.717 1
 91  4  7 22 37 15.0030000  0  6 18 19 11 16 02 06
  24176308.890    20634684.375 2  16078941.250 1
  22234907.195     6470108.204 3   5041643.271 2
  24207255.564     -898078.471 3   -699772.616 1
  24995175.500      808480.964 2    629979.877
  22258989.822   -12413575.046 4  -9672872.546 2
  23903745.083    -5357583.824 2  -4174712.846 1
 91  4  7 22 37 30.0030000  0  6 18 19 11 16 02 06
  24188504.446    20698789.264 2  16128892.927 1
  22240181.742     6497811.830 3   5063230.488 2
  24214239.530     -861372.058 3   -671170.221 1
  25000247.990      835138.724 2    650752.119 1
  22257717.204   -12420244.358 4  -9678069.358 2
  23900221.322    -5376093.359 2  -4189135.781 1
 91  4  7 22 37 45.0030000  0  6 18 19 11 16 02 06
  24200706.899    20762939.814 2  16178880.201 1
  22245465.585     6525575.263 3   5084864.310 2
  24221246.582     -824530.344 3   -642462.440 1
  25005338.764      861902.821 2    671607.122 1
  22256462.873   -12426841.197 4  -9683209.696 2
  23896695.762    -5394600.400 2  -4203556.774 1
 91  4  7 22 38  0.0030000  0  6 18 19 11 16 02 06
  24212920.145    20827138.423 2  16228904.935 1
  22250763.815     6553401.054 3   5106546.727 2
  24228283.910     -787551.041 3   -613647.413 1
  25010457.419      888775.197 2    692546.579 1
  22255225.029   -12433363.121 4  -9688291.667 2
  23893183.095    -5413102.425 2  -4217973.896 1
 91  4  7 22 38 15.0030000  0  6 18 19 11 16 02 06
  24225146.579    20891384.024 2  16278966.284 1
  22256067.146     6581288.412 3   5128277.121 2
  24235351.514     -750435.160 3   -584725.987 1
  25015592.565      915755.047 2    713569.726 1
  22253994.082   -12439811.015 4  -9693315.934 2
  23889657.235    -5431600.207 2  -4232387.663 1
 91  4  7 22 38 30.0030000  0  6 18 19 11 16 02 06
  24237385.006    20955675.148 2  16329063.089 1
  22261385.165     6609236.414 3   5150054.762 2
  24242440.709     -713184.045 3   -555699.174 1
  25020750.496      942840.779 2    734675.373 1
  22252781.719   -12446186.041 4  -9698283.450 2
  23886137.072    -5450094.771 2  -4246798.925 1
 91  4  7 22 38 45.0030000  0  6 18 19 11 16 02 06
  24249626.133    21020008.623 2  16379192.924 1
  22266713.375     6637242.237 3   5171877.462 2
  24249552.384     -675800.759 3   -526569.375 1
  25025920.415      970029.572 2    755861.312 1
  22251582.549   -12452490.996 4  -9703196.350 2
  23882622.903    -5468588.960 2  -4261209.913 1
 91  4  7 22 39  0.0030000  0  6 18 19 11 16 02 06
  24261874.755    21084381.300 2  16429353.243 1
  22272053.578     6665303.249 3   5193743.165 2
  24256691.643     -638288.361 3   -497338.977 1
  25031113.120      997318.252 2    777125.289 1
  22250395.973   -12458728.765 4  -9708056.887 2
  23879100.341    -5487085.480 2  -4275622.748 1
 91  4  7 22 39 15.0030000  0  6 18 19 11 16 02 06
  24274132.067    21148791.865 2  16479543.152 1
  22277405.172     6693418.468 3   5215651.112 2
  24263851.886     -600648.072 3   -468008.884 1
  25036326.813     1024705.652 2    798465.940 1
  22249219.885   -12464900.599 4  -9712866.070 2
  23875580.480    -5505585.457 2  -4290038.208 1
 91  4  7 22 39 30.0030000  0  6 18 19 11 16 02 06
  24286399.875    21213238.807 2  16529761.363 1
  22282769.059     6721586.834 3   5237600.465 2
  24271033.715     -562881.194 3   -438580.191 1
  25041553.694     1052190.039 2    819882.179 1
  22248056.689   -12471007.355 4  -9717624.518 2
  23872059.419    -5524089.825 2  -4304457.127 1
 91  4  7 22 39 45.0030000  0  6 18 19 11 16 02 06
  24298659.888    21277726.658 2  16580011.479 1
  22288135.647     6749812.960 3   5259594.826 2
  24278253.014     -524983.385 3   -409049.457 1
  25046803.060     1079776.092 2    841377.724 1
  22246912.081   -12477044.601 4  -9722328.814 2
  23868536.857    -5542593.900 2  -4318875.825 1
 91  4  7 22 40  0.0030000  0  6 18 19 11 16 02 06
  24310940.588    21342253.368 2  16630291.876 1
  22293518.118     6778095.168 3   5281632.882 2
  24285488.808     -486956.654 3   -379418.261 1
  25052075.508     1107461.858 2    862951.013 1
  22245775.871   -12483014.234 4  -9726980.428 2
  23865014.892    -5561099.461 2  -4333295.653 1
 91  4  7 22 40 15.0030000  0  6 18 19 11 16 02 06
  24323232.377    21406815.589 2  16680599.942 1
  22298909.887     6806430.306 3   5303712.193 2
  24292746.480     -448804.371 3   -349689.243 1
  25057353.056     1135243.663 2    884599.049 1
  22244647.453   -12488919.320 4  -9731581.739 2
  23861493.831    -5579609.637 2  -4347719.094 1
 91  4  7 22 40 30.0030000  0  6 18 19 11 16 02 06
  24335526.265    21471413.059 2  16730935.442 1
  22304316.344     6834818.783 3   5325833.064 2
  24300030.537     -410526.611 3   -319862.440 1
  25062661.482     1163121.782 2    906322.160 1
  22243535.521   -12494759.599 4  -9736132.554 2
  23857971.871    -5598124.146 2  -4362145.921 1
 91  4  7 22 40 45.0030000  0  6 18 19 11 16 02 06
  24347823.154    21536047.215 2  16781299.538 1
  22309723.398     6863262.354 3   5347996.877 2
  24307340.978     -372121.895 3   -289936.734 1
  25067986.093     1191097.269 2    928121.098 1
  22242437.981   -12500533.589 4  -9740631.711 2
  23854445.710    -5616641.290 2  -4376574.817 1
 91  4  7 22 41  0.0030000  0  6 18 19 11 16 02 06
  24360130.531    21600710.313 2  16831686.203 1
  22315147.244     6891753.667 3   5370197.871 2
  24314673.002     -333597.856 3   -259918.027 1
  25073321.802     1219162.758 2    949990.284 1
  22241350.034   -12506248.692 4  -9745084.987 2
  23850918.951    -5635168.326 2  -4391011.383 1
 91  4  7 22 41 15.0030000  0  6 18 19 11 16 02 06
  24372449.604    21665409.798 2  16882101.191 1
  22320577.386     6920300.488 3   5392442.130 2
  24322025.712     -294947.095 3   -229800.583 1
  25078687.186     1247325.360 2    971935.080 1
  22240274.677   -12511897.494 4  -9749486.604 2
  23847391.594    -5653697.732 2  -4405449.819 1
 91  4  7 22 41 30.0030000  0  6 18 19 11 16 02 06
  24384758.782    21730144.600 2  16932543.743 1
  22326024.615     6948902.012 3   5414729.016 2
  24329402.403     -256170.612 3   -199585.190 1
  25084066.364     1275583.971 2    993954.676 1
  22239214.014   -12517480.782 4  -9753837.161 2
  23843870.830    -5672230.197 2  -4419890.671 1
 91  4  7 22 41 45.0030000  0  6 18 19 11 16 02 06
  24397086.550    21794916.701 2  16983015.355 1
  22331475.740     6977560.600 3   5437060.368 2
  24336811.774     -217266.209 3   -169270.104 1
  25089466.225     1303940.904 2   1016050.903 1
  22238167.136   -12522996.117 4  -9758134.773 2
  23840340.476    -5690763.301 2  -4434331.906 1
 91  4  7 22 42  0.0030000  0  6 18 19 11 16 02 06
  24409411.015    21859727.156 2  17033516.802 1
  22336939.460     7006277.905 3   5459437.474 2
  24344235.237     -178232.646 3   -138854.373 1
  25094872.080     1332397.564 2   1038224.939 1
  22237131.653   -12528441.940 4  -9762378.224 2
  23836810.720    -5709295.275 2  -4448772.331 1
 91  4  7 22 42 15.0030000  0  6 18 19 11 16 02 06
  24421756.171    21924574.741 2  17084047.253 1
  22342415.168     7035052.823 3   5481859.465 2
  24351689.577     -139071.647 3   -108339.343 1
  25100307.918     1360952.184 2   1060475.049 1
  22236104.564   -12533819.829 4  -9766568.727 2
  23833286.658    -5727827.643 2  -4463213.072 1
 91  4  7 22 42 30.0030000  0  6 18 19 11 16 02 06
  24434110.319    21989455.683 2  17134603.611 1
  22347903.768     7063882.214 3   5504323.895 2
  24359163.401      -99786.464 3    -77727.550 1
  25105760.845     1389601.090 2   1082798.833 1
  22235095.762   -12539132.980 4  -9770708.806 2
  23829759.602    -5746363.424 2  -4477656.461 1
 91  4  7 22 42 45.0030000  0  6 18 19 11 16 02 06
  24446459.367    22054371.059 2  17185186.860 1
  22353396.865     7092767.472 3   5526831.861 2
  24366661.510      -60375.877 3    -47018.020 1
  25111229.957     1418345.933 2   1105197.302 1
  22234096.855   -12544379.908 4  -9774797.272 2
  23826235.539    -5764901.247 2  -4492101.444 1
 91  4  7 22 43  0.0030000  0  6 18 19 11 16 02 06
  24458823.108    22119319.828 2  17235796.094 1
  22358909.450     7121707.783 3   5549382.739 2
  24374191.100      -20841.135 3    -16211.762 1
  25116715.259     1447185.324 2   1127669.504 1
  22233108.440   -12549561.600 4  -9778834.898 2
  23822708.781    -5783441.984 2  -4506548.689 1
 91  4  7 22 43 15.0030000  0  6 18 19 11 16 02 06
  24471189.549    22184302.784 2  17286431.999 1
  22364424.731     7150704.157 3   5571977.302 2
  24381732.679       18818.585 3     14691.887 1
  25122223.346     1476119.874 2   1150215.739 1
  22232134.713   -12554676.999 4  -9782820.878 2
  23819178.724    -5801984.479 2  -4520997.329 1
 91  4  7 22 43 30.0030000  0  6 18 19 11 16 02 06
  24483552.387    22249320.965 2  17337095.300 1
  22369954.404     7179758.115 3   5594616.735 2
  24389303.037       58604.552 3     45693.912 1
  25127756.618     1505150.605 2   1172837.100 2
  22231175.976   -12559724.909 4  -9786754.256 2
  23815644.173    -5820527.240 2  -4535446.161 1
 91  4  7 22 43 45.0030000  0  6 18 19 11 16 02 06
  24495936.815    22314373.439 2  17387785.367 1
  22375491.869     7208869.100 3   5617300.595 2
  24396897.978       98515.740 3     76793.479 1
  25133284.489     1534276.686 2   1195532.939 1
  22230226.536   -12564706.012 4  -9790635.591 2
  23812119.513    -5839070.913 2  -4549895.680 1
 91  4  7 22 44  0.0030000  0  6 18 19 11 16 02 06
  24508325.140    22379459.226 2  17438501.400 1
  22381046.426     7238036.700 3   5640028.578 2
  24404517.502      138551.213 3    107989.930 1
  25138855.231     1563497.324 2   1218302.219 1
  22229293.582   -12569621.011 4  -9794465.405 2
  23808589.456    -5857616.138 2  -4564346.431 1
 91  4  7 22 44 15.0030000  0  6 18 19 11 16 02 06
  24520716.461    22444576.299 2  17489241.803 1
  22386604.276     7267259.172 3   5662799.322 2
  24412159.214      178709.068 3    139281.738 1
  25144432.570     1592810.494 2   1241143.570 1
  22228369.022   -12574471.482 4  -9798244.949 2
  23805062.998    -5876164.546 2  -4578799.666 1
 91  4  7 22 44 30.0030000  0  6 18 19 11 16 02 06
  24533105.984    22509727.914 2  17540009.123 1
  22392176.820     7296540.119 3   5685615.635 2
  24419827.307      218992.557 3    170671.421 1
  25150021.900     1622219.320 2   1264059.350 1
  22227456.454   -12579254.052 4  -9801971.574 2
  23801531.441    -5894712.509 2  -4593252.559 1
 91  4  7 22 44 45.0030000  0  6 18 19 11 16 02 06
  24545522.490    22574915.023 2  17590804.044 1
  22397759.851     7325880.580 3   5708478.308 2
  24427515.781      259402.477 3    202159.653 1
  25155643.309     1651724.661 2   1287050.535 1
  22226557.973   -12583967.669 4  -9805644.471 2
  23798002.588    -5913258.897 2  -4607704.210 1
 91  4  7 22 45  0.0030000  0  6 18 19 11 16 02 06
  24557938.094    22640136.377 2  17641625.710 1
  22403354.880     7355279.757 3   5731386.741 2
  24435227.342      299937.717 3    233745.510 1
  25161268.618     1681325.618 2   1310116.027 1
  22225676.283   -12588613.354 4  -9809264.450 2
  23794472.230    -5931804.560 2  -4622155.319 1
 91  4  7 22 45 15.0030000  0  6 18 19 11 16 02 06
  24570350.700    22705391.350 2  17692473.562 1
  22408961.299     7384737.481 3   5754340.796 2
  24442962.587      340597.850 3    265428.676 1
  25166925.102     1711021.544 2   1333255.587 1
  22224804.186   -12593191.300 4  -9812831.630 2
  23790943.072    -5950349.611 2  -4636605.946 1
 91  4  7 22 45 30.0030000  0  6 18 19 11 16 02 06
  24582775.900    22770682.226 2  17743349.396 1
  22414577.909     7414256.642 3   5777342.716 2
  24450729.313      381385.235 3    297211.034 1
  25172595.677     1740814.637 2   1356470.953 1
  22223947.682   -12597698.977 4  -9816344.058 2
  23787416.614    -5968891.331 2  -4651053.951 1
 91  4  7 22 45 45.0030000  0  6 18 19 11 16 02 06
  24595203.195    22836008.465 2  17794252.727 1
  22420205.015     7443836.475 3   5800391.921 2
  24458511.626      422299.040 3    329091.903 1
  25178280.940     1770703.943 2   1379761.181 1
  22223104.365   -12602137.106 4  -9819802.298 2
  23783885.357    -5987430.428 2  -4665499.902 1
 91  4  7 22 46  0.0030000  0  6 18 19 11 16 02 06
  24607647.281    22901370.488 2  17845184.027 1
  22425843.211     7473478.057 3   5823489.238 2
  24466322.116      463339.985 3    361071.825 1
  25183985.089     1800690.311 2   1403127.091 1
  22222274.537   -12606504.590 4  -9823205.491 2
  23780359.502    -6005965.742 2  -4679942.942 1
 91  4  7 22 46 15.0030000  0  6 18 19 11 16 02 06
  24620080.574    22966771.586 2  17896145.731 1
  22431497.596     7503185.032 3   5846637.518 2
  24474152.396      504511.222 3    393153.282 1
  25189715.025     1830777.058 2   1426571.184 1
  22221455.808   -12610798.016 4  -9826550.963 2
  23776835.439    -6024493.711 2  -4694380.257 1
 91  4  7 22 46 30.0030000  0  6 18 19 11 16 02 06
  24632541.448    23032212.226 2  17947138.220 1
  22437168.472     7532958.207 3   5869837.385 2
  24482016.253      545813.375 3    425336.729 1
  25195467.441     1860964.583 2   1450093.860 1
  22220653.862   -12615016.788 4  -9829838.275 2
  23773311.380    -6043013.523 3  -4708811.206 1
 91  4  7 22 46 45.0030000  0  6 18 19 11 16 02 06
  24645003.817    23097694.407 2  17998163.546 1
  22442842.642     7562799.762 3   5893090.524 2
  24489903.193      587248.261 3    457623.633 1
  25201215.962     1891254.714 2   1473696.414 1
  22219866.307   -12619158.725 4  -9833065.720 2
  23769789.416    -6061523.044 3  -4723234.126 1
 91  4  7 22 47  0.0030000  0  6 18 19 11 16 02 06
  24657466.492    23163211.520 2  18049215.660 1
  22448539.601     7592704.095 3   5916392.591 2
  24497810.821      628809.774 3    490009.191 1
  25207000.155     1921641.290 2   1497374.178 1
  22219091.042   -12623229.845 4  -9836237.971 2
  23766262.958    -6080028.035 2  -4737653.516 1
 91  4  7 22 47 15.0030000  0  6 18 19 11 16 02 06
  24669934.559    23228763.958 2  18100295.274 1
  22454237.455     7622671.465 3   5939743.765 2
  24505744.824      670497.927 3    522493.450 1
  25212803.840     1952124.261 2   1521126.939 1
  22218327.473   -12627229.933 4  -9839354.879 2
  23762748.790    -6098528.050 2  -4752069.057 1
 91  4  7 22 47 30.0030000  0  6 18 19 11 16 02 06
  24682431.707    23294350.423 2  18151401.401 1
  22459951.498     7652701.024 3   5963143.397 2
  24513700.121      712311.579 3    555075.446 1
  25218628.806     1982702.625 2   1544954.172 1
  22217581.288   -12631159.826 4  -9842417.091 2
  23759224.731    -6117024.050 2  -4766481.464 1
 91  4  7 22 47 45.0030000  0  6 18 19 11 16 02 06
  24694915.366    23359973.955 2  18202536.474 1
  22465678.136     7682796.054 3   5986594.056 2
  24521681.192      754253.573 3    587757.484 1
  25224458.570     2013379.327 2   1568857.983 1
  22216846.499   -12635016.405 4  -9845422.168 2
  23755707.265    -6135512.662 2  -4780888.063 1
 91  4  7 22 48  0.0030000  0  6 18 19 11 16 02 06
  24707400.225    23425629.080 2  18253696.115 1
  22471419.760     7712951.526 3   6010091.799 2
  24529688.350      796318.818 3    620535.526 1
  25230314.715     2044149.086 2   1592834.306 1
  22216124.296   -12638804.590 4  -9848373.964 2
  23752185.305    -6153998.932 2  -4795292.892 1
 91  4  7 22 48 15.0030000  0  6 18 19 11 16 02 06
  24719896.470    23491317.558 2  18304881.767 1
  22477167.381     7743169.655 3   6033638.386 2
  24537714.692      838509.061 3    653411.043 1
  25236195.146     2075013.328 2   1616884.245 1
  22215419.185   -12642522.567 4  -9851271.051 2
  23748675.036    -6172480.676 3  -4809694.174 1
 91  4  7 22 48 30.0030000  0  6 18 19 11 16 02 06
  24732405.314    23557042.633 2  18356095.916 1
  22482928.492     7773454.246 3   6057236.738 2
  24545766.820      880827.616 3    686386.505 1
  25242076.476     2105975.713 2   1641010.712
  22214726.363   -12646166.711 4  -9854110.600 2
  23745159.066    -6190954.169 2  -4824089.026 1
 91  4  7 22 48 45.0030000  0  6 18 19 11 16 02 06
  24744926.146    23622802.323 2  18407337.002 1
  22488702.795     7803803.282 3   6080885.319 2
  24553849.822      923272.354 3    719460.283 1
  25247990.778     2137034.047 2   1665211.855 1
  22214045.835   -12649738.816 4  -9856894.022 2
  23741638.904    -6209421.330 2  -4838478.981 1
 91  4  7 22 49  0.0030000  0  6 18 19 11 16 02 06
  24757455.071    23688595.006 2  18458603.810 1
  22494497.782     7834215.639 3   6104583.238 2
  24561949.318      965841.877 3    752631.277 1
  25253923.673     2168186.674 2   1689486.594 1
  22213377.601   -12653240.146 4  -9859622.282 2
  23738131.632    -6227883.223 3  -4852864.759 1
 91  4  7 22 49 15.0030000  0  6 18 19 11 16 02 06
  24769976.501    23754421.417 2  18509896.920 1
  22500294.268     7864692.335 3   6128331.290 2
  24570073.394     1008536.655 3    785899.921 1
  25259867.060     2199434.336 2   1713835.638 1
  22212725.848   -12656670.057 4  -9862294.905 2
  23734620.164    -6246338.933 2  -4867245.805 1
 91  4  7 22 49 30.0030000  0  6 18 19 11 16 02 06
  24782506.329    23820280.161 2  18561215.259 1
  22506106.046     7895232.478 3   6152128.790 2
  24578221.751     1051355.535 3    819265.247 1
  25265838.023     2230775.785 2   1738257.583 1
  22212088.492   -12660029.451 4  -9864912.579 2
  23731110.494    -6264789.328 3  -4881622.637 1
 91  4  7 22 49 45.0030000  0  6 18 19 11 16 02 06
  24795045.745    23886171.254 2  18612559.207 1
  22511928.315     7925836.541 3   6175976.085 2
  24586391.097     1094298.620 3    852727.358 1
  25271805.692     2262211.131 2   1762752.503 1
  22211459.525   -12663318.080 4  -9867475.106 2
  23727592.429    -6283233.972 2  -4895995.033 1
 91  4  7 22 50  0.0030000  0  6 18 19 11 16 02 06
  24807585.166    23952091.293 2  18663925.296 1
  22517763.476     7956501.238 3   6199870.624 2
  24594584.423     1137362.288 3    886283.443 1
  25277816.829     2293736.548 2   1787317.607 1
  22210850.050   -12666539.261 4  -9869985.074 2
  23724089.953    -6301676.069 3  -4910365.425 1
 91  4  7 22 50 15.0030000  0  6 18 19 11 16 02 06
  24820135.079    24018042.108 2  18715315.787 1
  22523608.531     7987228.822 3   6223814.168 2
  24602807.433     1180548.543 3    919935.031 1
  25283835.763     2325354.134 2   1811954.628 1
  22210248.066   -12669690.746 4  -9872440.757 2
  23720573.088    -6320113.304 2  -4924732.043 1
 91  4  7 22 50 30.0030000  0  6 18 19 11 16 02 06
  24832703.577    24084027.886 2  18766733.140 1
  22529473.968     8018023.831 3   6247810.267 2
  24611045.427     1223861.411 3    953685.273 1
  25289869.389     2357068.169 2   1836666.677 1
  22209662.571   -12672768.522 4  -9874838.986 2
  23717070.014    -6338541.323 3  -4939091.435 1
 91  4  7 22 50 45.0030000  0  6 18 19 11 16 02 06
  24845264.283    24150050.608 2  18818179.196 1
  22535343.306     8048888.470 3   6271860.600 2
  24619314.601     1267302.936 3    987535.795 1
  25295923.097     2388880.244 2   1861455.164 1
  22209091.164   -12675770.318 4  -9877177.993 2
  23713567.838    -6356957.816 3  -4953441.900 1
 91  4  7 22 51  0.0030000  0  6 18 19 11 16 02 06
  24857831.581    24216102.860 2  18869648.273 1
  22541228.832     8079815.915 3   6295959.889 2
  24627603.267     1310865.866 3   1021480.935 1
  25301990.594     2420783.199 2   1886314.515 1
  22208531.152   -12678703.012 4  -9879463.182 2
  23710062.665    -6375369.492 3  -4967788.567 1
 91  4  7 22 51 15.0030000  0  6 18 19 11 16 02 06
  24870403.978    24282188.665 2  18921143.912 1
  22547126.351     8110810.585 3   6320111.547 2
  24635914.710     1354554.236 3   1055523.735 1
  25308081.178     2452781.129 2   1911247.905 1
  22207987.329   -12681562.284 4  -9881691.157 2
  23706557.492    -6393772.199 3  -4982128.310 1
 91  4  7 22 51 30.0030000  0  6 18 19 11 16 02 06
  24882981.471    24348306.713 2  18972664.321 1
  22553041.255     8141871.438 3   6344314.781 2
  24644250.740     1398366.637 3   1089663.251 1
  25314185.853     2484872.447 2   1936253.924 1
  22207459.695   -12684349.393 4  -9883862.891 2
  23703061.310    -6412166.922 3  -4996461.767 1
 91  4  7 22 51 45.0030000  0  6 18 19 11 16 02 06
  24895574.853    24414456.675 2  19024209.585 1
  22558957.359     8172998.290 3   6368569.451 2
  24652611.353     1442302.834 2   1123899.204 1
  25320313.310     2517056.787 2   1961332.501 1
  22206940.455   -12687064.532 4  -9885978.553 2
  23699561.237    -6430553.514 3  -5010788.920 1
 91  4  7 22 52  0.0030000  0  6 18 19 11 16 02 06
  24908167.035    24480637.094 2  19075778.958 1
  22564904.040     8204190.089 3   6392874.728 2
  24660997.745     1486361.468 3   1158230.573 1
  25326454.862     2549332.820 2   1986482.565 1
  22206438.901   -12689708.733 4  -9888038.933 2
  23696062.059    -6448933.162 3  -5025110.657 1
 91  4  7 22 52 15.0030000  0  6 18 19 11 16 02 06
  24920764.914    24546844.571 2  19127368.992 1
  22570842.929     8235444.259 3   6417228.603 2
  24669405.726     1530539.255 3   1192654.800 1
  25332623.090     2581697.287 2   2011701.564 1
  22205946.042   -12692285.055 4  -9890046.429 2
  23692568.276    -6467308.543 3  -5039429.056 1
 91  4  7 22 52 30.0030000  0  6 18 19 11 16 02 06
  24933375.083    24613081.581 2  19178982.034 1
  22576806.100     8266763.242 3   6441632.953 2
  24677834.391     1574838.463 3   1227173.616 1
  25338790.722     2614152.646 2   2036991.220 1
  22205471.470   -12694791.045 4  -9891999.111 2
  23689073.896    -6485677.208 3  -5053742.251 1
 91  4  7 22 52 45.0030000  0  6 18 19 11 16 02 06
  24945983.755    24679346.464 2  19230617.257 1
  22582776.771     8298145.708 3   6466086.814 2
  24686291.534     1619257.387 3   1261785.750 1
  25344982.931     2646697.257 2   2062350.451 1
  22205007.394   -12697228.085 4  -9893898.069 2
  23685577.418    -6504040.243 3  -5068051.035 1
 91  4  7 22 53  0.0030000  0  6 18 19 11 16 02 06
  24958601.122    24745638.193 2  19282273.011 1
  22588761.524     8329591.255 3   6490589.809 2
  24694765.168     1663795.153 3   1296490.465 1
  25351193.433     2679330.352 2   2087778.843 1
  22204558.605   -12699596.706 4  -9895743.720 2
  23682084.233    -6522398.274 3  -5082355.959 1
 91  4  7 22 53 15.0030000  0  6 18 19 11 16 02 06
  24971214.890    24811957.767 2  19333950.368 1
  22594753.776     8361100.877 3   6515142.732 2
  24703259.489     1708452.536 3   1331288.370 2
  25357427.017     2712052.322 2   2113276.336 1
  22204118.807   -12701896.067 4  -9897535.384 2
  23678594.648    -6540750.070 3  -5096655.957 1
 91  4  7 22 53 30.0030000  0  6 18 19 11 16 02 06
  24983843.944    24878301.914 2  19385646.859 1
  22600764.015     8392671.632 3   6539743.299 2
  24711782.289     1753226.257 3   1366176.944 1
  25363665.702     2744859.948 2   2138840.602 1
  22203695.500   -12704129.171 4  -9899275.432 2
  23675094.575    -6559098.801 3  -5110953.611 1
 91  4  7 22 53 45.0030000  0  6 18 19 11 16 02 06
  24996475.402    24944668.394 2  19437360.772 1
  22606781.452     8424302.026 3   6564390.332 2
  24720326.674     1798114.486 3   1401154.754 1
  25369918.171     2777751.124 2   2164469.947 1
  22203282.986   -12706297.772 4  -9900965.222 2
  23671610.984    -6577445.840 3  -5125249.956 1
 91  4  7 22 54  0.0030000  0  6 18 19 11 16 02 06
  25009107.457    25011061.317 2  19489095.315 1
  22612816.871     8455996.272 3   6589087.111 2
  24728891.446     1843121.130 3   1436224.826 1
  25376194.626     2810729.961 2   2190167.573 1
  22202883.066   -12708397.676 4  -9902601.466 2
  23668118.702    -6595786.887 3  -5139541.595 1
 91  4  7 22 54 15.0030000  0  6 18 19 11 16 02 06
  25021749.102    25077479.428 2  19540849.478 1
  22618854.991     8487753.555 3   6613833.023 2
  24737476.901     1888245.116 3   1471386.308 1
  25382488.767     2843795.176 2   2215932.552 1
  22202497.831   -12710429.776 4  -9904184.892 2
  23664633.614    -6614122.681 3  -5153829.182 1
 91  4  7 22 54 30.0030000  0  6 18 19 11 16 02 06
  25034397.046    25143918.781 2  19592620.624 1
  22624914.396     8519570.428 3   6638625.369 2
  24746082.144     1933482.421 3   1506636.168 1
  25388797.601     2876943.054 2   2241761.949 1
  22202122.489   -12712397.717 4  -9905718.323 2
  23661138.035    -6632456.797 3  -5168115.447 1
 91  4  7 22 54 45.0030000  0  6 18 19 11 16 02 06
  25047040.496    25210378.028 2  19644406.878 1
  22630973.505     8551445.656 3   6663463.192 2
  24754712.568     1978831.529 2   1541973.064 1
  25395119.326     2910171.891 2   2267654.386 1
  22201759.141   -12714302.775 4  -9907202.745 2
  23657651.150    -6650790.427 3  -5182401.333 1
 91  4  7 22 55  0.0030000  0  6 18 19 11 16 02 06
  25059683.942    25276860.530 2  19696211.202 1
  22637053.296     8583382.918 3   6688349.324 2
  24763363.082     2024295.665 3   1577399.626 1
  25401458.135     2943484.917 2   2293612.455 1
  22201409.286   -12716141.566 4  -9908635.526 2
  23654163.663    -6669119.839 3  -5196683.930 1
 91  4  7 22 55 15.0030000  0  6 18 19 11 16 02 06
  25072338.182    25343360.687 2  19748029.306 1
  22643138.182     8615376.982 3   6713279.745 2
  24772033.380     2069869.167 3   1612911.394 1
  25407813.736     2976876.548 2   2319631.826 1
  22201069.020   -12717919.451 4  -9910020.871 2
  23650672.581    -6687450.404 3  -5210967.422 1
 91  4  7 22 55 30.0030000  0  6 18 19 11 16 02 06
  25085001.713    25409881.384 2  19799863.833 1
  22649245.854     8647431.150 3   6738256.981 2
  24780728.858     2115555.149 3   1648510.837 1
  25414181.927     3010350.043 2   2345714.842 1
  22200744.044   -12719633.052 4  -9911356.104 2
  23647192.889    -6705778.525 3  -5225248.990 1
 91  4  7 22 55 45.0030000  0  6 18 19 11 16 02 06
  25097658.653    25476414.529 2  19851707.598 1
  22655354.726     8679537.733 3   6763275.061 2
  24789447.122     2161345.488 2   1684191.551 1
  25420566.909     3043896.993 2   2371855.160 1
  22200427.166   -12721290.109 4  -9912647.282 2
  23643699.408    -6724112.061 3  -5239534.805 1
 91  4  7 22 56  0.0030000  0  6 18 19 11 16 02 06
  25110314.091    25542963.062 2  19903563.488 1
  22661472.589     8711700.151 3   6788336.668 2
  24798179.477     2207243.387 3   1719956.106 1
  25426958.483     3077520.572 2   2398055.305 1
  22200124.073   -12722887.493 4  -9913891.966 2
  23640207.423    -6742447.460 3  -5253822.067 1
 91  4  7 22 56 15.0030000  0  6 18 19 11 16 02 06
  25122994.414    25609525.986 2  19955430.930 1
  22667602.445     8743917.343 3   6813440.937 2
  24806933.117     2253247.255 3   1755803.223 1
  25433379.138     3111219.363 2   2424313.947 1
  22199832.676   -12724426.361 4  -9915091.047 2
  23636719.339    -6760785.856 3  -5268111.667 1
 91  4  7 22 56 30.0030000  0  6 18 19 11 16 02 06
  25135670.536    25676105.116 2  20007310.569 1
  22673752.386     8776191.701 3   6838589.756 2
  24815711.039     2299359.264 3   1791734.604 1
  25439810.586     3144995.435 2   2450632.759 1
  22199552.971   -12725904.692 4  -9916242.952 2
  23633232.153    -6779124.860 3  -5282401.720 1
 91  4  7 22 56 45.0030000  0  6 18 19 11 16 02 06
  25148340.668    25742702.502 2  20059204.865 1
  22679896.333     8808525.786 3   6863785.123 2
  24824503.353     2345581.674 3   1827752.041 1
  25446241.733     3178850.797 2   2477013.382 1
  22199282.257   -12727319.647 4  -9917345.485 2
  23629742.270    -6797461.632 3  -5296690.064 1
 91  4  7 22 57  0.0030000  0  6 18 19 11 16 02 06
  25161013.492    25809312.652 2  20111108.782 1
  22686062.764     8840914.558 3   6889023.091 2
  24833317.851     2391908.874 2   1863851.126 1
  25452694.466     3212780.128 2   2503451.694 1
  22199024.736   -12728676.614 4  -9918402.826 2
  23626251.786    -6815801.412 3  -5310980.714 1
 91  4  7 22 57 15.0030000  0  6 18 19 11 16 02 06
  25173690.516    25875929.896 2  20163018.479 1
  22692234.291     8873352.596 3   6914299.463 2
  24842155.435     2438335.345 2   1900027.545 1
  25459172.981     3246777.667 2   2529943.285 1
  22198774.408   -12729981.160 4  -9919419.316 2
  23622763.400    -6834149.455 3  -5325277.848 1
 91  4  7 22 57 30.0030000  0  6 18 19 11 16 02 06
  25186372.039    25942560.800 2  20214938.908 1
  22698415.416     8905846.693 3   6939619.504 2
  24851007.106     2484867.426 2   1936286.259 1
  25465653.294     3280849.997 2   2556492.911 1
  22198537.870   -12731226.481 4  -9920389.669 2
  23619270.220    -6852498.914 3  -5339576.046 1
 91  4  7 22 57 45.0030000  0  6 18 19 11 16 02 06
  25199045.766    26009209.214 2  20266872.498 1
  22704610.025     8938400.931 3   6964986.412 2
  24859884.861     2531508.743 3   1972630.095 1
  25472157.893     3315000.498 2   2583103.513 1
  22198312.426   -12732408.660 4  -9921310.806 2
  23615776.438    -6870845.806 3  -5353872.266 1
 91  4  7 22 58  0.0030000  0  6 18 19 11 16 02 06
  25211730.883    26075872.353 2  20318817.624 1
  22710821.125     8971012.996 3   6990398.379 2
  24868779.703     2578256.608 3   2009057.000 1
  25478670.882     3349226.647 2   2609773.161 1
  22198099.874   -12733530.197 4  -9922184.699 2
  23612284.754    -6889192.426 3  -5368168.269 1
 91  4  7 22 58 15.0030000  0  6 18 19 11 16 02 06
  25224427.094    26142550.857 2  20370774.724 1
  22717036.421     9003683.624 3   7015855.993 2
  24877693.733     2625111.547 2   2045567.278 1
  25485204.858     3383528.609 2   2636501.757 1
  22197897.216   -12734590.507 4  -9923010.877 2
  23608792.172    -6907537.904 3  -5382463.361 1
 91  4  7 22 58 30.0030000  0  6 18 19 11 16 02 06
  25237111.911    26209242.412 2  20422742.380 1
  22723262.515     9036410.933 3   7041357.762 2
  24886633.540     2672071.322 2   2082159.276 1
  25491733.438     3417904.373 2   2663287.886 1
  22197708.348   -12735591.471 4  -9923790.816 2
  23605303.489    -6925884.025 3  -5396758.998 1
 91  4  7 22 58 45.0030000  0  6 18 19 11 16 02 06
  25249804.824    26275950.692 2  20474722.676 1
  22729498.494     9069199.342 3   7066907.141 2
  24895589.241     2719139.802 2   2118835.962 1
  25498293.800     3452357.903 2   2690134.751 1
  22197530.569   -12736528.859 4  -9924521.211 2
  23601808.206    -6944226.508 3  -5411051.751 1
 91  4  7 22 59  0.0030000  0  6 18 19 11 16 02 06
  25262512.125    26342676.541 2  20526717.076 1
  22735754.864     9102049.883 3   7092504.930 2
  24904568.324     2766317.693 2   2155597.920 1
  25504865.251     3486889.927 2   2717042.674 1
  22197363.885   -12737401.750 4  -9925201.351 2
  23598322.220    -6962564.280 3  -5425340.872 1
 91  4  7 22 59 15.0030000  0  6 18 19 11 16 02 06
  25275210.138    26409413.660 2  20578719.866 1
  22742015.731     9134956.635 3   7118146.516 2
  24913565.696     2813598.738 2   2192440.238 1
  25511461.882     3521493.925 2   2744007.052 1
  22197205.895   -12738216.240 4  -9925835.988 2
  23594837.734    -6980903.155 3  -5439630.820 1
 91  4  7 22 59 30.0030000  0  6 18 19 11 16 02 06
  25287917.138    26476168.340 2  20630736.686 1
  22748290.088     9167926.354 3   7143837.188 2
  24922586.451     2860989.284 2   2229367.918 1
  25518061.215     3556176.052 2   2771032.098 1
  22197064.391   -12738965.737 4  -9926419.975 2
  23591340.955    -6999236.404 3  -5453916.412 1
 91  4  7 22 59 45.0030000  0  6 18 19 11 16 02 06
  25300616.346    26542938.505 2  20682765.199 1
  22754570.740     9200957.003 3   7169575.328 2
  24931619.800     2908487.025 3   2266379.100 1
  25524668.041     3590934.351 2   2798116.700 1
  22196936.080   -12739652.266 4  -9926954.897 2
  23587859.466    -7017566.029 3  -5468199.199 1
 91  4  7 23  0  0.0030000  0  6 18 19 11 16 02 06
  25313325.148    26609724.656 2  20734806.483 1
  22760873.876     9234049.582 3   7195361.726 2
  24940679.827     2956092.577 2   2303474.269 1
  25531287.755     3625769.484 2   2825260.856 1
  22196814.966   -12740274.951 4  -9927440.069 2
  23584370.478    -7035890.831 3  -5482478.153 1
 91  4  7 23  0 15.0030000  0  6 18 19 11 16 02 06
  25326040.545    26676533.764 2  20786865.412 1
  22767181.210     9267211.190 3   7221201.907 2
  24949757.242     3003812.749 2   2340658.712 1
  25537946.745     3660688.128 2   2852470.148 1
  22196709.140   -12740826.843 4  -9927870.073 2
  23580886.590    -7054203.685 3  -5496747.838 1
 91  4  7 23  0 30.0040000  0  6 18 19 11 16 02 06
  25338759.240    26743368.953 2  20838944.993 1
  22773513.125     9300443.382 3   7247097.094 2
  24958866.735     3051649.580 3   2377934.147 1
  25544599.740     3695691.213 2   2879745.177 1
  22196620.997   -12741308.853 4  -9928245.639 2
  23577400.607    -7072506.576 3  -5511009.777 1
 91  4  7 23  0 45.0040000  0  6 18 19 11 16 02 06
  25351481.535    26810214.613 2  20891032.302 1
  22779842.943     9333735.183 3   7273038.719 2
  24967985.224     3099589.945 2   2415290.240 1
  25551276.119     3730767.644 2   2907077.300 1
  22196538.257   -12741727.353 4  -9928571.718 2
  23573920.615    -7090803.451 3  -5525267.028 1
 91  4  7 23  1  0.0040000  0  6 18 19 11 16 02 06
  25364214.021    26877076.421 2  20943132.645 1
  22786186.851     9367090.354 3   7299029.724 2
  24977130.691     3147638.078 2   2452730.255 1
  25557960.591     3765920.437 2   2934469.007 1
  22196472.902   -12742081.128 4  -9928847.358 2
  23570438.524    -7109093.976 3  -5539519.301 1
 91  4  7 23  1 15.0040000  0  6 18 19 11 16 02 06
  25376930.318    26943955.037 2  20995245.621 1
  22792546.649     9400510.023 3   7325071.014 2
  24986292.950     3195794.854 2   2490254.970 1
  25564668.450     3801150.693 2   2961921.373 1
  22196419.840   -12742368.978 4  -9929071.621 2
  23566957.337    -7127376.895 3  -5553765.639 1
 91  4  7 23  1 30.0040000  0  6 18 19 11 16 02 06
  25389649.310    27010846.636 2  21047368.761 1
  22798922.635     9433990.632 3   7351159.758 2
  24995478.592     3244056.357 2   2527861.272 1
  25571384.398     3836454.534 2   2989430.753 1
  22196373.972   -12742594.676 4  -9929247.457 2
  23563481.240    -7145655.687 3  -5568008.787 1
 91  4  7 23  1 45.0040000  0  6 18 19 11 16 02 06
  25402391.991    27077751.201 2  21099502.380 1
  22805298.622     9467532.290 3   7377296.077 2
  25004680.419     3292422.228 2   2565548.945 1
  25578110.541     3871831.557 2   3016997.079 1
  22196343.090   -12742758.346 4  -9929374.970 2
  23560006.047    -7163930.373 3  -5582248.740 1
 91  4  7 23  2  0.0040000  0  6 18 19 11 16 02 06
  25415125.075    27144667.701 2  21151645.356 1
  22811700.688     9501134.719 3   7403479.760 2
  25013907.134     3340891.803 3   2603317.340 1
  25584868.164     3907281.181 2   3044620.132 1
  22196325.103   -12742860.465 4  -9929454.506 2
  23556526.356    -7182201.195 3  -5596485.677 1
 91  4  7 23  2 15.0040000  0  6 18 19 11 16 02 06
  25427860.859    27211598.233 2  21203798.836 1
  22818103.657     9534800.322 3   7429712.668 2
  25023149.136     3389467.083 2   2641168.177 1
  25591626.088     3942805.318 2   3072301.526 1
  22196320.007   -12742898.720 4  -9929484.293 2
  23553051.463    -7200465.662 3  -5610717.678 1
 91  4  7 23  2 30.0040000  0  6 18 19 11 16 02 06
  25440599.339    27278541.541 2  21255962.659 1
  22824523.409     9568528.148 3   7455994.065 2
  25032411.524     3438146.757 2   2679100.371 1
  25598400.498     3978402.500 2   3100039.472 1
  22196319.109   -12742874.149 4  -9929465.116 2
  23549575.969    -7218724.625 3  -5624945.356 1
 91  4  7 23  2 45.0040000  0  6 18 19 11 16 02 06
  25453338.421    27345496.184 2  21308134.919 1
  22830949.461     9602316.928 3   7482322.950 2
  25041691.899     3486929.444 2   2717112.801 1
  25605191.695     4014071.325 2   3127833.212 1
  22196337.396   -12742787.861 4  -9929397.841 2
  23546098.677    -7236979.130 3  -5639169.580 1
 91  4  7 23  3  0.0040000  0  6 18 19 11 16 02 06
  25466079.000    27412462.658 2  21360316.815 1
  22837395.602     9636167.461 3   7508699.959 2
  25050994.457     3535815.509 2   2755205.782 1
  25611993.384     4049812.115 2   3155682.954 1
  22196364.078   -12742639.394 4  -9929282.122 2
  23542633.073    -7255228.439 3  -5653389.746 1
 91  4  7 23  3 15.0040000  0  6 18 19 11 16 02 06
  25478825.577    27479438.565 2  21412505.615 1
  22843846.236     9670077.713 3   7535123.494 2
  25060322.798     3584802.484 2   2793377.401 1
  25618800.775     4085622.229 2   3183586.810 1
  22196406.648   -12742430.822 4  -9929119.578 2
  23539159.079    -7273474.574 3  -5667607.453 1
 91  4  7 23  3 30.0040000  0  6 18 19 11 16 02 06
  25491572.154    27546421.818 2  21464700.590 1
  22850310.058     9704046.154 3   7561592.380 2
  25069662.233     3633888.361 2   2831626.078 1
  25625628.247     4121500.098 2   3211543.426 1
  22196455.513   -12742163.813 4  -9928911.482 2
  23535683.584    -7291719.154 3  -5681823.948 1
 91  4  7 23  3 45.0040000  0  6 18 19 11 16 02 06
  25504329.218    27613417.222 2  21516904.571 1
  22856784.678     9738078.030 3   7588110.696 2
  25079021.753     3683077.918 2   2869955.553 1
  25632475.507     4157450.457 2   3239556.573 1
  22196517.269   -12741833.401 4  -9928653.994 2
  23532213.788    -7309956.701 3  -5696034.952 1
 91  4  7 23  4  0.0040000  0  6 18 19 11 16 02 06
  25517073.396    27680421.655 2  21569115.582 1
  22863279.082     9772170.207 3   7614675.993 2
  25088404.059     3732367.813 2   2908363.229 1
  25639332.060     4193469.855 2   3267623.471 1
  22196593.718   -12741442.786 4  -9928349.600 2
  23528743.991    -7328190.275 3  -5710242.858 1
 91  4  7 23  4 15.0040000  0  6 18 19 11 16 02 06
  25529824.471    27747434.409 2  21621333.543 1
  22869771.388     9806322.463 3   7641288.116 2
  25097797.158     3781757.591 2   2946848.731 1
  25646203.301     4229557.910 2   3295743.964 1
  22196677.658   -12740992.234 4  -9927998.494 2
  23525278.089    -7346419.994 3  -5724447.764 2
 91  4  7 23  4 30.0040000  0  6 18 19 11 16 02 06
  25542573.146    27814452.562 2  21673555.274 1
  22876284.079     9840532.278 3   7667945.074 2
  25107213.038     3831244.308 2   2985409.755 1
  25653075.747     4265711.290 2   3323915.258 1
  22196773.892   -12740484.465 4  -9927602.794 2
  23521809.789    -7364648.464 3  -5738651.697 1
 91  4  7 23  4 45.0040000  0  6 18 19 11 16 02 06
  25555337.409    27881480.741 2  21725784.828 1
  22882802.464     9874804.711 3   7694650.840 2
  25116652.904     3880832.520 2   3024049.868 1
  25659968.574     4301934.587 2   3352141.221 1
  22196884.217   -12739914.542 4  -9927158.686 2
  23518343.290    -7382870.688 3  -5752850.773 1
 91  4  7 23  5  0.0040000  0  6 18 19 11 16 02 06
  25568088.780    27948513.229 2  21778017.688 1
  22889337.942     9909133.863 3   7721400.777 2
  25126107.157     3930516.002 2   3062764.231 1
  25666884.484     4338221.860 2   3380417.156 1
  22197002.634   -12739288.362 4  -9926670.720 2
  23514873.493    -7401092.155 3  -5767049.263 1
 91  4  7 23  5 15.0040000  0  6 18 19 11 16 02 06
  25580856.341    28015553.762 2  21830257.143 1
  22895878.811     9943524.431 3   7748198.605 2
  25135581.500     3980299.171 2   3101556.239 1
  25673796.798     4374577.278 2   3408745.950 1
  22197135.142   -12738601.405 4  -9926135.398 2
  23511406.392    -7419308.279 3  -5781243.579 1
 91  4  7 23  5 30.0040000  0  6 18 19 11 16 02 06
  25593605.915    28082598.511 2  21882499.731 1
  22902443.068     9977972.543 3   7775041.245 2
  25145072.629     4030177.583 2   3140422.472 1
  25680735.197     4410996.720 2   3437124.549 1
  22197273.945   -12737857.819 4  -9925555.951 2
  23507938.990    -7437522.831 3  -5795436.689 1
 91  4  7 23  5 45.0040000  0  6 18 19 11 16 02 06
  25606363.883    28149646.384 2  21934744.578 1
  22909004.926    10012477.751 3   7801928.392 2
  25154582.946     4080150.364 2   3179362.266 1
  25687668.797     4447479.222 2   3465552.252 1
  22197427.442   -12737058.081 4  -9924932.755 2
  23504475.192    -7455736.462 3  -5809629.046 1
 91  4  7 23  6  0.0040000  0  6 18 19 11 16 02 06
  25619126.649    28216697.976 2  21986992.797 1
  22915578.475    10047040.687 3   7828860.510 2
  25164110.948     4130218.037 2   3218375.987 1
  25694625.182     4484024.950 2   3494029.311 1
  22197589.628   -12736201.655 4  -9924265.376 2
  23501008.990    -7473948.113 3  -5823819.897 2
 91  4  7 23  6 15.0040000  0  6 18 19 11 16 02 06
  25631875.922    28283753.437 2  22039243.608 1
  22922169.414    10081661.818 3   7855837.979 2
  25173655.440     4180380.680 2   3257463.719 1
  25701600.453     4520634.286 2   3522555.858 1
  22197764.109   -12735288.126 4  -9923553.513 2
  23497545.187    -7492157.358 3  -5838008.850 1
 91  4  7 23  6 30.0040000  0  6 18 19 11 16 02 06
  25644651.576    28350810.129 2  22091495.389 1
  22928768.144    10116339.020 3   7882859.147 2
  25183223.020     4230635.830 2   3296623.530 1
  25708560.734     4557304.878 2   3551130.219 1
  22197950.577   -12734319.698 4  -9922798.868 2
  23494077.789    -7510366.278 3  -5852197.548 1
 91  4  7 23  6 45.0040000  0  6 18 19 11 16 02 06
  25657415.843    28417869.132 2  22143749.321 1
  22935375.869    10151073.475 3   7909924.919 2
  25192797.788     4280984.275 2   3335856.041 1
  25715556.692     4594037.247 2   3579752.674 1
  22198145.444   -12733295.280 4  -9922000.590 2
  23490615.186    -7528573.464 3  -5866384.891 2
 91  4  7 23  7  0.0040000  0  6 18 19 11 16 02 06
  25670178.304    28484929.502 2  22196004.364 1
  22942000.984    10185864.751 3   7937034.972 2
  25202400.141     4331425.273 2   3375160.668 1
  25722558.941     4630830.607 2   3608422.671 1
  22198348.704   -12732215.411 4  -9921159.110 2
  23487148.386    -7546779.350 3  -5880571.240 2
 91  4  7 23  7 15.0040000  0  6 18 19 11 16 02 06
  25682936.873    28551990.375 2  22248259.385 1
  22948628.494    10220712.267 3   7964188.842 2
  25212012.986     4381957.751 2   3414536.615 1
  25729572.288     4667683.890 2   3637139.373 1
  22198563.355   -12731080.879 4  -9920275.028 2
  23483686.983    -7564984.445 3  -5894756.960 1
 91  4  7 23  7 30.0040000  0  6 18 19 11 16 02 06
  25695694.239    28619048.818 2  22300512.959 1
  22955273.995    10255613.626 3   7991384.671 2
  25221647.417     4432578.770 2   3453981.493 1
  25736596.127     4704594.241 2   3665900.477 1
  22198790.897   -12729894.254 4  -9919350.358 2
  23480215.384    -7583191.263 3  -5908944.044 2
 91  4  7 23  7 45.0040000  0  6 18 19 11 16 02 06
  25708457.904    28686103.959 2  22352763.485 1
  22961920.992    10290568.102 3   8018621.899 2
  25231292.641     4483287.255 2   3493494.523 1
  25743631.357     4741560.637 2   3694705.353 1
  22199025.336   -12728656.374 4  -9918385.752 2
  23476756.978    -7601400.400 3  -5923132.896 1
 91  4  7 23  8  0.0040000  0  6 18 19 11 16 02 06
  25721209.577    28753158.643 2  22405014.119 1
  22968586.278    10325578.990 3   8045903.064 2
  25240964.542     4534086.320 2   3533078.156 1
  25750671.682     4778586.130 2   3723556.236 1
  22199268.767   -12727364.000 4  -9917378.671 2
  23473288.979    -7619608.399 3  -5937320.888 1
 91  4  7 23  8 15.0040000  0  6 18 19 11 16 02 06
  25733978.638    28820211.845 2  22457263.143 1
  22975257.858    10360645.676 3   8073227.728 2
  25250650.539     4584974.916 2   3572731.553 1
  25757715.306     4815669.439 1   3752452.180 1
  22199528.688   -12726017.819 4  -9916329.674 2
  23469821.882    -7637815.803 3  -5951508.433 1
 91  4  7 23  8 30.0040000  0  6 18 19 11 16 02 06
  25746737.203    28887266.753 2  22509513.499 1
  22981941.134    10395771.521 3   8100598.481 2
  25260348.523     4635956.033 2   3612457.054 1
  25764799.099     4852813.708 2   3781395.546 1
  22199791.903   -12724614.537 4  -9915236.188 2
  23466355.379    -7656019.136 3  -5965692.764 1
 91  4  7 23  8 45.0040000  0  6 18 19 11 16 02 06
  25759502.967    28954324.564 2  22561766.577 1
  22988635.797    10430957.987 3   8128016.460 2
  25270072.592     4687030.863 2   3652255.575 1
  25771876.000     4890020.010 2   3810387.470 1
  22200071.909   -12723152.772 4  -9914097.119 2
  23462898.473    -7674216.842 3  -5979872.725 2
 91  4  7 23  9  0.0040000  0  6 18 19 11 16 02 06
  25772261.236    29021385.016 2  22614021.714 1
  22995347.853    10466205.306 3   8155481.861 2
  25279806.855     4738199.157 2   3692126.905 1
  25778963.393     4927288.161 2   3839427.836 1
  22200362.110   -12721632.590 4  -9912912.535 2
  23459438.270    -7692408.630 3  -5994048.088 1
 91  4  7 23  9 15.0040000  0  6 18 19 11 16 02 06
  25785017.406    29088446.924 2  22666277.556 1
  23002061.702    10501512.729 3   8182994.104 2
  25289557.304     4789459.726 2   3732070.156 1
  25786077.768     4964617.560 2   3868515.455 1
  22200663.702   -12720054.858 4  -9911683.104 2
  23455972.368    -7710595.226 3  -6008219.406 1
 91  4  7 23  9 30.0040000  0  6 18 19 11 16 02 06
  25797778.672    29155510.715 2  22718535.252 1
  23008800.440    10536880.813 3   8210553.624 2
  25299326.639     4840812.868 2   3772085.551 1
  25793178.655     5002007.674 2   3897650.418 1
  22200974.286   -12718419.114 4  -9910408.472 2
  23452513.063    -7728776.024 3  -6022386.209 1
 91  4  7 23  9 45.0040000  0  6 18 19 11 16 02 06
  25810540.234    29222576.623 2  22770794.172 1
  23015537.973    10572310.184 3   8238160.880 2
  25309119.661     4892258.703 2   3812173.096 1
  25800315.811     5039459.006 2   3926833.108 1
  22201296.561   -12716724.965 4  -9909088.318 2
  23449058.256    -7746950.313 3  -6036547.914 1
 91  4  7 23 10  0.0040000  0  6 18 19 11 16 02 06
  25823305.696    29289641.773 2  22823052.972 1
  23022288.101    10607797.918 3   8265813.616 2
  25318929.768     4943793.963 2   3852330.446 1
  25807454.172     5076968.341 2   3956060.933 1
  22201632.931   -12714975.327 4  -9907724.951 2
  23445601.050    -7765120.846 3  -6050706.711 1
 91  4  7 23 10 15.0040000  0  6 18 19 11 16 02 06
  25836062.168    29356705.512 2  22875310.185 1
  23029053.219    10643344.052 3   8293511.858 2
  25328755.166     4995418.335 2   3892557.145 1
  25814604.822     5114534.930 2   3985333.484 1
  22201974.995   -12713170.154 4  -9906318.293 2
  23442139.345    -7783287.475 3  -6064862.455 2
 91  4  7 23 10 30.0040000  0  6 18 19 11 16 02 06
  25848827.630    29423772.508 2  22927569.991 1
  23035833.327    10678953.693 3   8321259.587 2
  25338590.457     5047136.577 2   3932856.977 1
  25821755.170     5152163.877 2   4014654.626
  22202327.550   -12711304.472 4  -9904864.485 2
  23438684.538    -7801445.115 3  -6079011.191 1
 91  4  7 23 10 45.0040000  0  6 18 19 11 16 02 06
  25861589.795    29490838.057 2  22979829.076 1
  23042614.032    10714622.435 3   8349053.379 2
  25348456.030     5098943.880 2   3973226.246 1
  25828925.308     5189849.997 2   4044020.374 1
  22202692.997   -12709383.034 4  -9903367.236 2
  23435230.329    -7819598.108 3  -6093156.316 1
 91  4  7 23 11  0.0040000  0  6 18 19 11 16 02 06
  25874358.254    29557902.844 2  23032087.550 1
  23049418.120    10750351.197 3   8376893.922 1
  25358326.697     5150840.895 2   4013665.403 1
  25836129.621     5227594.077 2   4073431.488 1
  22203069.533   -12707404.965 4  -9901825.848 2
  23431777.018    -7837745.408 3  -6107297.015 2
 91  4  7 23 11 15.0040000  0  6 18 19 11 16 02 06
  25887116.222    29624963.162 2  23084342.177 1
  23056225.206    10786136.578 3   8404778.602 2
  25368221.346     5202823.691 2   4054171.468 1
  25843310.548     5265392.604 2   4102884.852 1
  22203457.465   -12705373.755 4  -9900243.065 2
  23428320.710    -7855890.257 3  -6121435.777 1
 91  4  7 23 11 30.0040000  0  6 18 19 11 16 02 06
  25899877.788    29692019.022 2  23136593.700 1
  23063048.782    10821978.994 3   8432707.704 2
  25378129.488     5254892.319 2   4094744.367 1
  25850510.965     5303245.489 2   4132380.402 1
  22203851.094   -12703289.116 4  -9898618.646 2
  23424873.397    -7874032.243 3  -6135572.318 2
 91  4  7 23 11 45.0040000  0  6 18 19 11 16 02 06
  25912640.852    29759071.449 2  23188842.566 1
  23069877.157    10857879.773 3   8460682.311 2
  25388053.815     5307047.747 2   4135384.919 1
  25857712.278     5341153.456 2   4161918.902 1
  22204259.110   -12701149.724 4  -9896951.555 2
  23421424.283    -7892169.925 3  -6149705.526 1
 91  4  7 23 12  0.0040000  0  6 18 19 11 16 02 06
  25925396.420    29826119.114 2  23241087.396 1
  23076723.519    10893837.607 3   8488701.347 2
  25397996.434     5359288.561 2   4176091.997 1
  25864956.762     5379114.959 2   4191499.060 1
  22204674.024   -12698956.767 4  -9895242.732 2
  23417971.575    -7910304.342 3  -6163836.174 1
 91  4  7 23 12 15.0040000  0  6 18 19 11 16 02 06
  25938142.997    29893164.242 2  23293330.594 1
  23083574.675    10929855.338 3   8516767.068 2
  25407952.543     5411616.938 2   4216867.344 1
  25872194.353     5417132.083 2   4221122.696 1
  22205106.925   -12696707.720 4  -9893490.203 2
  23414520.663    -7928432.729 3  -6177962.130 1
 91  4  7 23 12 30.0040000  0  6 18 19 11 16 02 06
  25950911.160    29960205.581 2  23345570.419 1
  23090440.219    10965932.315 3   8544878.960 1
  25417930.834     5464031.743 2   4257709.934 1
  25879429.841     5455203.987 2   4250788.910 1
  22205542.225   -12694403.532 4  -9891694.706 2
  23411073.351    -7946555.778 3  -6192083.942 2
 91  4  7 23 12 45.0040000  0  7 18 19 11 16 02 15 06
  25963667.029    30027245.028 2  23397808.714 1
  23097316.861    11002070.508 3   8573038.562 1
  25427921.717     5516534.760 2   4298621.351 1
  25886693.516     5493332.624 2   4280499.774 1
  22205991.913   -12692042.149 4  -9889854.633 2
  25899134.003           0.758 2         0.165 1
  23407625.140    -7964671.150 3  -6206199.746 1
 91  4  7 23 13  0.0040000  0  7 18 19 11 16 02 15 06
  25976422.597    30094278.841 2  23450043.090 1
  23104207.891    11038266.126 3   8601242.893 2
  25437928.788     5569121.878 2   4339598.270 1
  25893947.594     5531513.641 2   4310251.076 1
  22206453.292   -12689627.466 4  -9887973.039 2
  25895404.883      -19584.771 2    -15261.529 1
  23404182.321    -7982782.636 3  -6220312.523 1
 91  4  7 23 13 15.0040000  0  7 18 19 11 16 02 15 06
  25989182.362    30161308.585 2  23502273.938 1
  23111105.216    11074521.266 3   8629493.602 2
  25447953.847     5621794.865 2   4380642.116 1
  25901227.153     5569748.823 2   4340044.643 1
  22206923.366   -12687157.514 4  -9886048.373 2
  25891685.361      -39125.375 2    -30487.806 1
  23400729.913    -8000887.942 3  -6234420.516 1
 91  4  7 23 13 30.0040000  0  7 18 19 11 16 02 15 06
  26001928.939    30228333.779 2  23554501.552 1
  23118012.732    11110835.763 3   8657790.579 1
  25457986.103     5674553.016 2   4421752.300 1
  25908517.505     5608037.361 2   4369879.694 1
  22207400.638   -12684632.628 4  -9884080.903 2
  25887970.030      -58620.923 2    -45679.346 1
  23397288.896    -8018987.229 3  -6248523.779 1
 91  4  7 23 13 45.0040000  0  7 18 19 11 16 02 15 06
  26014689.607    30295353.575 2  23606724.972 1
  23124936.141    11147209.078 3   8686133.386 2
  25468043.842     5727395.440 2   4462928.141 1
  25915811.159     5646378.802 2   4399756.034 1
  22207896.194   -12682053.357 4  -9882071.050 3
  25884278.088      -78071.523 2    -60835.567 1
  23393843.678    -8037080.938 3  -6262622.712 1
 91  4  7 23 14  0.0040000  0  7 18 19 11 16 02 15 06
  26027441.275    30362363.506 2  23658940.745 1
  23131871.538    11183637.426 2   8714519.076 2
  25478112.971     5780318.080 2   4504166.516 1
  25923108.705     5684768.690 2   4429670.421 1
  22208393.848   -12679423.657 4  -9880021.899 2
  25880587.943      -97480.684 2    -75959.691 1
  23390407.158    -8055172.721 3  -6276720.141 1
 91  4  7 23 14 15.0040000  0  7 18 19 11 16 02 15 06
  26040183.058    30429337.621 2  23711128.606 1
  23138803.938    11220095.129 3   8742927.630 2
  25488188.993     5833294.953 2   4545447.161 1
  25930421.541     5723180.894 2   4459601.819 1
  22208899.001   -12676769.388 4  -9877953.618 2
  25876876.512     -116873.595 2    -91070.893 1
  23386955.348    -8073288.135 3  -6290836.021 1
 91  4  7 23 14 30.0040000  0  7 18 19 11 16 02 15 06
  26052923.335    30496299.718 2  23763307.108 1
  23145756.126    11256606.268 3   8771377.831 2
  25498288.703     5886349.536 2   4586788.313 1
  25937749.368     5761638.892 2   4489568.935 1
  22209414.943   -12674066.665 4  -9875847.574 2
  25873212.150     -136226.149 2   -106150.574 1
  23383509.833    -8091403.243 3  -6304951.621 1
 91  4  7 23 14 45.0040000  0  7 18 19 11 16 02 15 06
  26065670.811    30563264.964 2  23815487.674 1
  23152710.413    11293186.066 3   8799881.526 1
  25508404.900     5939496.707 2   4628201.673 1
  25945073.599     5800157.656 2   4519583.448 1
  22209938.380   -12671300.154 4  -9873691.824 2
  25869536.392     -155522.689 2   -121186.632 1
  23380064.619    -8109502.464 3  -6319054.859 1
 91  4  7 23 15  0.0040000  0  7 18 19 11 16 02 15 06
  26078409.291    30630233.303 2  23867670.552 1
  23159683.586    11329835.016 3   8828439.121 2
  25518538.486     5992736.702 2   4669687.318 1
  25952414.016     5838737.540 2   4549645.707 1
  22210477.705   -12668469.494 4  -9871486.094 2
  25865871.729     -174762.168 2   -136178.225 1
  23376622.101    -8127585.229 3  -6333145.282 1
 91  4  7 23 15 15.0040000  0  7 18 19 11 16 02 15 06
  26091151.370    30697206.957 2  23919857.575 1
  23166675.945    11366555.075 3   8857052.120 2
  25528684.958     6046071.202 2   4711246.586 1
  25959776.320     5877380.111 1   4579756.970 1
  22211029.926   -12665572.883 4  -9869228.958 2
  25862220.856     -193942.261 2   -151123.700 1
  23373185.879    -8145649.378 3  -6347221.162 1
 91  4  7 23 15 30.0040000  0  7 18 19 11 16 02 15 06
  26103900.944    30764179.184 2  23972043.527 1
  23173679.398    11403340.254 3   8885715.852 2
  25538856.616     6099493.631 2   4752874.388 1
  25967137.724     5916078.943 2   4609911.730 1
  22211591.736   -12662616.477 4  -9866925.241 2
  25858595.167     -213068.799 2   -166027.343 1
  23369752.657    -8163700.903 3  -6361287.228 1
 91  4  7 23 15 45.0040000  0  6 18 19 11 02 15 06
  26116645.724    30831149.836 2  24024228.658 1
  23180686.445    11440191.042 3   8914430.709 2
  25549030.076     6153004.090 2   4794570.775 1
  22212167.937   -12659599.977 4  -9864574.699 2
  25854967.380     -232140.991 2   -180888.581 1
  23366320.335    -8181739.324 3  -6375343.113 1
 91  4  7 23 16  0.0040000  0  6 18 19 11 02 15 06
  26129403.691    30898117.235 2  24076410.842 1
  23187711.183    11477106.012 3   8943195.575 2
  25559233.510     6206600.780 2   4836334.438 1
  22212751.931   -12656524.753 4  -9862178.397 2
  25851339.589     -251159.916 2   -195708.312 1
  23362887.109    -8199765.849 3  -6389389.686 1
 91  4  7 23 16 15.0040000  0  6 18 19 11 02 15 06
  26142135.876    30965079.587 2  24128589.087 1
  23194746.710    11514083.363 3   8972009.059 2
  25569446.542     6260281.521 2   4878163.527 1
  22213348.820   -12653392.899 4  -9859737.962 2
  25847725.893     -270127.021 2   -210487.816 1
  23359456.885    -8217782.313 3  -6403428.439 1
 91  4  7 23 16 30.0040000  0  6 18 19 11 02 15 06
  26154876.455    31032040.901 2  24180766.963 1
  23201803.224    11551127.582 3   9000874.634 2
  25579680.554     6314050.519 2   4920061.372 1
  22213955.900   -12650199.836 4  -9857249.844 2
  25844128.382     -289037.308 2   -225223.039 1
  23356033.554    -8235783.962 3  -6417455.656 1
 91  4  7 23 16 45.0040000  0  5 19 11 02 15 06
  23208867.836    11588272.764 3   9029818.904 2
  25589936.457     6367941.439 2   4962054.221 1
  22214580.967   -12646911.470 4  -9854687.456 2
  25840546.760     -307856.488 2   -239887.123 1
  23352615.322    -8253736.554 3  -6431444.637 1
 91  4  7 23 17  0.0040000  0  5 19 11 02 15 06
  23215952.232    11625472.235 3   9058805.466 1
  25600200.749     6421907.264 2   5004105.492 1
  22215216.224   -12643574.716 4  -9852087.365 2
  25836978.932     -326630.885 2   -254516.388 1
  23349200.986    -8271686.793 3  -6445431.761 1
 91  4  7 23 17 15.0040000  0  5 19 11 02 15 06
  23223040.523    11662733.112 3   9087839.871 2
  25610486.929     6475954.743 2   5046220.409 1
  22215861.978   -12640182.731 4  -9849444.236 2
  25833409.303     -345353.213 2   -269105.069 1
  23345784.251    -8289627.202 3  -6459411.275 1
 91  4  7 23 17 30.0040000  0  5 19 11 02 15 06
  23230135.712    11700054.453 3   9116921.389 2
  25620790.497     6530082.481 2   5088397.791 1
  22216514.926   -12636736.412 4  -9846758.767 2
  25829854.065     -364023.775 2   -283653.441 1
  23342373.213    -8307558.884 3  -6473383.946 1
 91  4  7 23 17 45.0040000  0  5 19 11 02 15 06
  23237253.385    11737436.979 3   9146050.576 2
  25631105.456     6584290.777 2   5130637.931 1
  22217184.962   -12633235.157 4  -9844030.494 2
  25826325.208     -382641.671 2   -298160.808
  23338962.472    -8325480.989 3  -6487349.155 1
 91  4  7 23 18  0.0040000  0  5 19 11 02 15 06
  23244375.255    11774875.864 3   9175223.706 2
  25641436.604     6638574.712 2   5172937.082 1
  22217859.195   -12629683.732 4  -9841263.126 2
  25822794.850     -401210.808 2   -312630.069 1
  23335555.631    -8343397.876 3  -6501310.324 2
 91  4  7 23 18 15.0040000  0  5 19 11 02 15 06
  23251512.713    11812378.391 3   9204446.408 2
  25651781.242     6692941.100 2   5215300.438 1
  22218547.820   -12626075.220 4  -9838451.278 2
  25819264.496     -419724.025 2   -327055.837 1
  23332144.890    -8361302.234 3  -6515261.730 1
 91  4  7 23 18 30.0040000  0  5 19 11 02 15 06
  23258659.764    11849938.864 3   9233714.264 1
  25662146.265     6747384.018 2   5257723.454 1
  22219242.439   -12622415.115 4  -9835599.227 2
  25815748.827     -438186.644 2   -341442.537 1
  23328743.149    -8379199.711 3  -6529207.748 2
 91  4  7 23 18 45.0040000  0  5 19 11 02 15 06
  23265815.509    11887556.988 3   9263027.040 1
  25672515.486     6801902.503 2   5300205.290 1
  22219950.250   -12618703.849 4  -9832707.307 3
  25812251.751     -456598.435 2   -355789.306 1
  23325335.405    -8397090.466 3  -6543148.567 1
 91  4  7 23 19  0.0040000  0  5 19 11 02 15 06
  23272994.040    11925236.459 2   9292387.622 1
  25682902.697     6856499.934 2   5342748.713 1
  22220665.255   -12614937.998 4  -9829772.856 3
  25808742.377     -474955.521 2   -370093.376 1
  23321935.161    -8414970.821 3  -6557081.238 2
 91  4  7 23 19 15.0040000  0  5 19 11 02 15 06
  23280171.371    11962974.693 3   9321794.003 2
  25693312.088     6911173.354 2   5385351.301 1
  22221391.952   -12611120.309 4  -9826798.011 2
  25805258.489     -493260.384 2   -384356.779 1
  23318532.216    -8432843.253 3  -6571007.757 2
 91  4  7 23 19 30.0040000  0  5 19 11 02 15 06
  23287364.294    12000772.333 3   9351246.663 2
  25703729.877     6965922.899 2   5428013.209 1
  22222127.640   -12607250.356 4  -9823782.439 2
  25801797.387     -511511.860 2   -398578.589 1
  23315129.270    -8450706.979 3  -6584927.495 2
 91  4  7 23 19 45.0040000  0  5 19 11 02 15 06
  23294569.206    12038625.396 3   9380742.502 1
  25714159.056     7020744.357 2   5470731.191 1
  22222875.923   -12603331.980 4  -9820729.145 3
  25798330.286     -529713.193 2   -412761.352 1
  23311734.121    -8468565.704 3  -6598843.319 1
 91  4  7 23 20  0.0040000  0  5 19 11 02 15 06
  23301785.809    12076534.922 2   9410282.354 2
  25724604.128     7075638.380 2   5513505.693 1
  22223631.701   -12599364.364 4  -9817637.468 2
  25794885.373     -547863.303 2   -426904.126 1
  23308337.475    -8486418.326 3  -6612754.406 2
 91  4  7 23 20 15.0040000  0  5 19 11 02 15 06
  23309004.811    12114497.511 3   9439863.545 2
  25735071.681     7130601.283 2   5556333.870 1
  22224392.574   -12595350.751 4  -9814509.954 2
  25791429.366     -565965.262 2   -441009.431 1
  23304944.425    -8504268.008 3  -6626663.194 1
 91  4  7 23 20 30.0040000  0  5 19 11 02 15 06
  23316241.203    12152513.524 2   9469486.361 2
  25745535.337     7185632.986 2   5599215.638 1
  22225165.440   -12591291.142 4  -9811346.604 2
  25788001.537     -584018.440 2   -455076.733 1
  23301547.173    -8522114.364 3  -6640569.395 2
 91  4  7 23 20 45.0040000  0  5 19 11 02 15 06
  23323487.484    12190585.919 2   9499153.097 2
  25756028.075     7240735.937 2   5642152.959 1
  22225949.094   -12587182.493 4  -9808145.045 2
  25784567.714     -602019.498 2   -469103.408 1
  23298149.925    -8539954.424 3  -6654470.677 1
 91  4  7 23 21  0.0040000  0  5 19 11 02 15 06
  23330741.566    12228713.461 3   9528862.840 2
  25766516.912     7295908.577 2   5685144.591 1
  22226736.649   -12583026.220 4  -9804906.369 2
  25781148.283     -619969.129 2   -483090.006 1
  23294755.077    -8557789.044 3  -6668367.726 2
 91  4  7 23 21 15.0040000  0  5 19 11 02 15 06
  23338009.132    12266898.770 2   9558617.591 2
  25777041.125     7351153.234 2   5728192.278 1
  22227540.995   -12578819.851 4  -9801628.656 2
  25777748.334     -637864.695 2   -497034.516 1
  23291364.425    -8575615.642 3  -6682258.523 2
 91  4  7 23 21 30.0040000  0  5 19 11 02 15 06
  23345288.992    12305143.064 2   9588418.275 2
  25787559.344     7406470.794 2   5771296.821 1
  22228348.935   -12574562.214 4  -9798311.001 2
  25774357.382     -655704.279 2   -510935.395 2
  23287973.769    -8593432.720 3  -6696141.889 2
 91  4  7 23 21 45.0040000  0  5 19 11 02 15 06
  23352570.951    12343447.790 2   9618266.072 2
  25798112.939     7461862.279 2   5814458.947 1
  22229168.869   -12570251.951 4  -9794952.328 2
  25770976.926     -673486.031 2   -524791.171 1
  23284589.413    -8611238.722 3  -6710016.642 2
 91  4  7 23 22  0.0040000  0  5 19 11 02 15 06
  23359876.593    12381810.746 2   9648159.233 1
  25808652.443     7517325.040 2   5857676.658 1
  22229999.591   -12565891.297 4  -9791554.407 2
  25767608.755     -691211.967 2   -538603.443 1
  23281198.762    -8629035.840 3  -6723884.464 2
 91  4  7 23 22 15.0040000  0  5 19 11 02 15 06
  23367182.236    12420233.027 2   9678098.620 2
  25819228.819     7572859.982 2   5900950.594 1
  22230839.609   -12561479.250 4  -9788116.418 2
  25764218.103     -708880.728 2   -552371.214 1
  23277814.405    -8646822.609 3  -6737744.232 2
 91  4  7 23 22 30.0040000  0  5 19 11 02 15 06
  23374507.964    12458719.729 2   9708088.213 1
  25829800.999     7628471.744 2   5944284.340 1
  22231689.823   -12557011.121 4  -9784634.751 2
  25760886.508     -726486.942 2   -566090.237 1
  23274436.641    -8664594.104 3  -6751592.077 2
 91  4  7 23 22 45.0040000  0  5 19 11 02 15 06
  23381844.188    12497267.647 2   9738125.505 2
  25840407.957     7684156.749 2   5987675.177 1
  22232549.626   -12552489.970 4  -9781111.752 3
  25757526.137     -744033.333 2   -579762.553 1
  23271055.282    -8682353.188 3  -6765430.263 2
 91  4  7 23 23  0.0040000  0  5 19 11 02 15 06
  23389190.900    12535877.581 2   9768211.120 1
  25851010.718     7739915.387 2   6031123.416 1
  22233418.123   -12547915.123 4  -9777546.925 2
  25754205.334     -761518.651 2   -593387.381 1
  23267676.623    -8700098.928 3  -6779258.059 2
 91  4  7 23 23 15.0040000  0  5 19 11 02 15 06
  23396549.007    12574549.890 2   9798345.335 1
  25861644.357     7795747.703 2   6074629.079 1
  22234302.513   -12543286.448 4  -9773940.134 2
  25750898.025     -778942.243 2   -606964.009 1
  23264298.261    -8717830.894 3  -6793075.115 2
 91  4  7 23 23 30.0040000  0  5 19 11 02 15 06
  23403920.603    12613282.568 2   9828526.603 2
  25872272.600     7851651.368 2   6118190.336 1
  22235190.799   -12538605.841 4  -9770292.891 3
  25747594.310     -796305.581 2   -620493.861 1
  23260929.492    -8735550.767 3  -6806882.741 2
 91  4  7 23 23 45.0040000  0  5 19 11 02 15 06
  23411301.495    12652077.651 2   9858756.491 1
  25882928.422     7907627.938 2   6161808.380 1
  22236091.675   -12533871.271 4  -9766603.600 3
  25744306.488     -813606.391 2   -633974.861 1
  23257559.226    -8753256.540 3  -6820679.395 2
 91  4  7 23 24  0.0040000  0  5 19 11 02 15 06
  23418702.172    12690936.412 2   9889035.990 1
  25893598.934     7963678.470 2   6205484.048 1
  22237001.844   -12529081.610 4  -9762871.380 2
  25741032.156     -830843.338 2   -647406.088 1
  23254195.557    -8770946.671 3  -6834463.851 2
 91  4  7 23 24 15.0040000  0  5 19 11 02 15 06
  23426105.845    12729857.144 2   9919363.791 1
  25904273.346     8019800.757 2   6249215.665 1
  22237926.404   -12524238.876 4  -9759097.797 2
  25737749.425     -848017.681 2   -660788.589 1
  23250829.188    -8788622.767 3  -6848237.372 2
 91  4  7 23 24 30.0040000  0  5 19 11 02 15 06
  23433526.607    12768840.575 2   9949740.436 1
  25914957.350     8075995.016 2   6293003.338 1
  22238857.260   -12519342.233 4  -9755282.218 3
  25734515.267     -865128.030 2   -674121.168 1
  23247468.512    -8806283.964 3  -6861999.294 2
 91  4  7 23 24 45.0040000  0  5 19 11 02 15 06
  23440950.968    12807892.262 2   9980170.272 1
  25925676.727     8132266.407 2   6336851.076 1
  22239800.706   -12514386.437 4  -9751420.538 3
  25731254.424     -882168.921 2   -687399.664 1
  23244112.935    -8823924.804 3  -6875745.337 2
 91  4  7 23 25  0.0040000  0  5 19 11 02 15 06
  23448397.512    12847004.585 2  10010647.368 1
  25936401.801     8188607.045 2   6380752.841 1
  22240753.148   -12509379.128 4  -9747518.714 2
  25728029.554     -899147.506 2   -700629.685 1
  23240755.858    -8841552.558 3  -6889481.182 2
 91  4  7 23 25 15.0040000  0  5 19 11 02 15 06
  23455851.552    12886180.737 2  10041174.181 2
  25947128.376     8245019.850 2   6424710.809 1
  22241714.581   -12504317.078 4  -9743574.247 3
  25724805.290     -916060.146 2   -713808.207 1
  23237404.478    -8859163.822 3  -6903204.202 2
 91  4  7 23 25 30.0040000  0  5 19 11 02 15 06
  23463322.679    12925418.716 2  10071749.175 2
  25957879.533     8301502.468 2   6468723.182 1
  22242689.206   -12499202.357 4  -9739588.734 2
  25721610.700     -932908.453 2   -726936.642 1
  23234058.495    -8876760.465 3  -6916915.818 2
 91  4  7 23 25 45.0040000  0  5 19 11 02 15 06
  23470797.105    12964719.150 2  10102372.834 1
  25968648.377     8358055.219 2   6512790.186 1
  22243671.627   -12494034.464 4  -9735561.790 2
  25718411.015     -949691.406 2   -740014.143 1
  23230713.410    -8894341.532 3  -6930615.289 2
 91  4  7 23 26  0.0040000  0  5 19 11 02 15 06
  23478290.717    13004085.034 2  10133047.505 1
  25979421.421     8414680.655 2   6556913.896 1
  22244665.138   -12488810.542 4  -9731491.180 3
  25715224.222     -966405.592 2   -753038.044 1
  23227370.725    -8911904.035 3  -6944300.315 2
 91  4  7 23 26 15.0040000  0  5 19 11 02 15 06
  23485791.824    13043518.669 2  10163774.948 2
  25990210.952     8471380.741 2   6601095.721 1
  22245669.742   -12483528.402 4  -9727375.213 2
  25712072.202     -983048.491 2   -766006.399 1
  23224033.436    -8929445.678 3  -6957969.060 2
 91  4  7 23 26 30.0040000  0  5 19 11 02 15 06
  23493312.419    13083017.447 2  10194553.160 2
  26001019.067     8528152.431 2   6645333.357 1
  22246689.036   -12478190.597 4  -9723215.857 2
  25708912.988     -999622.368 2   -778921.009 1
  23220695.847    -8946968.674 3  -6971623.304 2
 91  4  7 23 26 45.0040000  0  5 19 11 02 15 06
  23500837.511    13122581.569 2  10225382.285 1
  26011827.187     8584995.707 2   6689626.780 1
  22247714.027   -12472797.045 4  -9719013.068 3
  25705769.066    -1016126.511 2   -791781.273 1
  23217364.255    -8964472.602 3  -6985262.666 2
 91  4  7 23 27  0.0040000  0  5 19 11 02 15 06
  23508385.685    13162211.415 2  10256262.649 1
  26022665.286     8641910.356 2   6733975.804 1
  22248748.912   -12467347.590 4  -9714766.730 3
  25702633.536    -1032560.530 2   -804586.835 1
  23214036.857    -8981957.149 3  -6998886.928 2
 91  4  7 23 27 15.0040000  0  5 19 11 02 15 06
  23515934.157    13201907.809 2  10287194.850 1
  26033503.978     8698896.893 2   6778380.873 1
  22249796.985   -12461841.543 4  -9710476.278 2
  25699524.091    -1048922.990 2   -817336.736 1
  23210713.659    -8999421.305 3  -7012495.317 2
 91  4  7 23 27 30.0040000  0  5 19 11 02 15 06
  23523496.121    13241673.335 2  10318180.903 2
  26044362.463     8755957.585 2   6822843.670 1
  22250857.352   -12456276.303 4  -9706139.711 3
  25696424.836    -1065211.041 2   -830028.588 1
  23207400.949    -9016862.224 3  -7026085.601 1
 91  4  7 23 27 45.0040000  0  5 19 11 02 15 06
  23531078.175    13281502.604 2  10349216.645 2
  26055230.241     8813086.599 2   6867359.742 1
  22251923.713   -12450657.394 4  -9701761.328 2
  25693348.066    -1081429.646 2   -842666.372
  23204081.049    -9034285.238 3  -7039661.914 2
 91  4  7 23 28  0.0040000  0  5 19 11 02 15 06
  23538675.516    13321399.663 2  10380305.211 1
  26066117.200     8870287.538 2   6911931.833 1
  22253005.665   -12444980.968 4  -9697338.114 3
  25690259.905    -1097574.342 2   -855246.522 1
  23200774.639    -9051686.156 3  -7053221.021 2
 91  4  7 23 28 15.0040000  0  6 19 11 13 02 15 06
  23546274.052    13361362.412 2  10411444.950 2
  26077017.658     8927558.092 2   6956558.182 1
  25730825.122           0.525 2         0.305 1
  22254094.812   -12439248.890 4  -9692871.536 3
  25687210.113    -1113646.954 2   -867770.459 1
  23197460.733    -9069066.708 3  -7066764.262 1
 91  4  7 23 28 30.0040000  0  6 19 11 13 02 15 06
  23553895.975    13401394.862 2  10442639.013 1
  26087932.800     8984901.802 2   7001241.521 1
  25721399.644      -49525.930 2    -38591.914 1
  22255198.045   -12433457.382 4  -9688358.662 3
  25684151.330    -1129643.120 2   -880234.911 1
  23194160.317    -9086422.790 3  -7080288.432 2
 91  4  7 23 28 45.0040000  0  6 19 11 13 02 15 06
  23561525.996    13441490.387 2  10473882.213 2
  26098856.038     9042311.881 2   7045976.582 1
  25711975.672      -99040.925 2    -77175.167 1
  22256309.677   -12427613.049 4  -9683804.620 3
  25681134.222    -1145569.043 2   -892644.562 1
  23190860.503    -9103760.779 3  -7093798.500 2
 91  4  7 23 29  0.0040000  0  6 19 11 13 02 15 06
  23569168.005    13481651.578 2  10505176.597 1
  26109793.665     9099790.566 2   7090765.156 1
  25702554.094     -148541.388 2   -115747.160 1
  22257433.300   -12421713.293 4  -9679207.382 3
  25678118.310    -1161421.868 2   -904997.362 1
  23187563.685    -9121077.928 3  -7107292.332 2
 91  4  7 23 29 15.0040000  0  6 19 11 13 02 15 06
  23576822.905    13521878.214 2  10536521.961 2
  26120737.289     9157337.242 2   7135606.632 1
  25693143.305     -198027.390 2   -154307.532 1
  22258566.217   -12415758.583 4  -9674567.340 3
  25675110.490    -1177201.532 2   -917293.087 1
  23184272.561    -9138374.315 3  -7120769.990 2
 91  4  7 23 29 30.0040000  0  6 19 11 13 02 15 06
  23584497.292    13562169.907 2  10567918.013 2
  26131711.195     9214950.925 2   7180500.368 1
  25683730.723     -247498.896 2   -192856.699 1
  22259709.625   -12409749.576 4  -9669884.982 2
  25672135.049    -1192908.073 2   -929531.809 1
  23180987.435    -9155650.252 3  -7134231.706 2
 91  4  7 23 29 45.0040000  0  6 19 11 13 02 15 06
  23592169.582    13602525.507 2  10599363.881 1
  26142672.802     9272630.079 2   7225445.080 1
  25674313.041     -296956.629 2   -231395.301 1
  22260861.125   -12403687.325 4  -9665161.121 3
  25669154.216    -1208542.279 2   -941714.140 1
  23177704.709    -9172906.818 3  -7147678.323 2
 91  4  7 23 30  0.0040000  0  6 19 11 13 02 15 06
  23599862.855    13642947.658 2  10630861.606 2
  26153668.293     9330377.094 2   7270442.719 1
  25664900.158     -346397.535 2   -269920.478 1
  22262027.018   -12397569.298 4  -9660393.810 3
  25666184.171    -1224101.120 2   -953837.842 1
  23174421.682    -9190141.125 3  -7161107.613 2
 91  4  7 23 30 15.0040000  0  6 19 11 13 02 15 06
  23607567.523    13683434.128 2  10662409.451 1
  26164677.570     9388189.324 2   7315491.125 1
  25655500.764     -395823.895 2   -308434.316 1
  22263201.309   -12391398.043 4  -9655585.030 3
  25663241.707    -1239586.657 2   -965904.570 1
  23171149.749    -9207355.268 3  -7174521.167 2
 91  4  7 23 30 30.0040000  0  6 19 11 13 02 15 06
  23615276.087    13723981.763 2  10694004.949 1
  26175683.850     9446063.400 2   7360587.757 1
  25646093.880     -445238.017 2   -346938.876 1
  22264385.188   -12385176.405 4  -9650736.978 3
  25660304.639    -1255001.141 2   -977916.017 1
  23167874.513    -9224551.955 3  -7187921.149 2
 91  4  7 23 30 45.0040000  0  6 19 11 13 02 15 06
  23623012.231    13764594.484 2  10725651.162 1
  26186714.115     9504003.056 2   7405735.486 1
  25636699.581     -494635.288 2   -385430.313
  22265580.161   -12378900.456 4  -9645846.610 3
  25657400.552    -1270340.475 2   -989868.639 1
  23164606.475    -9241727.105 3  -7201304.340 2
 91  4  7 23 31  0.0040000  0  6 19 11 13 02 15 06
  23630749.273    13805271.549 2  10757347.519 1
  26197751.875     9562006.885 2   7450933.215 1
  25627306.487     -544016.142 2   -423909.102 1
  22266784.724   -12372571.205 4  -9640914.710 3
  25654487.766    -1285605.284 2  -1001763.160 1
  23161342.338    -9258881.354 3  -7214671.236 2
 91  4  7 23 31 15.0040000  0  6 19 11 13 02 15 06
  23638502.204    13846009.531 2  10789091.338 1
  26208793.230     9620071.235 2   7496178.123 1
  25617907.093     -593383.755 2   -462377.132 1
  22267998.286   -12366192.000 4  -9635943.884 3
  25651587.876    -1300798.528 2  -1013601.917 1
  23158085.089    -9276018.016 3  -7228024.431 2
 91  4  7 23 31 30.0040000  0  6 19 11 13 02 15 06
  23646275.225    13886812.715 2  10820885.970 1
  26219861.868     9678200.018 2   7541473.244 1
  25608520.891     -642733.537 2   -500831.742 1
  22269222.039   -12359758.743 4  -9630930.931 3
  25648721.259    -1315915.461 2  -1025381.243
  23154821.850    -9293132.508 3  -7241360.345 2
 91  4  7 23 31 45.0040000  0  6 19 11 13 02 15 06
  23654045.846    13927677.843 2  10852728.869 1
  26230935.000     9736389.581 2   7586815.706 1
  25599118.500     -692068.717 2   -539274.559 1
  22270458.981   -12353275.001 4  -9625878.651 3
  25645854.646    -1330959.363 2  -1037103.709 1
  23151571.800    -9310228.050 3  -7254681.500 2
 91  4  7 23 32  0.0040000  0  6 19 11 13 02 15 06
  23661829.058    13968605.794 2  10884620.726 1
  26242021.625     9794640.286 2   7632205.811 1
  25589743.990     -741387.939 2   -577704.944 1
  22271700.721   -12346739.867 4  -9620786.321 3
  25643005.715    -1345928.785 2  -1048768.019 1
  23148323.250    -9327303.593 3  -7267987.064 2
 91  4  7 23 32 15.0040000  0  6 19 11 13 02 15 06
  23669639.252    14009602.544 2  10916566.148 1
  26253114.846     9852958.058 2   7677648.239 1
  25580352.990     -790684.632 2   -616118.148 1
  22272954.157   -12340147.277 4  -9615649.217 2
  25640174.177    -1360817.176 2  -1060369.281 1
  23145074.399    -9344352.859 3  -7281272.165 2
 91  4  7 23 32 30.0040000  0  6 19 11 13 02 15 06
  23677453.341    14050668.119 2  10948565.236 1
  26264221.857     9911342.359 2   7723142.442 1
  25570968.886     -839958.419 2   -654513.081 1
  22274217.478   -12333497.450 4  -9610467.518 3
  25637352.830    -1375624.388 2  -1071907.229 1
  23141835.442    -9361375.599 3  -7294536.579 2
 91  4  7 23 32 45.0040000  0  6 19 11 13 02 15 06
  23685276.422    14091802.337 2  10980617.831 1
  26275348.055     9969792.569 2   7768688.079 1
  25561607.268     -889209.016 2   -692890.170 1
  22275497.295   -12326790.549 4  -9605241.351 3
  25634552.170    -1390350.364 2  -1083381.974 1
  23138606.977    -9378371.936 3  -7307780.427 2
 91  4  7 23 33  0.0040000  0  6 19 11 13 02 15 06
  23693115.697    14133008.489 2  11012726.471 1
  26286481.447    10028311.888 2   7814287.430 1
  25552235.755     -938432.760 2   -731246.488 1
  22276783.105   -12320023.321 4  -9599968.162 3
  25631763.499    -1404991.081 2  -1094790.202 1
  23135373.714    -9395338.224 3  -7321000.862 2
 91  4  7 23 33 15.0040000  0  6 19 11 13 02 15 06
  23700967.562    14174278.951 2  11044885.191 1
  26297633.126    10086892.227 2   7859934.452 1
  25542860.045     -987637.046 2   -769587.709 1
  22278079.704   -12313203.692 4  -9594654.144 3
  25628977.528    -1419553.968 2  -1106137.858 1
  23132151.243    -9412282.072 3  -7334203.808 2
 91  4  7 23 33 30.0040000  0  6 19 11 13 02 15 06
  23708841.310    14215616.190 2  11077095.979 2
  26308793.204    10145535.751 2   7905630.607 1
  25533517.914    -1036818.824 2   -807911.350 1
  22279389.500   -12306329.090 4  -9589297.308 3
  25626245.819    -1434036.346 2  -1117423.066 1
  23128931.774    -9429200.685 3  -7347387.092 2
 91  4  7 23 33 45.0040000  0  6 19 11 13 02 15 06
  23716717.457    14257017.848 2  11109356.941 1
  26319963.167    10204239.669 2   7951373.901 1
  25524160.793    -1085980.369 2   -846218.844 1
  22280710.386   -12299402.011 4  -9583899.559 3
  25623494.325    -1448440.206 2  -1128646.859 1
  23125717.697    -9446096.297 3  -7360552.467 2
 91  4  7 23 34  0.0040000  0  6 19 11 13 02 15 06
  23724606.796    14298487.359 2  11141670.779 1
  26331146.025    10263007.111 2   7997166.687 1
  25514811.464    -1135117.606 2   -884507.718 1
  22282036.066   -12292419.048 4  -9578458.274 3
  25620770.412    -1462761.371 2  -1139805.993 1
  23122507.223    -9462965.271 3  -7373697.063 2
 91  4  7 23 34 15.0040000  0  6 19 11 13 02 15 06
  23732513.525    14340020.556 2  11174034.252 2
  26342339.380    10321833.428 2   8043005.358 1
  25505467.531    -1184234.262 2   -922780.548 1
  22283375.239   -12285384.441 4  -9572976.747 3
  25618059.385    -1477003.985 2  -1150904.178 1
  23119300.942    -9479811.623 3  -7386824.030 2
 91  4  7 23 34 30.0040000  0  6 19 11 13 02 15 06
  23740431.640    14381612.488 2  11206443.487 1
  26353540.823    10380713.345 2   8088885.807 1
  25496119.702    -1233335.049 2   -961041.057 1
  22284723.408   -12278303.118 4  -9567458.816 3
  25615372.348    -1491172.715 2  -1161944.607 1
  23116097.060    -9496640.168 3  -7399937.144 2
 91  4  7 23 34 45.0040000  0  6 19 11 13 02 15 06
  23748350.361    14423268.920 2  11238902.964 1
  26364762.652    10439652.197 2   8134812.234 1
  25486777.571    -1282413.858 2   -999284.478 1
  22286081.166   -12271169.470 4  -9561900.109 3
  25612686.507    -1505261.630 2  -1172922.875 1
  23112900.970    -9513444.931 3  -7413031.710 2
 91  4  7 23 35  0.0040000  0  6 19 11 13 02 15 06
  23756292.762    14464988.082 2  11271411.338 2
  26375982.087    10498648.013 2   8180782.949 1
  25477439.336    -1331472.005 2  -1037511.760 1
  22287448.521   -12263985.453 4  -9556302.158 3
  25610018.054    -1519272.075 2  -1183839.863 1
  23109706.385    -9530227.357 3  -7426108.870 2
 91  4  7 23 35 15.0040000  0  6 19 11 13 02 15 06
  23764242.658    14506769.841 2  11303968.486 1
  26387224.006    10557700.179 2   8226797.595 1
  25468117.290    -1380509.122 2  -1075722.322 1
  22288823.071   -12256751.159 4  -9550665.032 3
  25607376.580    -1533203.565 2  -1194695.506
  23106518.989    -9546987.461 3  -7439168.638 2
 91  4  7 23 35 30.0040000  0  6 19 11 13 02 15 06
  23772209.943    14548615.827 2  11336575.708 1
  26398472.220    10616810.034 2   8272857.191 1
  25458792.543    -1429523.223 2  -1113915.175 1
  22290209.608   -12249464.807 4  -9544987.338 3
  25604733.012    -1547054.343 2  -1205488.322 1
  23103332.195    -9563723.313 3  -7452209.496 2
 91  4  7 23 35 45.0040000  0  6 19 11 13 02 15 06
  23780183.223    14590524.243 2  11369231.553 1
  26409729.124    10675975.544 2   8318960.135 1
  25449466.903    -1478515.731 2  -1152091.327 1
  22291607.842   -12242128.500 4  -9539270.723 3
  25602116.722    -1560825.770 2  -1216219.211 1
  23100153.198    -9580436.520 3  -7465232.716 2
 91  4  7 23 36  0.0050000  0  6 19 11 13 02 15 06
  23788163.699    14632497.817 2  11401938.181 1
  26420998.024    10735200.218 2   8365109.183 1
  25440144.856    -1527489.507 2  -1190252.893 1
  22293013.268   -12234741.785 4  -9533514.825 3
  25599495.938    -1574518.368 2  -1226888.602 1
  23096976.297    -9597128.166 3  -7478239.140 2
 91  4  7 23 36 15.0050000  0  6 19 11 13 02 15 06
  23796167.556    14674531.695 2  11434691.765 1
  26432283.110    10794476.453 2   8411298.454 1
  25430834.798    -1576437.105 2  -1228393.724 1
  22294428.886   -12227305.179 4  -9527720.051 3
  25596906.029    -1588129.142 2  -1237494.308 1
  23093799.995    -9613795.011 3  -7491226.236 2
 91  4  7 23 36 30.0050000  0  6 19 11 13 02 15 06
  23804180.709    14716628.796 2  11467494.641 1
  26443569.697    10853808.059 2   8457530.904 1
  25421519.946    -1625361.099 2  -1266516.276 1
  22295851.402   -12219818.018 4  -9521885.884 3
  25594337.109    -1601658.784 2  -1248036.836 1
  23090636.585    -9630437.764 3  -7504194.557 2
 91  4  7 23 36 45.0050000  0  6 19 11 13 02 15 06
  23812201.954    14758789.559 2  11500347.129 2
  26454871.872    10913194.938 2   8503806.338 1
  25412212.292    -1674260.599 2  -1304619.944 1
  22297286.508   -12212279.920 4  -9516012.033 3
  25591777.781    -1615106.385 2  -1258515.310 1
  23087477.371    -9647055.923 3  -7517143.705 2
 91  4  7 23 37  0.0050000  0  6 19 11 13 02 15 06
  23820236.994    14801014.475 2  11533249.600 1
  26466180.643    10972637.320 2   8550125.045 1
  25402906.436    -1723134.986 2  -1342704.040 1
  22298731.211   -12204690.483 4  -9510098.165 3
  25589247.535    -1628470.915 2  -1268929.083 1
  23084317.861    -9663648.807 3  -7530073.176 2
 91  4  7 23 37 15.0050000  0  6 19 11 13 02 15 06
  23828285.820    14843305.973 2  11566203.968 1
  26477504.403    11032137.266 2   8596488.643 1
  25393617.964    -1771981.150 2  -1380765.745 1
  22300184.003   -12197047.257 4  -9504142.383 3
  25586716.084    -1641749.857 2  -1279276.314 1
  23081165.841    -9680213.622 3  -7542980.769 2
 91  4  7 23 37 30.0050000  0  6 19 11 13 02 15 06
  23836342.742    14885664.089 2  11599210.226 1
  26488838.956    11091694.454 2   8642896.795 1
  25384320.802    -1820798.845 2  -1418805.660 1
  22301650.589   -12189350.271 4  -9498144.724 3
  25584212.819    -1654942.729 2  -1289556.281 1
  23078018.921    -9696750.272 3  -7555866.406 2
 91  4  7 23 37 45.0050000  0  6 19 11 13 02 15 06
  23844418.551    14928086.797 2  11632266.847 1
  26500178.007    11151306.622 2   8689347.804 1
  25375042.822    -1869589.500 2  -1456824.138 1
  22303124.967   -12181601.697 4  -9492106.856 2
  25581694.561    -1668051.442 2  -1299770.794 1
  23074874.096    -9713260.354 3  -7568731.358 2
 91  4  7 23 38  0.0050000  0  6 19 11 13 02 15 06
  23852506.652    14970574.017 2  11665373.708 1
  26511538.043    11210973.534 2   8735841.398 1
  25365770.544    -1918352.752 2  -1494821.431 1
  22304610.740   -12173801.581 4  -9486028.828 3
  25579224.871    -1681075.328 2  -1309919.137 1
  23071737.668    -9729743.769 3  -7581575.508 2
 91  4  7 23 38 15.0050000  0  6 19 11 13 02 15 06
  23860599.252    15013122.887 2  11698528.611 1
  26522896.882    11270692.001 2   8782375.213 1
  25356479.673    -1967091.131 2  -1532799.585 1
  22306101.307   -12165952.658 4  -9479912.774 3
  25576768.373    -1694016.882 2  -1320003.278 1
  23068607.234    -9746203.136 3  -7594400.927 2
 91  4  7 23 38 30.0050000  0  6 19 11 13 02 15 06
  23868710.436    15055737.229 2  11731734.513 1
  26534281.797    11330465.329 2   8828951.840 1
  25347223.284    -2015800.411 2  -1570755.097 1
  22307605.965   -12158051.254 4  -9473755.824 3
  25574318.468    -1706872.192 2  -1330020.354 1
  23065480.399    -9762634.408 3  -7607204.460 2
 91  4  7 23 38 45.0050000  0  6 19 11 13 02 15 06
  23876827.016    15098415.762 2  11764990.460 1
  26545656.525    11390291.705 2   8875569.847 1
  25337958.497    -2064481.836 2  -1608688.696 1
  22309118.419   -12150098.948 4  -9467559.211 3
  25571885.052    -1719642.277 2  -1339970.929 1
  23062360.758    -9779038.918 3  -7619987.135 2
 91  4  7 23 39  0.0050000  0  5 19 13 02 15 06
  23884963.682    15141158.959 2  11798296.788 1
  25328703.603    -2113134.342 2  -1646599.518 1
  22310643.764   -12142095.167 4  -9461322.479 3
  25569473.820    -1732325.929 2  -1349854.290 1
  23059240.219    -9795415.917 3  -7632748.383 2
 91  4  7 23 39 15.0050000  0  5 19 13 02 15 06
  23893111.145    15183965.285 2  11831652.306 1
  25319447.210    -2161759.033 2  -1684489.044 1
  22312176.303   -12134041.420 4  -9455046.824 3
  25567076.981    -1744924.372 2  -1359671.109 1
  23056131.371    -9811766.434 3  -7645488.988 2
 91  4  7 23 39 30.0050000  0  5 19 13 02 15 06
  23901271.495    15226829.809 2  11865053.183 1
  25310195.017    -2210360.265 2  -1722360.267 1
  22313715.434   -12125942.869 4  -9448736.250 2
  25564691.230    -1757442.449 2  -1369425.339 1
  23053022.226    -9828095.443 3  -7658212.835 2
 91  4  7 23 39 45.0050000  0  5 19 13 02 15 06
  23909436.640    15269755.283 2  11898501.548 1
  25300938.924    -2258935.086 2  -1760210.538 1
  22315268.661   -12117796.948 4  -9442388.760 3
  25562330.665    -1769877.030 2  -1379114.505 1
  23049919.673    -9844400.021 3  -7670917.637 2
 91  4  7 23 40  0.0050000  0  5 19 13 02 15 06
  23917617.978    15312743.105 2  11931998.493 1
  25291714.909    -2307481.479 2  -1798039.072 1
  22316825.185   -12109602.317 4  -9436003.327 3
  25559987.489    -1782226.381 2  -1388737.338 1
  23046824.315    -9860678.409 3  -7683602.046 2
 91  4  7 23 40 15.0050000  0  5 19 13 02 15 06
  23925809.808    15355795.226 2  11965545.523 1
  25282484.302    -2355997.373 2  -1835843.694 1
  22318395.194   -12101356.927 4  -9429578.337 3
  25557647.310    -1794488.247 2  -1398291.968 1
  23043728.960    -9876928.620 3  -7696264.503 2
 91  4  7 23 40 30.0050000  0  5 19 13 02 15 06
  23934012.130    15398909.932 2  11999141.342 1
  25273260.287    -2404483.807 2  -1873625.562 1
  22319973.004   -12093062.650 4  -9423115.252 3
  25555323.317    -1806663.755 2  -1407779.249 1
  23040642.597    -9893151.977 3  -7708906.025 2
 91  4  7 23 40 45.0050000  0  5 19 13 02 15 06
  23942235.135    15442090.545 2  12032788.512 1
  25264029.375    -2452936.977 2  -1911381.066 1
  22321560.703   -12084716.064 4  -9416611.395 3
  25553034.402    -1818749.284 2  -1417196.428 1
  23037562.825    -9909344.928 3  -7721523.851 2
 91  4  7 23 41  0.0050000  0  5 19 13 02 15 06
  23950457.242    15485332.664 2  12066483.605 1
  25254816.153    -2501360.966 2  -1949114.207 1
  22323158.598   -12076321.664 4  -9410070.301 3
  25550730.498    -1830748.927 2  -1426546.667 1
  23034486.657    -9925511.525 3  -7734121.161 2
 91  4  7 23 41 15.0050000  0  5 19 13 02 15 06
  23958701.536    15528638.146 2  12100228.072 1
  25245607.429    -2549753.629 2  -1986822.600 1
  22324767.285   -12067877.582 4  -9403490.475 3
  25548479.655    -1842660.526 2  -1435828.356 1
  23031413.783    -9941649.786 4  -7746696.391 2
 91  4  7 23 41 30.0050000  0  5 19 13 02 15 06
  23966953.923    15572006.546 2  12134021.556 1
  25236398.404    -2598115.021 2  -2024506.953 1
  22326382.268   -12059384.523 4  -9396872.494 2
  25546241.704    -1854484.263 2  -1445041.550 1
  23028350.506    -9957759.971 4  -7759249.718 2
 91  4  7 23 41 45.0050000  0  5 19 13 02 15 06
  23975217.700    15615435.967 2  12167862.641 1
  25227205.869    -2646446.522 2  -2062167.848 1
  22328006.543   -12050844.358 4  -9390217.811 3
  25543990.264    -1866221.473 2  -1454187.291 1
  23025291.121    -9973843.746 4  -7771782.493 2
 91  4  7 23 42  0.0050000  0  5 19 13 02 15 06
  23983497.069    15658929.974 2  12201753.983 1
  25218018.430    -2694744.275 2  -2099802.460 1
  22329642.510   -12042253.539 4  -9383523.653 3
  25541784.090    -1877868.307 2  -1463262.623 1
  23022234.140    -9989897.341 3  -7784291.748 2
 91  4  7 23 42 15.0050000  0  5 19 13 02 15 06
  23991780.636    15702488.025 2  12235695.240 1
  25208840.584    -2743008.576 2  -2137411.002 1
  22331285.675   -12033612.519 4  -9376790.374 3
  25539565.626    -1889424.932 2  -1472267.711 1
  23019185.848   -10005920.990 4  -7796777.658 2
 91  4  7 23 42 30.0050000  0  5 19 13 02 15 06
  24000088.187    15746107.018 2  12269684.026 1
  25199646.548    -2791241.818 2  -2174995.574 1
  22332939.026   -12024924.279 4  -9370020.301 3
  25537404.421    -1900894.237 2  -1481204.772 1
  23016140.257   -10021917.462 3  -7809242.406 2
 91  4  7 23 42 45.0050000  0  5 19 13 02 15 06
  24008390.935    15789783.567 2  12303717.624 1
  25190471.102    -2839447.149 2  -2212557.961 1
  22334600.178   -12016192.613 4  -9363216.396 3
  25535228.527    -1912279.261 2  -1490076.097 1
  23013102.462   -10037890.163 3  -7821688.628 2
 91  4  7 23 43  0.0050000  0  5 19 13 02 15 06
  24016720.670    15833519.379 2  12337797.421 1
  25181306.443    -2887622.404 2  -2250097.252 1
  22336270.622   -12007415.894 4  -9356377.372 3
  25533087.110    -1923578.066 2  -1498880.259 1
  23010064.362   -10053836.990 3  -7834114.680 2
 91  4  7 23 43 15.0050000  0  5 19 13 02 15 06
  24025054.301    15877315.044 2  12371923.846 1
  25172157.678    -2935766.590 2  -2287611.966 1
  22337949.459   -11998593.365 4  -9349502.653 3
  25530953.189    -1934789.536 2  -1507616.403 1
  23007037.661   -10069757.160 4  -7846519.984 2
 91  4  7 23 43 30.0050000  0  5 19 13 02 15 06
  24033395.727    15921171.163 2  12406097.355 1
  25162995.721    -2983878.834 2  -2325102.158 1
  22339637.890   -11989724.523 4  -9342591.858 3
  25528837.852    -1945912.690 2  -1516283.745 1
  23004013.355   -10085649.809 4  -7858903.821 2
 91  4  7 23 43 45.0050000  0  5 19 13 02 15 06
  24041757.239    15965089.443 2  12440319.343 2
  25153846.353    -3031956.748 2  -2362565.307 1
  22341332.616   -11980807.750 4  -9335643.697 3
  25526736.610    -1956945.552 2  -1524880.616 1
  23000993.246   -10101512.996 4  -7871264.720 2
 91  4  7 23 44  0.0050000  0  5 19 13 02 15 06
  24050122.947    16009068.030 2  12474588.300 1
  25144693.090    -3080001.803 2  -2400003.103 1
  22343040.835   -11971845.050 5  -9328659.761 2
  25524656.649    -1967889.581 2  -1533408.364 1
  22997977.032   -10117348.335 3  -7883603.900 2
 91  4  7 23 44 15.0050000  0  5 19 13 02 15 06
  24058496.749    16053101.193 2  12508899.802 1
  25135553.321    -3128019.066 2  -2437418.912 1
  22344753.251   -11962841.818 4  -9321644.240 3
  25522586.582    -1978750.076 2  -1541870.900 1
  22994969.213   -10133161.043 4  -7895925.460 2
 91  4  7 23 44 30.0050000  0  5 19 13 02 15 06
  24066888.541    16097193.395 2  12543257.287 1
  25126434.530    -3176003.878 2  -2474809.918 1
  22346475.557   -11953793.804 4  -9314593.818 3
  25520538.999    -1989522.330 2  -1550264.891 1
  22991967.993   -10148946.629 4  -7908225.887 2
 91  4  7 23 44 45.0050000  0  5 19 13 02 15 06
  24075293.822    16141348.238 2  12577663.583 1
  25117312.146    -3223952.402 2  -2512172.636 1
  22348206.858   -11944697.598 4  -9307505.842 3
  25518499.509    -2000202.300 2  -1558586.805 1
  22988967.969   -10164701.360 4  -7920502.266 2
 91  4  7 23 45  0.0050000  0  5 19 13 02 15 06
  24083714.093    16185566.711 2  12612119.447 1
  25108190.363    -3271863.187 2  -2549505.910 1
  22349945.956   -11935552.347 4  -9300379.663 3
  25516475.912    -2010788.733 2  -1566835.913 1
  22985978.738   -10180423.946 4  -7932753.597 2
 91  4  7 23 45 15.0050000  0  5 19 13 02 15 06
  24092134.661    16229842.255 2  12646619.836 1
  25099077.571    -3319742.270 2  -2586814.053 1
  22351694.346   -11926364.479 4  -9293220.266 3
  25514487.687    -2021287.921 2  -1575016.892 1
  22982992.208   -10196120.618 4  -7944984.754 2
 91  4  7 23 45 30.0050000  0  5 19 13 02 15 06
  24100567.823    16274176.117 2  12681165.623 2
  25089975.271    -3367588.084 2  -2624096.331 1
  22353450.828   -11917132.667 4  -9286026.630 3
  25512495.269    -2031698.143 2  -1583128.700 1
  22980006.872   -10211789.834 4  -7957194.491 2
 91  4  7 23 45 45.0050000  0  5 19 13 02 15 06
  24109018.676    16318573.707 2  12715761.076 1
  25080881.069    -3415394.904 2  -2661348.155 1
  22355219.905   -11907851.825 4  -9278794.780 3
  25510535.823    -2042013.935 2  -1591166.957 1
  22977032.330   -10227426.172 4  -7969378.613 2
 91  4  7 23 46  0.0050000  0  5 19 13 02 15 06
  24117478.218    16363031.163 2  12750403.203 1
  25071786.264    -3463166.073 2  -2698572.633 1
  22356991.678   -11898525.677 4  -9271527.642 3
  25508595.865    -2052238.395 2  -1599133.876 1
  22974060.488   -10243033.062 4  -7981539.798 2
 91  4  7 23 46 15.0050000  0  5 19 13 02 15 06
  24125944.955    16407549.882 2  12785093.032 1
  25062702.854    -3510899.572 2  -2735767.350 1
  22358774.545   -11889152.993 4  -9264224.229 3
  25506666.403    -2062370.018 2  -1607028.555 1
  22971097.040   -10258608.897 4  -7993676.764 2
 91  4  7 23 46 30.0050000  0  5 19 13 02 15 06
  24134440.175    16452128.296 2  12819829.398 1
  25053626.036    -3558596.656 2  -2772933.674 1
  22360567.000   -11879735.145 4  -9256885.630 3
  25504757.925    -2072410.051 2  -1614851.845 1
  22968141.688   -10274155.029 4  -8005790.602 2
 91  4  7 23 46 45.0050000  0  5 19 13 02 15 06
  24142931.494    16496761.391 2  12854608.364 1
  25044551.617    -3606262.013 2  -2810075.279 1
  22362367.256   -11870277.236 4  -9249515.814 3
  25502866.531    -2082362.884 2  -1622607.213 1
  22965186.634   -10289676.161 4  -8017884.952 2
 91  4  7 23 47  0.0050000  0  5 19 13 02 15 06
  24151432.110    16541450.975 2  12889431.350 1
  25035485.592    -3653893.634 2  -2847190.599 1
  22364177.703   -11860777.660 4  -9242113.535 3
  25500988.033    -2092226.831 2  -1630293.326 1
  22962237.874   -10305170.328 4  -8029958.303 2
 91  4  7 23 47 15.0050000  0  5 19 13 02 15 06
  24159947.716    16586197.689 2  12924298.852 1
  25026428.266    -3701490.279 2  -2884279.051 1
  22365991.745   -11851235.845 4  -9234678.330 3
  25499126.321    -2102000.752 2  -1637909.224 1
  22959292.413   -10320636.548 4  -8042009.872 2
 91  4  7 23 47 30.0050000  0  5 19 13 02 15 06
  24168475.913    16630999.523 2  12959209.289 1
  25017381.428    -3749053.294 2  -2921341.338 1
  22367813.583   -11841653.646 4  -9227211.675 2
  25497284.695    -2111686.030 2  -1645456.069 1
  22956356.544   -10336076.538 4  -8054040.979 2
 91  4  7 23 47 45.0050000  0  5 19 13 02 15 06
  24177009.806    16675857.221 2  12994163.285 1
  25008348.981    -3796581.704 2  -2958376.477 1
  22369645.917   -11832030.550 4  -9219713.141 2
  25495456.562    -2121281.767 2  -1652933.177 1
  22953424.576   -10351489.285 4  -8066050.886 2
 91  4  7 23 48  0.0050000  0  5 19 13 02 15 06
  24185553.891    16720767.687 2  13029158.387 1
  24999296.746    -3844078.205 2  -2995386.507 1
  22371484.245   -11822369.632 4  -9212185.129 3
  25493649.714    -2130790.811 2  -1660342.813 1
  22950493.502   -10366877.822 4  -8078041.917 2
 91  4  7 23 48 15.0050000  0  5 19 13 02 15 06
  24194112.363    16765735.489 2  13064198.140 1
  24990264.902    -3891537.869 2  -3032368.208 1
  22373329.767   -11812666.195 4  -9204623.998 3
  25491850.361    -2140208.045 2  -1667680.815 1
  22947571.127   -10382237.118 4  -8090010.160 2
 91  4  7 23 48 30.0050000  0  5 19 13 02 15 06
  24202682.231    16810757.399 2  13099280.087 1
  24981244.745    -3938963.400 2  -3069322.967 1
  22375184.581   -11802923.544 4  -9197032.310 3
  25490082.484    -2149536.341 2  -1674949.486 1
  22944656.243   -10397570.178 4  -8101957.960 2
 91  4  7 23 48 45.0050000  0  5 19 13 02 15 06
  24211251.797    16855834.515 2  13134405.038 1
  24972227.585    -3986353.116 2  -3106250.250 1
  22377044.495   -11793140.542 4  -9189409.174 3
  25488327.799    -2158774.146 2  -1682147.685 1
  22941742.563   -10412875.575 4  -8113884.200 2
 91  4  7 23 49  0.0050000  0  5 19 13 02 15 06
  24219845.650    16900966.770 2  13169572.958 1
  24963212.527    -4033706.925 2  -3143149.092 1
  22378918.199   -11783317.432 4  -9181754.789 3
  25486580.906    -2167921.446 2  -1689275.425 1
  22938834.576   -10428153.075 4  -8125788.705 2
 91  4  7 23 49 15.0050000  0  5 19 13 02 15 06
  24228440.698    16946155.250 2  13204784.703 1
  24954213.057    -4081023.583 2  -3180019.031 1
  22380791.602   -11773453.090 4  -9174068.275 3
  25484860.999    -2176977.146 2  -1696331.617 1
  22935933.486   -10443401.659 4  -8137670.675 2
 91  4  7 23 49 30.0050000  0  5 19 13 02 15 06
  24237057.633    16991402.905 2  13240042.519 1
  24945219.586    -4128299.333 2  -3216857.096 1
  22382679.393   -11763544.570 4  -9166347.333 3
  25483148.282    -2185937.514 2  -1703313.621
  22933036.889   -10458617.719 4  -8149527.301 2
 91  4  7 23 49 45.0050000  0  5 19 13 02 15 06
  24245673.669    17036706.891 2  13275344.265 1
  24936233.003    -4175536.621 2  -3253665.483 1
  22384572.881   -11753594.738 4  -9158594.205 3
  25481469.746    -2194804.983 2  -1710223.283 1
  22930148.389   -10473804.104 4  -8161360.803 2
 91  4  7 23 50  0.0050000  0  5 19 13 02 15 06
  24254307.095    17082068.014 2  13310690.529 1
  24927244.928    -4222733.956 2  -3290442.823 1
  22386472.067   -11743603.044 4  -9150808.458 3
  25479790.908    -2203578.647 2  -1717059.906 1
  22927264.985   -10488959.532 4  -8173170.176 2
 91  4  7 23 50 15.0050000  0  5 19 13 02 15 06
  24262950.410    17127482.451 2  13346078.299 1
  24918264.946    -4269894.839 2  -3327191.363 1
  22388380.248   -11733573.205 4  -9142992.990 3
  25478145.048    -2212261.953 2  -1723825.989 1
  22924385.180   -10504087.704 4  -8184958.332 2
 91  4  7 23 50 30.0050000  0  5 19 13 02 15 06
  24271610.512    17172953.868 2  13381510.509 1
  24909296.053    -4317015.549 2  -3363908.636 1
  22390299.820   -11723501.605 4  -9135144.971 2
  25476505.482    -2220850.938 2  -1730518.568 1
  22921508.970   -10519184.743 4  -8196722.207 2
 91  4  7 23 50 45.0050000  0  5 19 13 02 15 06
  24280264.621    17218484.079 2  13416988.545 1
  24900341.251    -4364093.840 2  -3400592.792 1
  22392219.689   -11713386.479 4  -9127263.046 3
  25474886.603    -2229343.249 2  -1737135.882 1
  22918644.155   -10534248.342 4  -8208460.022 2
 91  4  7 23 51  0.0050000  0  5 19 13 02 15 06
  24288942.413    17264073.687 2  13452512.837 1
  24891397.543    -4411128.730 2  -3437243.540
  22394157.548   -11703227.329 4  -9119346.816 2
  25473291.409    -2237738.066 2  -1743677.376 1
  22915784.134   -10549277.978 4  -8220171.377 2
 91  4  7 23 51 15.0050000  0  5 19 13 02 15 06
  24297625.903    17309724.250 2  13488084.631 1
  24882454.433    -4458117.932 2  -3473858.291 1
  22396096.603   -11693022.341 4  -9111394.865 3
  25471725.592    -2246033.377 2  -1750141.015 1
  22912930.107   -10564271.474 4  -8231854.585 2
 91  4  7 23 51 30.0050000  0  5 19 13 02 15 06
  24306330.678    17355435.259 2  13523703.499 1
  24873516.423    -4505061.357 2  -3510437.373 1
  22398048.554   -11682771.896 4  -9103407.488 3
  25470157.677    -2254229.183 2  -1756527.281 1
  22910084.177   -10579228.902 4  -8243509.668 2
 91  4  7 23 51 45.0050000  0  5 19 13 02 15 06
  24315038.149    17401204.570 2  13559367.816 1
  24864595.200    -4551960.827 2  -3546982.662 1
  22400007.398   -11672478.291 4  -9095386.497 3
  25468618.542    -2262327.837 2  -1762837.784 1
  22907245.445   -10594152.461 4  -8255138.377 2
 91  4  7 23 52  0.0050000  0  5 19 13 02 15 06
  24323768.406    17447034.190 2  13595079.129 1
  24855677.873    -4598813.960 2  -3583491.403 1
  22401974.334   -11662139.789 4  -9087330.513 3
  25467091.098    -2270326.910 2  -1769070.914 1
  22904413.005   -10609039.782 4  -8266738.836 2
 91  4  7 23 52 15.0050000  0  5 19 13 02 15 06
  24332486.670    17492918.343 2  13630832.967 1
  24846765.942    -4645626.142 2  -3619968.650 1
  22403949.367   -11651762.168 4  -9079244.044 3
  25465602.629    -2278231.487 2  -1775230.151 1
  22901587.461   -10623896.482 4  -8278315.434 2
 91  4  7 23 52 30.0050000  0  5 19 13 02 15 06
  24341229.517    17538860.064 2  13666631.613 1
  24837865.702    -4692394.015 2  -3656410.962 1
  22405933.994   -11641342.113 4  -9071124.507 3
  25464109.964    -2286038.480 2  -1781313.485 1
  22898764.613   -10638719.081 4  -8289865.463 2
 91  4  7 23 52 45.0050000  0  5 19 13 02 15 06
  24349987.956    17584862.008 2  13702477.190 1
  24828976.858    -4739114.413 2  -3692816.242 1
  22407923.419   -11630877.393 4  -9062970.181 3
  25462643.378    -2293744.869 2  -1787318.279 1
  22895952.262   -10653504.705 4  -8301386.678 2
 91  4  7 23 53  0.0050000  0  5 19 13 02 15 06
  24358758.981    17630922.659 2  13738368.552 1
  24820091.308    -4785788.485 2  -3729185.421 1
  22409923.331   -11620369.307 4  -9054782.048 2
  25461190.285    -2301351.581 2  -1793245.602 1
  22893143.506   -10668254.680 4  -8312880.112 2
 91  4  7 23 53 15.0050000  0  5 19 13 02 15 06
  24367532.710    17677042.426 2  13774305.937 1
  24811227.644    -4832415.450 2  -3765518.345 1
  22411929.845   -11609817.451 4  -9046559.816 3
  25459765.370    -2308857.941 2  -1799094.562 1
  22890345.542   -10682968.123 4  -8324345.099 2
 91  4  7 23 53 30.0050000  0  5 19 13 02 15 06
  24376315.728    17723222.607 2  13810290.441 1
  24802351.988    -4878993.708 2  -3801813.316 1
  22413947.147   -11599220.669 4  -9038302.578 3
  25458338.959    -2316262.702 2  -1804864.427 1
  22887549.677   -10697643.664 4  -8335780.529 2
 91  4  7 23 53 45.0050000  0  5 19 13 02 15 06
  24385115.838    17769458.533 2  13846318.320 1
  24793503.615    -4925527.289 2  -3838073.046 1
  22415971.943   -11588583.657 4  -9030013.990 3
  25456959.912    -2323569.940 2  -1810558.256 1
  22884764.906   -10712285.566 4  -8347189.744 2
 91  4  7 23 54  0.0050000  0  5 19 13 02 15 06
  24393924.638    17815751.241 2  13882390.501 1
  24784657.340    -4972014.546 2  -3874297.101 1
  22418003.637   -11577905.132 4  -9021693.049 3
  25455596.757    -2330778.169 2  -1816175.117 1
  22881985.531   -10726892.486 4  -8358571.729 2
 91  4  7 23 54 15.0050000  0  5 19 13 02 15 06
  24402747.228    17862102.892 2  13918508.591 1
  24775819.455    -5018453.025 2  -3910482.792 1
  22420046.124   -11567183.162 4  -9013338.265 3
  25454236.299    -2337885.059 2  -1821712.848 1
  22879214.249   -10741461.906 4  -8369924.466 2
 91  4  7 23 54 30.0050000  0  5 19 13 02 15 06
  24411587.211    17908515.472 2  13954674.152 1
  24767002.261    -5064840.462 2  -3946629.087 1
  22422091.909   -11556415.907 4  -9004948.192 3
  25452901.022    -2344888.498 2  -1827169.921 1
  22876448.067   -10755991.882 4  -8381246.477 2
 91  4  7 23 54 45.0050000  0  5 19 13 02 15 06
  24420420.294    17954993.149 2  13990890.448 1
  24758176.072    -5111172.007 2  -3982731.457 1
  22424149.984   -11545598.887 4  -8996519.335 3
  25451598.424    -2351783.731 2  -1832542.833 1
  22873692.372   -10770477.506 4  -8392533.936 2
 91  4  7 23 55  0.0050000  0  5 19 13 02 15 06
  24429279.760    18001526.698 2  14027150.291 1
  24749369.069    -5157456.605 2  -4018797.549 1
  22426218.851   -11534741.305 4  -8988058.876 3
  25450287.433    -2358579.366 2  -1837838.089 1
  22870942.375   -10784927.926 4  -8403793.953 2
 91  4  7 23 55 15.0050000  0  5 19 13 02 15 06
  24438142.224    18048119.947 2  14063456.640 1
  24740566.264    -5203689.773 2  -4054823.212 1
  22428291.317   -11523839.467 4  -8979563.938 3
  25449006.421    -2365271.440 2  -1843052.538 1
  22868198.677   -10799338.844 4  -8415023.199 2
 91  4  7 23 55 30.0050000  0  5 19 13 02 15 06
  24447024.778    18094772.394 2  14099809.097 1
  24731784.140    -5249872.123 2  -4090809.241 1
  22430378.171   -11512894.257 4  -8971035.201 3
  25447772.472    -2371860.360 2  -1848186.654 1
  22865463.970   -10813710.860 4  -8426222.123 2
 91  4  7 23 55 45.0050000  0  5 19 13 02 15 06
  24455898.632    18141484.294 2  14136207.884 1
  24723002.619    -5296002.258 2  -4126754.569 1
  22432465.928   -11501904.810 4  -8962471.981 3
  25446540.928    -2378345.197 2  -1853239.668 1
  22862741.252   -10828043.143 4  -8437390.088 2
 91  4  7 23 56  0.0050000  0  5 19 13 02 15 06
  24464806.366    18188254.162 2  14172651.868 1
  24714233.994    -5342081.699 2  -4162660.460 1
  22434568.671   -11490872.931 4  -8953875.706 3
  25445318.972    -2384727.302 2  -1858212.763 1
  22860014.939   -10842336.948 4  -8448528.072 2
 91  4  7 23 56 15.0050000  0  5 19 13 02 15 06
  24473720.396    18235079.252 2  14209138.854 1
  24705469.260    -5388112.803 2  -4198528.628 1
  22436672.016   -11479801.591 4  -8945248.687 2
  25444118.903    -2391009.416 2  -1863107.833 1
  22857304.218   -10856594.895 4  -8459638.121 2
 91  4  7 23 56 30.0050000  0  5 19 13 02 15 06
  24482641.920    18281959.067 2  14245668.515 1
  24696729.711    -5434095.188 2  -4234358.865 1
  22438787.052   -11468690.964 4  -8936591.048 3
  25442952.709    -2397191.308 2  -1867924.715 1
  22854597.990   -10870816.757 4  -8470720.047 2
 91  4  7 23 56 45.0050000  0  5 19 13 02 15 06
  24491570.337    18328891.766 2  14282239.376 1
  24687981.468    -5480030.607 2  -4270152.921 1
  22440907.781   -11457542.778 4  -8927904.141 3
  25441792.514    -2403274.467 2  -1872664.850 1
  22851898.359   -10885004.388 4  -8481775.298 2
 91  4  7 23 57  0.0050000  0  5 19 13 02 15 06
  24500511.951    18375876.922 2  14318851.079 1
  24679249.710    -5525919.193 2  -4305910.045 1
  22443038.409   -11446357.746 4  -8919188.524 3
  25440655.401    -2409259.053 2  -1877328.067 1
  22849203.225   -10899157.848 4  -8492803.930 2
 91  4  7 23 57 15.0050000  0  5 19 13 02 15 06
  24509458.956    18422912.556 2  14355502.158 1
  24670515.558    -5571762.224 2  -4341631.677 1
  22445172.331   -11435137.613 4  -8910445.567 3
  25439534.177    -2415146.653 2  -1881915.717 1
  22846516.786   -10913278.732 4  -8503807.180 2
 91  4  7 23 57 30.0050000  0  5 19 13 02 15 06
  24518426.645    18470001.095 2  14392194.435 1
  24661811.385    -5617556.701 2  -4377315.498 1
  22447314.349   -11423880.192 4  -8901673.540 3
  25438427.641    -2420934.603 2  -1886425.673 1
  22843836.642   -10927364.404 4  -8514782.978 2
 91  4  7 23 57 45.0050000  0  5 19 13 02 15 06
  24527394.639    18517144.191 2  14428929.208 1
  24653114.105    -5663300.821 2  -4412960.147 1
  22449462.061   -11412583.899 4  -8892871.223 2
  25437350.487    -2426621.025 2  -1890856.685 1
  22841161.894   -10941412.931 4  -8525729.858 2
 91  4  7 23 58  0.0050000  0  5 19 13 02 15 06
  24536375.821    18564345.861 2  14465709.666 1
  24644412.628    -5708990.336 2  -4448562.183 1
  22451622.664   -11401244.867 5  -8884035.612 3
  25436288.323    -2432201.629 2  -1895205.097 1
  22838500.033   -10955420.166 4  -8536644.540 2
 91  4  7 23 58 15.0050000  0  5 19 13 02 15 06
  24545370.492    18611606.352 2  14502535.944 1
  24635726.743    -5754624.255 2  -4484121.323 1
  22453787.167   -11389862.477 4  -8875166.214 3
  25435246.545    -2437675.725 2  -1899470.502 1
  22835840.878   -10969385.321 4  -8547526.438 2
 91  4  7 23 58 30.0050000  0  5 19 13 02 15 06
  24554377.457    18658927.724 2  14539409.651 1
  24627060.040    -5800200.165 2  -4519634.821 1
  22455963.362   -11378434.634 4  -8866261.389 3
  25434223.652    -2443040.827 2  -1903650.967 1
  22833192.209   -10983306.135 4  -8558373.790 2
 91  4  7 23 58 45.0050000  0  5 19 13 02 15 06
  24563389.517    18706307.919 2  14576329.191 1
  24618389.144    -5845719.748 2  -4555104.457 1
  22458145.848   -11366963.548 4  -8857322.877 3
  25433230.739    -2448298.773 2  -1907748.100 1
  22830549.239   -10997184.195 4  -8569187.831 2
 91  4  7 23 59  0.0050000  0  5 19 13 02 15 06
  24572419.268    18753746.798 2  14613294.484 1
  24609746.728    -5891182.762 2  -4590530.013 1
  22460334.035   -11355449.313 4  -8848350.735 3
  25432241.425    -2453449.499 2  -1911761.568 1
  22827919.159   -11011019.427 4  -8579968.495 2
 91  4  7 23 59 15.0050000  0  5 19 13 02 15 06
  24581453.813    18801245.791 2  14650306.592 1
  24601101.912    -5936587.021 2  -4625909.708 1
  22462535.712   -11343890.393 5  -8839343.774 3
  25431278.492    -2458490.920 2  -1915689.801 1
  22825292.980   -11024810.020 4  -8590714.377 2
 91  4  7 23 59 30.0050000  0  5 19 13 02 15 06
  24590503.051    18848806.654 2  14687366.929 1
  24592476.583    -5981930.392 2  -4661242.066 1
  22464743.081   -11332284.957 4  -8830300.580 3
  25430344.338    -2463420.685 2  -1919531.160 1
  22822676.089   -11038553.772 4  -8601423.757 2
 91  4  7 23 59 45.0050000  0  5 19 13 02 15 06
  24599574.171    18896426.660 2  14724473.330 1
  24583862.047    -6027215.192 2  -4696528.696 1
  22466960.345   -11320635.948 5  -8821223.411 3
  25429429.371    -2468241.559 2  -1923287.574 1
  22820069.393   -11052253.250 4  -8612098.639 2
 91  4  8  0  0  0.0050000  0  5 19 13 02 15 06
  24608635.694    18944102.123 2  14761622.961 1
  24575251.408    -6072444.855 2  -4731772.360 1
  22469185.109   -11308947.087 5  -8812115.198 3
  25428537.490    -2472956.940 2  -1926961.846 1
  22817472.294   -11065912.007 4  -8622741.796 2
 91  4  8  0  0 15.0050000  0  5 19 13 02 15 06
  24617726.603    18991835.235 2  14798817.516 1
  24566654.859    -6117616.802 2  -4766971.111 1
  22471418.261   -11297216.174 4  -8802974.225 2
  25427646.207    -2477564.388 2  -1930551.957 1
  22814879.986   -11079527.480 4  -8633351.216 2
 91  4  8  0  0 30.0050000  0  5 19 13 02 15 06
  24626820.806    19039624.184 2  14836055.579 1
  24558067.903    -6162732.521 2  -4802126.005 1
  22473656.513   -11285445.138 4  -8793801.975 2
  25426801.093    -2482065.708 2  -1934059.376 1
  22812298.776   -11093101.219 4  -8643928.123 2
 91  4  8  0  0 45.0050000  0  5 19 13 02 15 06
  24635919.807    19087468.501 2  14873336.742 1
  24549485.145    -6207791.883 2  -4837237.035 1
  22475906.452   -11273634.350 4  -8784598.755 3
  25425957.776    -2486460.993 2  -1937484.204 1
  22809723.556   -11106633.422 4  -8654472.667 2
 91  4  8  0  1  0.0050000  0  5 19 13 02 15 06
  24645035.596    19135366.106 2  14910659.478 1
  24540927.571    -6252796.361 2  -4872305.258 1
  22478160.894   -11261785.710 5  -8775366.042 2
  25425148.038    -2490751.704 2  -1940827.541 1
  22807154.936   -11120125.662 4  -8664986.055 2
 91  4  8  0  1 15.0050000  0  5 19 13 02 15 06
  24654167.875    19183318.377 2  14948024.834 1
  24532379.887    -6297743.876 2  -4907329.464 1
  22480418.629   -11249897.738 4  -8766102.674 2
  25424350.886    -2494936.122 2  -1944088.032 1
  22804594.409   -11133576.119 4  -8675466.896 2
 91  4  8  0  1 30.0050000  0  5 19 13 02 15 06
  24663300.155    19231320.584 2  14985429.031 1
  24523830.406    -6342639.161 2  -4942312.671 1
  22482693.457   -11237975.191 4  -8756812.371 3
  25423569.330    -2499018.699 2  -1947269.144 1
  22802041.376   -11146989.447 4  -8685918.809 2
 91  4  8  0  1 45.0050000  0  5 19 13 02 15 06
  24672442.921    19279371.076 2  15022870.898 1
  24515296.216    -6387483.386 2  -4977256.220 1
  22484965.580   -11226019.792 4  -8747496.463 3
  25422815.651    -2503000.814 2  -1950372.050 1
  22799498.535   -11160366.869 4  -8696342.731 2
 91  4  8  0  2  0.0050000  0  5 19 13 02 15 06
  24681596.189    19327472.698 2  15060352.562 1
  24506764.721    -6432273.161 2  -5012157.105 1
  22487246.101   -11214028.786 4  -8738152.813 3
  25422070.365    -2506879.246 2  -1953394.125 1
  22796958.394   -11173705.329 4  -8706736.311 2
 91  4  8  0  2 15.0050000  0  5 19 13 02 15 06
  24690762.042    19375622.303 2  15097871.701 1
  24498253.910    -6477011.107 2  -5047017.702 1
  22489534.122   -11202005.127 4  -8728783.710 3
  25421361.057    -2510656.914 2  -1956337.681 1
  22794428.745   -11187007.510 4  -8717101.600 2
 91  4  8  0  2 30.0050000  0  5 19 13 02 15 06
  24699927.298    19423820.499 2  15135428.662 1
  24489755.095    -6521696.445 2  -5081837.225 1
  22491828.132   -11189948.443 4  -8719388.884 3
  25420661.343    -2514332.898 2  -1959201.976 1
  22791903.293   -11200272.576 4  -8727437.982 2
 91  4  8  0  2 45.0050000  0  5 19 13 02 15 06
  24709113.537    19472065.315 2  15173021.949 1
  24481262.275    -6566330.268 2  -5116616.625 1
  22494129.937   -11177860.590 5  -8709969.777 3
  25419981.413    -2517908.635 2  -1961988.259 1
  22789384.738   -11213502.015 4  -8737746.599 2
 91  4  8  0  3  0.0050000  0  5 19 13 02 15 06
  24718303.075    19520355.971 2  15210650.888 1
  24472779.646    -6610913.322 2  -5151356.501 1
  22496436.839   -11165742.338 4  -8700526.966 3
  25419307.778    -2521384.616 2  -1964696.712 1
  22786877.573   -11226696.441 4  -8748027.932 2
 91  4  8  0  3 15.0050000  0  5 19 13 02 15 06
  24727504.003    19568688.841 2  15248312.796 1
  24464305.113    -6655448.878 2  -5186059.341 1
  22498749.141   -11153597.281 4  -8691063.283 2
  25418669.819    -2524764.433 2  -1967330.236 1
  22784366.810   -11239859.042 4  -8758284.457 2
 91  4  8  0  3 30.0050000  0  5 19 13 02 15 06
  24736703.736    19617069.895 2  15286012.228 1
  24455839.576    -6699930.138 2  -5220719.890 1
  22501064.436   -11141419.447 4  -8681574.051 2
  25418047.152    -2528041.643 2  -1969883.808 1
  22781875.534   -11252983.729 4  -8768511.455 2
 91  4  8  0  3 45.0050000  0  5 19 13 02 15 06
  24745921.155    19665493.831 2  15323745.087 1
  24447380.330    -6744362.090 2  -5255342.004 1
  22503386.331   -11129214.129 4  -8672063.409 3
  25417440.674    -2531221.349 2  -1972361.438 1
  22779378.264   -11266075.322 4  -8778712.662 2
 91  4  8  0  4  0.0050000  0  5 19 13 02 15 06
  24755151.465    19713962.269 2  15361512.572 1
  24438939.376    -6788742.613 2  -5289924.053 1
  22505713.619   -11116979.454 5  -8662529.882 2
  25416855.778    -2534301.350 2  -1974761.397 1
  22776897.183   -11279131.895 4  -8788886.562 2
 91  4  8  0  4 15.0050000  0  5 19 13 02 15 06
  24764378.778    19762476.515 2  15399315.778 1
  24430506.214    -6833070.086 2  -5324464.804 1
  22508049.300   -11104714.390 4  -8652972.681 3
  25416282.573    -2537280.134 2  -1977082.430 1
  22774417.001   -11292151.783 4  -8799031.896 2
 91  4  8  0  4 30.0050000  0  5 19 13 02 15 06
  24773621.679    19811031.356 2  15437150.667 1
  24422079.046    -6877349.294 2  -5358968.310 1
  22510387.084   -11092424.028 5  -8643395.771 3
  25415740.547    -2540162.717 2  -1979328.509 1
  22771950.007   -11305139.909 4  -8809152.467 2
 91  4  8  0  4 45.0050000  0  5 19 13 02 15 06
  24782866.080    19859630.451 2  15475019.960 1
  24413666.872    -6921576.235 2  -5393430.751 1
  22512731.459   -11080104.787 5  -8633796.348 2
  25415215.313    -2542945.573 2  -1981496.902 1
  22769482.416   -11318092.451 4  -8819245.310 2
 91  4  8  0  5  0.0050000  0  5 19 13 02 15 06
  24792119.472    19908269.822 2  15512920.696 1
  24405253.494    -6965754.383 2  -5427855.190 1
  22515080.333   -11067760.388 5  -8624177.329 3
  25414690.376    -2545631.821 2  -1983590.016 1
  22767021.420   -11331012.690 4  -8829312.979 2
 91  4  8  0  5 15.0050000  0  5 19 13 02 15 06
  24801382.759    19956951.087 2  15550854.036 1
  24396857.509    -7009881.456 2  -5462239.675 1
  22517432.504   -11055389.244 5  -8614537.475 2
  25414201.115    -2548219.494 2  -1985606.319 1
  22764572.116   -11343898.701 4  -8839354.009 2
 91  4  8  0  5 30.0050000  0  5 19 13 02 15 06
  24810652.341    20005672.208 2  15588818.428 1
  24388460.019    -7053959.070 2  -5496585.680 1
  22519793.371   -11042993.353 4  -8604878.328 3
  25413742.131    -2550710.353 2  -1987547.155 1
  22762124.911   -11356752.383 4  -8849369.826 2
 91  4  8  0  5 45.0050000  0  5 19 13 02 15 06
  24819937.514    20054433.841 2  15626814.426 1
  24380085.917    -7097986.286 2  -5530892.414 1
  22522156.335   -11030572.191 4  -8595199.491 2
  25413273.257    -2553103.205 2  -1989411.649 1
  22759685.798   -11369572.644 4  -8859359.607 2
 91  4  8  0  6  0.0050000  0  5 19 13 02 15 06
  24829222.985    20103232.587 2  15664839.340 1
  24371724.109    -7141966.192 2  -5565162.318 1
  22524525.595   -11018129.178 5  -8585503.635 3
  25412841.255    -2555401.498 2  -1991202.421 1
  22757253.879   -11382362.749 4  -8869325.878 2
 91  4  8  0  6 15.0050000  0  5 19 13 02 15 06
  24838515.056    20152065.196 2  15702890.602 1
  24363365.594    -7185901.593 2  -5599397.940 1
  22526895.457   -11005667.219 4  -8575793.012 3
  25412421.245    -2557608.286 2  -1992921.926 1
  22754823.164   -11395125.466 4  -8879270.796 2
 91  4  8  0  6 30.0050000  0  5 19 13 02 15 06
  24847814.918    20200933.702 2  15740969.881 1
  24355008.877    -7229789.803 2  -5633596.410 1
  22529273.406   -10993184.494 4  -8566066.203 3
  25412012.928    -2559721.164 2  -1994568.268 1
  22752399.643   -11407858.426 4  -8889192.554 2
 91  4  8  0  6 45.0050000  0  5 19 13 02 15 06
  24857120.172    20249835.061 2  15779074.712 1
  24346666.852    -7273633.519 2  -5667760.106 1
  22531649.864   -10980684.073 4  -8556325.609 3
  25411625.899    -2561742.600 2  -1996143.361 1
  22749984.515   -11420564.297 4  -8899093.194 2
 91  4  8  0  7  0.0050000  0  5 19 13 02 15 06
  24866427.830    20298764.603 2  15817201.571 1
  24338334.722    -7317436.900 2  -5701892.514 1
  22534033.813   -10968170.460 5  -8546574.732 3
  25411267.044    -2563676.960 2  -1997650.533 1
  22747565.487   -11433247.367 4  -8908976.062 2
 91  4  8  0  7 15.0050000  0  5 19 13 02 15 06
  24875749.876    20347722.762 2  15855350.656 1
  24330004.390    -7361199.252 2  -5735992.860 1
  22536414.463   -10955643.458 5  -8536813.427 2
  25410916.888    -2565523.907 2  -1999089.641 1
  22745160.254   -11445907.098 4  -8918840.752 2
 91  4  8  0  7 30.0050000  0  5 19 13 02 15 06
  24885064.427    20396702.749 2  15893516.792 1
  24321681.552    -7404926.953 2  -5770066.286 1
  22538801.413   -10943109.644 5  -8527046.814 2
  25410579.022    -2567289.748 2  -2000465.592 1
  22742754.419   -11458549.736 4  -8928692.127 2
 91  4  8  0  7 45.0050000  0  5 19 13 02 15 06
  24894394.570    20445705.275 2  15931700.487 1
  24313366.205    -7448618.692 3  -5804111.604 1
  22541187.163   -10930568.367 4  -8517274.380 3
  25410266.637    -2568973.422 2  -2001777.453 1
  22740352.182   -11471174.294 4  -8938529.401 2
 91  4  8  0  8  0.0050000  0  5 19 13 02 15 06
  24903720.215    20494730.174 2  15969901.622 1
  24305053.863    -7492273.929 2  -5838128.471 1
  22543575.007   -10918019.512 5  -8507496.049 3
  25409949.160    -2570574.687 2  -2003025.092 1
  22737951.443   -11483780.641 4  -8948352.489 2
 91  4  8  0  8 15.0050000  0  5 19 13 02 15 06
  24913052.753    20543777.523 2  16008120.216 1
  24296764.901    -7535892.528 3  -5872116.829 1
  22545965.552   -10905463.137 5  -8497711.855 3
  25409667.955    -2572093.498 2  -2004208.501 1
  22735559.101   -11496368.281 4  -8958161.012 2
 91  4  8  0  8 30.0050000  0  5 19 13 02 15 06
  24922386.190    20592844.795 2  16046354.389 1
  24288464.247    -7579476.387 3  -5906078.109 1
  22548355.499   -10892901.574 5  -8487923.606 2
  25409392.442    -2573532.010 2  -2005329.431 1
  22733164.656   -11508939.502 4  -8967956.726 2
 91  4  8  0  8 45.0050000  0  5 19 13 02 15 06
  24931733.120    20641931.500 2  16084603.645 1
  24280186.378    -7623025.736 3  -5940012.496 1
  22550745.742   -10880335.245 4  -8478131.651 3
  25409128.625    -2574890.299 2  -2006387.704 1
  22730775.311   -11521494.341 4  -8977739.676 2
 91  4  8  0  9  0.0050000  0  5 19 13 02 15 06
  24941080.351    20691041.324 2  16122870.968 1
  24271893.219    -7666536.332 2  -5973916.769 1
  22553139.288   -10867760.625 5  -8468333.248 2
  25408883.397    -2576164.067 2  -2007380.238 1
  22728391.664   -11534028.781 4  -8987506.751 2
 91  4  8  0  9 15.0050000  0  5 19 13 02 15 06
  24950428.777    20740177.168 2  16161158.526 1
  24263624.643    -7710004.782 3  -6007788.153 1
  22555535.827   -10855174.718 4  -8458526.033 2
  25408664.846    -2577350.414 2  -2008304.619 1
  22726008.610   -11546539.641 4  -8997255.416 2
 91  4  8  0  9 30.0050000  0  5 19 13 02 15 06
  24959779.306    20789337.649 2  16199465.316 1
  24255364.460    -7753432.021 3  -6041627.330 1
  22557931.467   -10842578.992 4  -8448711.178 3
  25408456.491    -2578450.538 2  -2009161.761 1
  22723635.755   -11559027.846 4  -9006986.462 2
 91  4  8  0  9 45.0050000  0  5 19 13 02 15 06
  24969141.221    20838521.153 2  16237790.037 1
  24247105.477    -7796819.339 2  -6075435.467 1
  22560329.511   -10829974.949 4  -8438889.845 3
  25408259.229    -2579465.807 2  -2009952.797 1
  22721263.498   -11571494.776 4  -9016700.917 2
 91  4  8  0 10  0.0050000  0  5 19 13 02 15 06
  24978510.937    20887733.560 2  16276137.223 1
  24238854.591    -7840160.309 2  -6109207.535 1
  22562732.646   -10817356.672 4  -8429057.419 2
  25408082.053    -2580389.744 2  -2010672.637 1
  22718895.434   -11583934.123 4  -9026393.874 2
 91  4  8  0 10 15.0050000  0  5 19 13 02 15 06
  24987882.450    20936973.259 2  16314505.753 1
  24230613.595    -7883456.111 2  -6142944.332 1
  22565135.480   -10804725.876 5  -8419215.225 2
  25407927.356    -2581223.883 2  -2011322.680 1
  22716532.771   -11596347.249 4  -9036066.412 2
 91  4  8  0 10 30.0050000  0  5 19 13 02 15 06
  24997260.258    20986247.509 2  16352901.224 1
  24222387.889    -7926698.917 2  -6176639.877 1
  22567541.018   -10792074.974 5  -8409357.375 2
  25407787.955    -2581960.494 2  -2011896.560 1
  22714176.402   -11608726.486 4  -9045712.533 2
 91  4  8  0 10 45.0050000  0  5 19 13 02 15 06
  25006631.771    21035555.871 2  16391323.169 1
  24214170.281    -7969888.731 2  -6210294.105 1
  22569952.547   -10779404.377 5  -8399484.170 2
  25407668.037    -2582599.637 2  -2012394.462 1
  22711827.529   -11621071.798 4  -9055332.227 2
 91  4  8  0 11  0.0050000  0  5 19 13 02 15 06
  25016032.962    21084905.276 2  16429777.122 1
  24205957.763    -8013018.405 2  -6243901.514 1
  22572369.472   -10766707.252 5  -8389590.300 3
  25407559.514    -2583134.253 2  -2012810.992 1
  22709486.748   -11633375.962 4  -9064919.861 2
 91  4  8  0 11 15.0050000  0  5 19 13 02 15 06
  25025426.659    21134294.554 2  16468262.181 1
  24197767.434    -8056088.551 3  -6277462.535 1
  22574792.395   -10753984.586 5  -8379676.523 2
  25407483.065    -2583565.225 2  -2013146.803 1
  22707150.168   -11645639.826 4  -9074476.066 2
 91  4  8  0 11 30.0050000  0  5 19 13 02 15 06
  25034829.346    21183720.352 2  16506775.676 1
  24189581.903    -8099102.152 3  -6310979.477 1
  22577212.919   -10741240.070 5  -8369745.724 3
  25407412.313    -2583895.729 2  -2013404.291 1
  22704824.678   -11657866.523 4  -9084003.336 2
 91  4  8  0 11 45.0050000  0  5 19 13 02 15 06
  25044248.529    21233184.327 2  16545318.908 1
  24181405.063    -8142057.058 2  -6344450.627 1
  22579644.537   -10728471.741 5  -8359796.374 3
  25407379.036    -2584123.796 2  -2013581.902 1
  22702507.581   -11670053.953 4  -9093500.004 2
 91  4  8  0 12  0.0050000  0  5 19 13 02 15 06
  25053659.615    21282683.776 2  16583889.784 1
  24173245.310    -8184955.533 3  -6377877.831 1
  22582079.153   -10715682.109 5  -8349830.414 2
  25407349.056    -2584251.786 2  -2013681.621 1
  22700194.982   -11682204.291 4  -9102967.763 2
 91  4  8  0 12 15.0050000  0  5 19 13 02 15 06
  25063087.487    21332226.483 2  16622494.362 1
  24165095.753    -8227789.556 3  -6411254.873 1
  22584519.164   -10702863.430 5  -8339841.816 3
  25407339.166    -2584271.465 2  -2013696.935 1
  22697888.081   -11694309.546 4  -9112400.406 2
 91  4  8  0 12 30.0050000  0  5 19 13 02 15 06
  25072527.348    21381804.292 2  16661126.391 1
  24156951.292    -8270566.542 3  -6444587.492 1
  22586963.373   -10690023.883 5  -8329836.974 3
  25407358.353    -2584190.903 2  -2013634.053 1
  22695593.168   -11706377.523 4  -9121803.995 2
 91  4  8  0 12 45.0050000  0  5 19 13 02 15 06
  25081972.314    21431421.752 2  16699789.203 1
  24148823.918    -8313281.606 3  -6477871.799 1
  22589410.277   -10677158.832 5  -8319812.249 3
  25407394.025    -2584005.184 2  -2013489.230 1
  22693304.851   -11718403.188 4  -9131174.605 2
 91  4  8  0 13  0.0050000  0  5 19 13 02 15 06
  25091426.567    21481079.177 2  16738483.199 1
  24140705.837    -8355933.921 3  -6511107.250 1
  22591859.581   -10664267.814 5  -8309767.296 3
  25407449.491    -2583713.596 2  -2013261.991 1
  22691025.229   -11730385.975 4  -9140511.809 2
 91  4  8  0 13 15.0050000  0  5 19 13 02 15 06
  25100879.625    21530776.654 2  16777208.395 1
  24132607.544    -8398523.190 3  -6544293.491 1
  22594320.280   -10651350.986 5  -8299702.220 3
  25407525.338    -2583316.099 2  -2012952.213 1
  22688756.103   -11742325.504 4  -9149815.302 2
 91  4  8  0 13 30.0050000  0  5 19 13 02 15 06
  25110339.872    21580519.834 2  16815969.210 1
  24124511.947    -8441042.987 3  -6577425.680 1
  22596784.272   -10638402.384 5  -8289612.405 3
  25407623.068    -2582806.498 2  -2012555.107 1
  22686489.970   -11754215.721 4  -9159080.381 2
 91  4  8  0 13 45.0050000  0  5 19 13 02 15 06
  25119823.808    21630307.353 2  16854764.586 1
  24116436.737    -8483494.426 3  -6610504.572 1
  22599253.365   -10625423.479 4  -8279498.959 2
  25407739.688    -2582185.839 2  -2012071.356 1
  22684238.529   -11766057.482 4  -9168307.701 2
 91  4  8  0 14  0.0050000  0  5 19 13 02 15 06
  25129300.546    21680134.900 2  16893591.143 1
  24108367.826    -8525881.466 3  -6643533.279 1
  22601729.049   -10612418.430 5  -8269365.145 3
  25407881.488    -2581458.300 2  -2011504.368 1
  22681990.684   -11777854.975 4  -9177500.512 2
 91  4  8  0 14 15.0050000  0  5 19 13 02 15 06
  25138789.878    21730005.242 2  16932451.083 1
  24100319.895    -8568200.556 3  -6676509.113 1
  22604210.731   -10599384.254 5  -8259208.641 3
  25408041.878    -2580620.457 2  -2010851.482 1
  22679755.433   -11789604.727 4  -9186656.143 2
 91  4  8  0 14 30.0050000  0  5 19 13 02 15 06
  25148289.702    21779918.661 2  16971344.534 1
  24092274.367    -8610451.036 3  -6709431.362 1
  22606695.411   -10586320.892 5  -8249029.390 3
  25408221.153    -2579672.157 2  -2010112.468 1
  22677528.873   -11801306.331 4  -9195774.243 2
 91  4  8  0 14 45.0060000  0  5 19 13 02 15 06
  25157787.427    21829874.137 2  17010270.761 1
  24084245.922    -8652639.807 3  -6742305.595 1
  22609187.284   -10573231.896 5  -8238830.169 2
  25408423.216    -2578617.432 2  -2009290.547 1
  22675308.611   -11812964.765 4  -9204858.701 2
 91  4  8  0 15  0.0060000  0  5 19 13 02 15 06
  25167303.140    21879864.965 2  17049224.528 1
  24076227.975    -8694760.628 3  -6775126.824 1
  22611683.359   -10560118.567 5  -8228611.979 3
  25408642.661    -2577455.874 2  -2008385.414 1
  22673099.740   -11824577.588 4  -9213907.628 2
 91  4  8  0 15 15.0060000  0  5 19 13 02 15 06
  25176832.939    21929894.978 2  17088208.794 1
  24068225.916    -8736815.553 3  -6807896.774 1
  22614181.828   -10546979.520 5  -8218373.755 3
  25408882.497    -2576186.741 2  -2007396.395 1
  22670896.864   -11836144.936 4  -9222921.122 2
 91  4  8  0 15 30.0060000  0  5 19 13 02 15 06
  25186361.544    21979959.243 2  17127219.829 1
  24060235.247    -8778809.140 3  -6840618.910 1
  22616686.292   -10533819.879 5  -8208119.477 3
  25409138.518    -2574814.982 2  -2006327.470 1
  22668704.484   -11847671.448 4  -9231902.788 2
 91  4  8  0 15 45.0060000  0  5 19 13 02 15 06
  25195888.049    22030058.988 2  17166258.472 1
  24052259.865    -8820739.438 3  -6873291.769 1
  22619196.458   -10520638.138 5  -8197847.984 3
  25409424.523    -2573338.542 2  -2005176.944 1
  22666521.693   -11859155.516 4  -9240851.383 2
 91  4  8  0 16  0.0060000  0  5 19 13 02 15 06
  25205425.348    22080194.369 2  17205324.884 1
  24044289.884    -8862605.930 3  -6905914.905 1
  22621708.718   -10507434.138 5  -8187559.144 3
  25409724.614    -2571757.302 2  -2003944.675 1
  22664344.002   -11870596.404 4  -9249766.326 2
 91  4  8  0 16 15.0060000  0  5 19 13 02 15 06
  25214975.534    22130362.130 2  17244416.484 1
  24036333.392    -8904411.770 3  -6938490.710 1
  22624225.476   -10494211.280 5  -8177255.613 3
  25410046.593    -2570074.323 2  -2002633.242 1
  22662171.707   -11881997.527 4  -9258650.280 2
 91  4  8  0 16 30.0060000  0  5 19 13 02 15 06
  25224528.123    22180564.691 2  17283535.280 1
  24028390.393    -8946153.824 3  -6971016.824 1
  22626744.929   -10480966.946 5  -8166935.350 3
  25410387.753    -2568286.973 2  -2001240.446 1
  22660012.299   -11893355.846 4  -9267500.891 2
 91  4  8  0 16 45.0060000  0  5 19 13 02 15 06
  25234099.598    22230806.017 2  17322684.262 1
  24020461.180    -8987827.562 3  -7003489.694 1
  22629269.784   -10467697.205 5  -8156595.279 3
  25410745.705    -2566390.829 2  -1999762.928 1
  22657860.391   -11904666.936 4  -9276314.696 2
 91  4  8  0 17  0.0060000  0  5 19 13 02 15 06
  25243663.875    22281084.023 2  17361861.826 1
  24012549.657    -9029434.721 3  -7035910.693 1
  22631800.031   -10454403.936 5  -8146236.882 3
  25411132.738    -2564387.741 2  -1998201.953 1
  22655715.973   -11915932.528 4  -9285093.047 2
 91  4  8  0 17 15.0060000  0  5 19 13 02 15 06
  25253231.153    22331401.897 2  17401070.449 1
  24004644.132    -9070971.893 3  -7068277.181 1
  22634334.177   -10441084.055 4  -8135857.749 3
  25411532.963    -2562274.164 2  -1996554.953 1
  22653581.750   -11927149.377 4  -9293833.412 2
 91  4  8  0 17 30.0060000  0  5 19 13 02 15 06
  25262808.020    22381757.073 2  17440308.147 1
  23996746.696    -9112441.322 3  -7100590.981 1
  22636874.916   -10427740.179 5  -8125459.883 2
  25411948.173    -2560052.769 2  -1994823.995 1
  22651456.824   -11938319.276 4  -9302537.199 2
 91  4  8  0 17 45.0060000  0  5 19 13 02 15 06
  25272399.284    22432144.841 2  17479571.243 1
  23988866.954    -9153846.886 3  -7132854.873 1
  22639417.456   -10414376.748 4  -8115046.841 3
  25412396.365    -2557727.802 2  -1993012.262 1
  22649335.789   -11949446.699 4  -9311207.884 2
